<?xml version="1.0" encoding="UTF-8" standalone="no" ?>
<gpx xmlns="http://www.topografix.com/GPX/1/1" xmlns:xsi="http://www.w3.org/2001/XMLSchema-instance" xsi:schemaLocation="http://www.topografix.com/GPX/1/1 http://www.topografix.com/GPX/1/1/gpx.xsd" version="1.1" creator="VisuGPX - https://www.visugpx.com">
  <metadata>
    <name>Jour 5</name>
  </metadata>
  <trk>
    <name><![CDATA[Jour 5_3]]></name>
    <trkseg>
      <trkpt lat="42.31183" lon="-0.62394">
        <ele>789.94</ele>
        <time>2021-08-03T13:19:25Z</time>
      </trkpt>
      <trkpt lat="42.31201" lon="-0.62387">
        <ele>790.45</ele>
        <time>2021-08-03T13:19:34Z</time>
      </trkpt>
      <trkpt lat="42.31252" lon="-0.62393">
        <ele>792.39</ele>
        <time>2021-08-03T13:19:44Z</time>
      </trkpt>
      <trkpt lat="42.31277" lon="-0.62402">
        <ele>794.07</ele>
        <time>2021-08-03T13:19:53Z</time>
      </trkpt>
      <trkpt lat="42.31337" lon="-0.6243">
        <ele>796.76</ele>
        <time>2021-08-03T13:20:05Z</time>
      </trkpt>
      <trkpt lat="42.31379" lon="-0.62443">
        <ele>799.36</ele>
        <time>2021-08-03T13:20:14Z</time>
      </trkpt>
      <trkpt lat="42.31393" lon="-0.62417">
        <ele>800.25</ele>
        <time>2021-08-03T13:20:22Z</time>
      </trkpt>
      <trkpt lat="42.31398" lon="-0.62404">
        <ele>800.76</ele>
        <time>2021-08-03T13:20:25Z</time>
      </trkpt>
      <trkpt lat="42.31401" lon="-0.624">
        <ele>800.86</ele>
        <time>2021-08-03T13:20:26Z</time>
      </trkpt>
      <trkpt lat="42.31406" lon="-0.62395">
        <ele>800.91</ele>
        <time>2021-08-03T13:20:27Z</time>
      </trkpt>
      <trkpt lat="42.31412" lon="-0.62392">
        <ele>801</ele>
        <time>2021-08-03T13:20:28Z</time>
      </trkpt>
      <trkpt lat="42.31419" lon="-0.6239">
        <ele>801.15</ele>
        <time>2021-08-03T13:20:29Z</time>
      </trkpt>
      <trkpt lat="42.31471" lon="-0.62372">
        <ele>802.28</ele>
        <time>2021-08-03T13:20:35Z</time>
      </trkpt>
      <trkpt lat="42.31501" lon="-0.62378">
        <ele>802.98</ele>
        <time>2021-08-03T13:20:39Z</time>
      </trkpt>
      <trkpt lat="42.31535" lon="-0.62388">
        <ele>803.83</ele>
        <time>2021-08-03T13:20:44Z</time>
      </trkpt>
      <trkpt lat="42.3159" lon="-0.62366">
        <ele>805.66</ele>
        <time>2021-08-03T13:20:53Z</time>
      </trkpt>
      <trkpt lat="42.31603" lon="-0.62358">
        <ele>807.2</ele>
        <time>2021-08-03T13:21:00Z</time>
      </trkpt>
      <trkpt lat="42.31605" lon="-0.62357">
        <ele>807.93</ele>
        <time>2021-08-03T13:21:22Z</time>
      </trkpt>
      <trkpt lat="42.31602" lon="-0.62355">
        <ele>807.76</ele>
        <time>2021-08-03T13:21:33Z</time>
      </trkpt>
      <trkpt lat="42.31603" lon="-0.62341">
        <ele>808.23</ele>
        <time>2021-08-03T13:21:50Z</time>
      </trkpt>
      <trkpt lat="42.31602" lon="-0.6235">
        <ele>808.27</ele>
        <time>2021-08-03T13:22:08Z</time>
      </trkpt>
      <trkpt lat="42.31602" lon="-0.62356">
        <ele>808.15</ele>
        <time>2021-08-03T13:22:10Z</time>
      </trkpt>
      <trkpt lat="42.31589" lon="-0.62368">
        <ele>808.12</ele>
        <time>2021-08-03T13:22:14Z</time>
      </trkpt>
      <trkpt lat="42.31546" lon="-0.62389">
        <ele>808.26</ele>
        <time>2021-08-03T13:22:21Z</time>
      </trkpt>
      <trkpt lat="42.31477" lon="-0.62373">
        <ele>807.08</ele>
        <time>2021-08-03T13:22:29Z</time>
      </trkpt>
      <trkpt lat="42.31397" lon="-0.624">
        <ele>805.25</ele>
        <time>2021-08-03T13:22:38Z</time>
      </trkpt>
      <trkpt lat="42.31392" lon="-0.62405">
        <ele>805.04</ele>
        <time>2021-08-03T13:22:39Z</time>
      </trkpt>
      <trkpt lat="42.31388" lon="-0.62411">
        <ele>804.76</ele>
        <time>2021-08-03T13:22:40Z</time>
      </trkpt>
      <trkpt lat="42.31387" lon="-0.62416">
        <ele>804.49</ele>
        <time>2021-08-03T13:22:41Z</time>
      </trkpt>
      <trkpt lat="42.31385" lon="-0.62422">
        <ele>804.2</ele>
        <time>2021-08-03T13:22:42Z</time>
      </trkpt>
      <trkpt lat="42.31384" lon="-0.62426">
        <ele>803.88</ele>
        <time>2021-08-03T13:22:43Z</time>
      </trkpt>
      <trkpt lat="42.31382" lon="-0.62438">
        <ele>802.29</ele>
        <time>2021-08-03T13:22:50Z</time>
      </trkpt>
      <trkpt lat="42.31353" lon="-0.62434">
        <ele>800.96</ele>
        <time>2021-08-03T13:22:58Z</time>
      </trkpt>
      <trkpt lat="42.31286" lon="-0.62408">
        <ele>801.31</ele>
        <time>2021-08-03T13:23:04Z</time>
      </trkpt>
      <trkpt lat="42.3121" lon="-0.62386">
        <ele>800.59</ele>
        <time>2021-08-03T13:23:10Z</time>
      </trkpt>
      <trkpt lat="42.31185" lon="-0.6239">
        <ele>796.42</ele>
        <time>2021-08-03T13:23:16Z</time>
      </trkpt>
      <trkpt lat="42.31188" lon="-0.62411">
        <ele>792.66</ele>
        <time>2021-08-03T13:23:22Z</time>
      </trkpt>
      <trkpt lat="42.31193" lon="-0.62417">
        <ele>792.3</ele>
        <time>2021-08-03T13:23:23Z</time>
      </trkpt>
      <trkpt lat="42.31279" lon="-0.62525">
        <ele>790.92</ele>
        <time>2021-08-03T13:23:33Z</time>
      </trkpt>
      <trkpt lat="42.31302" lon="-0.62578">
        <ele>789.93</ele>
        <time>2021-08-03T13:23:37Z</time>
      </trkpt>
      <trkpt lat="42.31361" lon="-0.62758">
        <ele>786.95</ele>
        <time>2021-08-03T13:23:48Z</time>
      </trkpt>
      <trkpt lat="42.31368" lon="-0.62775">
        <ele>786.49</ele>
        <time>2021-08-03T13:23:49Z</time>
      </trkpt>
      <trkpt lat="42.31368" lon="-0.62865">
        <ele>783.61</ele>
        <time>2021-08-03T13:23:54Z</time>
      </trkpt>
      <trkpt lat="42.31315" lon="-0.62991">
        <ele>779.77</ele>
        <time>2021-08-03T13:24:00Z</time>
      </trkpt>
      <trkpt lat="42.31215" lon="-0.63251">
        <ele>777.12</ele>
        <time>2021-08-03T13:24:10Z</time>
      </trkpt>
      <trkpt lat="42.31114" lon="-0.63513">
        <ele>774</ele>
        <time>2021-08-03T13:24:19Z</time>
      </trkpt>
      <trkpt lat="42.31021" lon="-0.63755">
        <ele>770.82</ele>
        <time>2021-08-03T13:24:27Z</time>
      </trkpt>
      <trkpt lat="42.3095" lon="-0.63936">
        <ele>767.46</ele>
        <time>2021-08-03T13:24:33Z</time>
      </trkpt>
      <trkpt lat="42.309" lon="-0.64067">
        <ele>763.77</ele>
        <time>2021-08-03T13:24:38Z</time>
      </trkpt>
      <trkpt lat="42.30877" lon="-0.64128">
        <ele>760.42</ele>
        <time>2021-08-03T13:24:41Z</time>
      </trkpt>
      <trkpt lat="42.3083" lon="-0.64174">
        <ele>756.29</ele>
        <time>2021-08-03T13:24:45Z</time>
      </trkpt>
      <trkpt lat="42.3077" lon="-0.64207">
        <ele>753.73</ele>
        <time>2021-08-03T13:24:49Z</time>
      </trkpt>
      <trkpt lat="42.30621" lon="-0.64329">
        <ele>757</ele>
        <time>2021-08-03T13:24:58Z</time>
      </trkpt>
      <trkpt lat="42.30548" lon="-0.64386">
        <ele>760.03</ele>
        <time>2021-08-03T13:25:04Z</time>
      </trkpt>
      <trkpt lat="42.30429" lon="-0.64457">
        <ele>760.41</ele>
        <time>2021-08-03T13:25:11Z</time>
      </trkpt>
      <trkpt lat="42.30304" lon="-0.64539">
        <ele>758.16</ele>
        <time>2021-08-03T13:25:18Z</time>
      </trkpt>
      <trkpt lat="42.3029" lon="-0.64554">
        <ele>757.1</ele>
        <time>2021-08-03T13:25:19Z</time>
      </trkpt>
      <trkpt lat="42.30264" lon="-0.64616">
        <ele>753.73</ele>
        <time>2021-08-03T13:25:22Z</time>
      </trkpt>
      <trkpt lat="42.3024" lon="-0.64709">
        <ele>750</ele>
        <time>2021-08-03T13:25:26Z</time>
      </trkpt>
      <trkpt lat="42.30197" lon="-0.64792">
        <ele>747.51</ele>
        <time>2021-08-03T13:25:30Z</time>
      </trkpt>
      <trkpt lat="42.30102" lon="-0.64905">
        <ele>743.88</ele>
        <time>2021-08-03T13:25:36Z</time>
      </trkpt>
      <trkpt lat="42.30018" lon="-0.65002">
        <ele>740.39</ele>
        <time>2021-08-03T13:25:41Z</time>
      </trkpt>
      <trkpt lat="42.29967" lon="-0.65062">
        <ele>737.29</ele>
        <time>2021-08-03T13:25:44Z</time>
      </trkpt>
      <trkpt lat="42.29933" lon="-0.65102">
        <ele>735.46</ele>
        <time>2021-08-03T13:25:46Z</time>
      </trkpt>
      <trkpt lat="42.29934" lon="-0.65115">
        <ele>706.34</ele>
        <time>2021-08-03T14:05:08Z</time>
      </trkpt>
      <trkpt lat="42.29949" lon="-0.65136">
        <ele>707.55</ele>
        <time>2021-08-03T14:05:11Z</time>
      </trkpt>
      <trkpt lat="42.3001" lon="-0.65263">
        <ele>709.2</ele>
        <time>2021-08-03T14:05:20Z</time>
      </trkpt>
      <trkpt lat="42.30105" lon="-0.65452">
        <ele>710.29</ele>
        <time>2021-08-03T14:05:31Z</time>
      </trkpt>
      <trkpt lat="42.30205" lon="-0.65658">
        <ele>710.05</ele>
        <time>2021-08-03T14:05:42Z</time>
      </trkpt>
      <trkpt lat="42.30303" lon="-0.65864">
        <ele>708.73</ele>
        <time>2021-08-03T14:05:52Z</time>
      </trkpt>
      <trkpt lat="42.30465" lon="-0.6625">
        <ele>706.5</ele>
        <time>2021-08-03T14:06:09Z</time>
      </trkpt>
      <trkpt lat="42.30588" lon="-0.66561">
        <ele>704.22</ele>
        <time>2021-08-03T14:06:22Z</time>
      </trkpt>
      <trkpt lat="42.30601" lon="-0.66679">
        <ele>703.59</ele>
        <time>2021-08-03T14:06:27Z</time>
      </trkpt>
      <trkpt lat="42.30633" lon="-0.66755">
        <ele>703.5</ele>
        <time>2021-08-03T14:06:33Z</time>
      </trkpt>
      <trkpt lat="42.30639" lon="-0.6676">
        <ele>703.52</ele>
        <time>2021-08-03T14:06:34Z</time>
      </trkpt>
      <trkpt lat="42.30644" lon="-0.66764">
        <ele>703.55</ele>
        <time>2021-08-03T14:06:35Z</time>
      </trkpt>
      <trkpt lat="42.30647" lon="-0.66794">
        <ele>704.26</ele>
        <time>2021-08-03T14:06:39Z</time>
      </trkpt>
      <trkpt lat="42.30636" lon="-0.66979">
        <ele>704.75</ele>
        <time>2021-08-03T14:06:49Z</time>
      </trkpt>
      <trkpt lat="42.3063" lon="-0.67165">
        <ele>701.75</ele>
        <time>2021-08-03T14:06:57Z</time>
      </trkpt>
      <trkpt lat="42.30649" lon="-0.67347">
        <ele>700.8</ele>
        <time>2021-08-03T14:07:05Z</time>
      </trkpt>
      <trkpt lat="42.30719" lon="-0.67612">
        <ele>700.52</ele>
        <time>2021-08-03T14:07:17Z</time>
      </trkpt>
      <trkpt lat="42.30732" lon="-0.6778">
        <ele>702.07</ele>
        <time>2021-08-03T14:07:25Z</time>
      </trkpt>
      <trkpt lat="42.30742" lon="-0.67938">
        <ele>705.57</ele>
        <time>2021-08-03T14:07:33Z</time>
      </trkpt>
      <trkpt lat="42.30753" lon="-0.68022">
        <ele>707.55</ele>
        <time>2021-08-03T14:07:37Z</time>
      </trkpt>
      <trkpt lat="42.308" lon="-0.68139">
        <ele>711.49</ele>
        <time>2021-08-03T14:07:43Z</time>
      </trkpt>
      <trkpt lat="42.30836" lon="-0.68215">
        <ele>714.58</ele>
        <time>2021-08-03T14:07:47Z</time>
      </trkpt>
      <trkpt lat="42.30871" lon="-0.68291">
        <ele>717.75</ele>
        <time>2021-08-03T14:07:51Z</time>
      </trkpt>
      <trkpt lat="42.30905" lon="-0.68399">
        <ele>720.94</ele>
        <time>2021-08-03T14:07:56Z</time>
      </trkpt>
      <trkpt lat="42.30955" lon="-0.68552">
        <ele>724.17</ele>
        <time>2021-08-03T14:08:03Z</time>
      </trkpt>
      <trkpt lat="42.31036" lon="-0.68671">
        <ele>727.42</ele>
        <time>2021-08-03T14:08:10Z</time>
      </trkpt>
      <trkpt lat="42.31097" lon="-0.68753">
        <ele>730.76</ele>
        <time>2021-08-03T14:08:15Z</time>
      </trkpt>
      <trkpt lat="42.31157" lon="-0.68834">
        <ele>734.06</ele>
        <time>2021-08-03T14:08:20Z</time>
      </trkpt>
      <trkpt lat="42.31199" lon="-0.68896">
        <ele>737.47</ele>
        <time>2021-08-03T14:08:24Z</time>
      </trkpt>
      <trkpt lat="42.31223" lon="-0.68951">
        <ele>740.52</ele>
        <time>2021-08-03T14:08:27Z</time>
      </trkpt>
      <trkpt lat="42.31242" lon="-0.69036">
        <ele>744.28</ele>
        <time>2021-08-03T14:08:31Z</time>
      </trkpt>
      <trkpt lat="42.31257" lon="-0.69122">
        <ele>747.38</ele>
        <time>2021-08-03T14:08:35Z</time>
      </trkpt>
      <trkpt lat="42.31279" lon="-0.69206">
        <ele>749.17</ele>
        <time>2021-08-03T14:08:39Z</time>
      </trkpt>
      <trkpt lat="42.31365" lon="-0.69333">
        <ele>749.48</ele>
        <time>2021-08-03T14:08:47Z</time>
      </trkpt>
      <trkpt lat="42.31422" lon="-0.69364">
        <ele>749.11</ele>
        <time>2021-08-03T14:08:51Z</time>
      </trkpt>
      <trkpt lat="42.31571" lon="-0.69403">
        <ele>748.86</ele>
        <time>2021-08-03T14:09:02Z</time>
      </trkpt>
      <trkpt lat="42.31629" lon="-0.69475">
        <ele>752.03</ele>
        <time>2021-08-03T14:09:09Z</time>
      </trkpt>
      <trkpt lat="42.31638" lon="-0.69482">
        <ele>752.74</ele>
        <time>2021-08-03T14:09:10Z</time>
      </trkpt>
      <trkpt lat="42.31666" lon="-0.69527">
        <ele>757.47</ele>
        <time>2021-08-03T14:09:17Z</time>
      </trkpt>
      <trkpt lat="42.31667" lon="-0.69553">
        <ele>759.02</ele>
        <time>2021-08-03T14:09:20Z</time>
      </trkpt>
      <trkpt lat="42.31672" lon="-0.69609">
        <ele>762.65</ele>
        <time>2021-08-03T14:09:27Z</time>
      </trkpt>
      <trkpt lat="42.31676" lon="-0.69626">
        <ele>764.84</ele>
        <time>2021-08-03T14:09:33Z</time>
      </trkpt>
      <trkpt lat="42.31666" lon="-0.69657">
        <ele>765.91</ele>
        <time>2021-08-03T14:09:43Z</time>
      </trkpt>
      <trkpt lat="42.31682" lon="-0.69693">
        <ele>765.18</ele>
        <time>2021-08-03T14:09:54Z</time>
      </trkpt>
      <trkpt lat="42.31693" lon="-0.69706">
        <ele>765</ele>
        <time>2021-08-03T14:10:02Z</time>
      </trkpt>
      <trkpt lat="42.31695" lon="-0.69708">
        <ele>764.93</ele>
        <time>2021-08-03T14:10:06Z</time>
      </trkpt>
      <trkpt lat="42.31738" lon="-0.69733">
        <ele>765.11</ele>
        <time>2021-08-03T14:10:13Z</time>
      </trkpt>
      <trkpt lat="42.31774" lon="-0.69777">
        <ele>765.21</ele>
        <time>2021-08-03T14:10:18Z</time>
      </trkpt>
      <trkpt lat="42.31824" lon="-0.69901">
        <ele>767.3</ele>
        <time>2021-08-03T14:10:29Z</time>
      </trkpt>
      <trkpt lat="42.31842" lon="-0.69954">
        <ele>765.42</ele>
        <time>2021-08-03T14:10:34Z</time>
      </trkpt>
      <trkpt lat="42.3185" lon="-0.70025">
        <ele>761.26</ele>
        <time>2021-08-03T14:10:40Z</time>
      </trkpt>
      <trkpt lat="42.31859" lon="-0.7006">
        <ele>758.15</ele>
        <time>2021-08-03T14:10:43Z</time>
      </trkpt>
      <trkpt lat="42.31866" lon="-0.70085">
        <ele>755.7</ele>
        <time>2021-08-03T14:10:45Z</time>
      </trkpt>
      <trkpt lat="42.31891" lon="-0.70115">
        <ele>750.71</ele>
        <time>2021-08-03T14:10:49Z</time>
      </trkpt>
      <trkpt lat="42.31899" lon="-0.70114">
        <ele>749.67</ele>
        <time>2021-08-03T14:10:50Z</time>
      </trkpt>
      <trkpt lat="42.31938" lon="-0.70145">
        <ele>744.72</ele>
        <time>2021-08-03T14:10:56Z</time>
      </trkpt>
      <trkpt lat="42.31945" lon="-0.70156">
        <ele>743.94</ele>
        <time>2021-08-03T14:10:57Z</time>
      </trkpt>
      <trkpt lat="42.31969" lon="-0.70188">
        <ele>741.69</ele>
        <time>2021-08-03T14:11:00Z</time>
      </trkpt>
      <trkpt lat="42.32016" lon="-0.70221">
        <ele>737.92</ele>
        <time>2021-08-03T14:11:05Z</time>
      </trkpt>
      <trkpt lat="42.32053" lon="-0.70244">
        <ele>735.96</ele>
        <time>2021-08-03T14:11:09Z</time>
      </trkpt>
      <trkpt lat="42.321" lon="-0.70255">
        <ele>735.37</ele>
        <time>2021-08-03T14:11:14Z</time>
      </trkpt>
      <trkpt lat="42.32179" lon="-0.7031">
        <ele>732.26</ele>
        <time>2021-08-03T14:11:24Z</time>
      </trkpt>
      <trkpt lat="42.32199" lon="-0.70334">
        <ele>730.58</ele>
        <time>2021-08-03T14:11:27Z</time>
      </trkpt>
      <trkpt lat="42.32203" lon="-0.70344">
        <ele>730.28</ele>
        <time>2021-08-03T14:11:28Z</time>
      </trkpt>
      <trkpt lat="42.32205" lon="-0.70354">
        <ele>730.13</ele>
        <time>2021-08-03T14:11:29Z</time>
      </trkpt>
      <trkpt lat="42.32205" lon="-0.70378">
        <ele>730.03</ele>
        <time>2021-08-03T14:11:31Z</time>
      </trkpt>
      <trkpt lat="42.32204" lon="-0.70402">
        <ele>730.14</ele>
        <time>2021-08-03T14:11:33Z</time>
      </trkpt>
      <trkpt lat="42.32209" lon="-0.70449">
        <ele>730.91</ele>
        <time>2021-08-03T14:11:37Z</time>
      </trkpt>
      <trkpt lat="42.32203" lon="-0.70493">
        <ele>731.78</ele>
        <time>2021-08-03T14:11:41Z</time>
      </trkpt>
      <trkpt lat="42.32151" lon="-0.70614">
        <ele>731.98</ele>
        <time>2021-08-03T14:11:51Z</time>
      </trkpt>
      <trkpt lat="42.32121" lon="-0.7065">
        <ele>731.55</ele>
        <time>2021-08-03T14:11:55Z</time>
      </trkpt>
      <trkpt lat="42.32059" lon="-0.70706">
        <ele>729.14</ele>
        <time>2021-08-03T14:12:02Z</time>
      </trkpt>
      <trkpt lat="42.32015" lon="-0.70797">
        <ele>725.06</ele>
        <time>2021-08-03T14:12:09Z</time>
      </trkpt>
      <trkpt lat="42.31994" lon="-0.70843">
        <ele>721.67</ele>
        <time>2021-08-03T14:12:13Z</time>
      </trkpt>
      <trkpt lat="42.31976" lon="-0.70888">
        <ele>718.09</ele>
        <time>2021-08-03T14:12:17Z</time>
      </trkpt>
      <trkpt lat="42.31956" lon="-0.70937">
        <ele>714.59</ele>
        <time>2021-08-03T14:12:21Z</time>
      </trkpt>
      <trkpt lat="42.31935" lon="-0.70993">
        <ele>711.5</ele>
        <time>2021-08-03T14:12:25Z</time>
      </trkpt>
      <trkpt lat="42.31916" lon="-0.71053">
        <ele>708.37</ele>
        <time>2021-08-03T14:12:29Z</time>
      </trkpt>
      <trkpt lat="42.31895" lon="-0.71112">
        <ele>704.86</ele>
        <time>2021-08-03T14:12:33Z</time>
      </trkpt>
      <trkpt lat="42.31855" lon="-0.7117">
        <ele>700.54</ele>
        <time>2021-08-03T14:12:38Z</time>
      </trkpt>
      <trkpt lat="42.31825" lon="-0.71214">
        <ele>697.25</ele>
        <time>2021-08-03T14:12:42Z</time>
      </trkpt>
      <trkpt lat="42.31806" lon="-0.71249">
        <ele>694.43</ele>
        <time>2021-08-03T14:12:45Z</time>
      </trkpt>
      <trkpt lat="42.31767" lon="-0.71256">
        <ele>690.09</ele>
        <time>2021-08-03T14:12:50Z</time>
      </trkpt>
      <trkpt lat="42.31759" lon="-0.71247">
        <ele>689.42</ele>
        <time>2021-08-03T14:12:51Z</time>
      </trkpt>
      <trkpt lat="42.31716" lon="-0.71181">
        <ele>685.24</ele>
        <time>2021-08-03T14:12:57Z</time>
      </trkpt>
      <trkpt lat="42.31708" lon="-0.71141">
        <ele>681.2</ele>
        <time>2021-08-03T14:13:02Z</time>
      </trkpt>
      <trkpt lat="42.31697" lon="-0.7114">
        <ele>678.17</ele>
        <time>2021-08-03T14:13:06Z</time>
      </trkpt>
      <trkpt lat="42.31698" lon="-0.71157">
        <ele>676.82</ele>
        <time>2021-08-03T14:13:08Z</time>
      </trkpt>
      <trkpt lat="42.31713" lon="-0.71261">
        <ele>673.1</ele>
        <time>2021-08-03T14:13:16Z</time>
      </trkpt>
      <trkpt lat="42.31739" lon="-0.7135">
        <ele>669.77</ele>
        <time>2021-08-03T14:13:23Z</time>
      </trkpt>
      <trkpt lat="42.31759" lon="-0.71388">
        <ele>667.29</ele>
        <time>2021-08-03T14:13:27Z</time>
      </trkpt>
      <trkpt lat="42.31787" lon="-0.71422">
        <ele>662.6</ele>
        <time>2021-08-03T14:13:33Z</time>
      </trkpt>
      <trkpt lat="42.31789" lon="-0.71438">
        <ele>660.88</ele>
        <time>2021-08-03T14:13:35Z</time>
      </trkpt>
      <trkpt lat="42.3179" lon="-0.71452">
        <ele>659.49</ele>
        <time>2021-08-03T14:13:37Z</time>
      </trkpt>
      <trkpt lat="42.31808" lon="-0.71498">
        <ele>656.35</ele>
        <time>2021-08-03T14:13:43Z</time>
      </trkpt>
      <trkpt lat="42.31825" lon="-0.71518">
        <ele>654.98</ele>
        <time>2021-08-03T14:13:46Z</time>
      </trkpt>
      <trkpt lat="42.31834" lon="-0.71555">
        <ele>652.04</ele>
        <time>2021-08-03T14:13:51Z</time>
      </trkpt>
      <trkpt lat="42.31834" lon="-0.71594">
        <ele>649.63</ele>
        <time>2021-08-03T14:13:56Z</time>
      </trkpt>
      <trkpt lat="42.3184" lon="-0.71661">
        <ele>645.92</ele>
        <time>2021-08-03T14:14:03Z</time>
      </trkpt>
      <trkpt lat="42.31846" lon="-0.71711">
        <ele>642.84</ele>
        <time>2021-08-03T14:14:08Z</time>
      </trkpt>
      <trkpt lat="42.31852" lon="-0.71763">
        <ele>638.96</ele>
        <time>2021-08-03T14:14:14Z</time>
      </trkpt>
      <trkpt lat="42.3185" lon="-0.71816">
        <ele>636.5</ele>
        <time>2021-08-03T14:14:22Z</time>
      </trkpt>
      <trkpt lat="42.31836" lon="-0.71846">
        <ele>636.3</ele>
        <time>2021-08-03T14:14:26Z</time>
      </trkpt>
      <trkpt lat="42.31826" lon="-0.71914">
        <ele>636.23</ele>
        <time>2021-08-03T14:14:35Z</time>
      </trkpt>
      <trkpt lat="42.31814" lon="-0.72021">
        <ele>635.86</ele>
        <time>2021-08-03T14:14:46Z</time>
      </trkpt>
      <trkpt lat="42.31803" lon="-0.72099">
        <ele>636.76</ele>
        <time>2021-08-03T14:14:54Z</time>
      </trkpt>
      <trkpt lat="42.31795" lon="-0.72125">
        <ele>637.38</ele>
        <time>2021-08-03T14:14:57Z</time>
      </trkpt>
      <trkpt lat="42.31769" lon="-0.72266">
        <ele>637.23</ele>
        <time>2021-08-03T14:15:09Z</time>
      </trkpt>
      <trkpt lat="42.31768" lon="-0.72277">
        <ele>636.98</ele>
        <time>2021-08-03T14:15:10Z</time>
      </trkpt>
      <trkpt lat="42.31757" lon="-0.72345">
        <ele>636.55</ele>
        <time>2021-08-03T14:15:16Z</time>
      </trkpt>
      <trkpt lat="42.31764" lon="-0.72386">
        <ele>635.86</ele>
        <time>2021-08-03T14:15:20Z</time>
      </trkpt>
      <trkpt lat="42.31774" lon="-0.72425">
        <ele>634.87</ele>
        <time>2021-08-03T14:15:24Z</time>
      </trkpt>
      <trkpt lat="42.31764" lon="-0.72525">
        <ele>631.11</ele>
        <time>2021-08-03T14:15:34Z</time>
      </trkpt>
      <trkpt lat="42.31765" lon="-0.7257">
        <ele>628.88</ele>
        <time>2021-08-03T14:15:39Z</time>
      </trkpt>
      <trkpt lat="42.31771" lon="-0.72598">
        <ele>627.31</ele>
        <time>2021-08-03T14:15:43Z</time>
      </trkpt>
      <trkpt lat="42.31776" lon="-0.72608">
        <ele>626.55</ele>
        <time>2021-08-03T14:15:45Z</time>
      </trkpt>
      <trkpt lat="42.31783" lon="-0.72642">
        <ele>625.11</ele>
        <time>2021-08-03T14:15:50Z</time>
      </trkpt>
      <trkpt lat="42.31788" lon="-0.72669">
        <ele>624.21</ele>
        <time>2021-08-03T14:15:54Z</time>
      </trkpt>
      <trkpt lat="42.31796" lon="-0.72689">
        <ele>622.39</ele>
        <time>2021-08-03T14:16:02Z</time>
      </trkpt>
      <trkpt lat="42.31805" lon="-0.72705">
        <ele>621.35</ele>
        <time>2021-08-03T14:16:25Z</time>
      </trkpt>
      <trkpt lat="42.31806" lon="-0.72781">
        <ele>621.47</ele>
        <time>2021-08-03T14:16:32Z</time>
      </trkpt>
      <trkpt lat="42.31764" lon="-0.72833">
        <ele>621.15</ele>
        <time>2021-08-03T14:16:38Z</time>
      </trkpt>
      <trkpt lat="42.31752" lon="-0.72836">
        <ele>620.9</ele>
        <time>2021-08-03T14:16:39Z</time>
      </trkpt>
      <trkpt lat="42.31649" lon="-0.72857">
        <ele>617.59</ele>
        <time>2021-08-03T14:16:47Z</time>
      </trkpt>
      <trkpt lat="42.31613" lon="-0.72865">
        <ele>616.51</ele>
        <time>2021-08-03T14:16:50Z</time>
      </trkpt>
      <trkpt lat="42.31572" lon="-0.72924">
        <ele>614.3</ele>
        <time>2021-08-03T14:16:56Z</time>
      </trkpt>
      <trkpt lat="42.31551" lon="-0.73011">
        <ele>611.54</ele>
        <time>2021-08-03T14:17:02Z</time>
      </trkpt>
      <trkpt lat="42.31549" lon="-0.73094">
        <ele>608.47</ele>
        <time>2021-08-03T14:17:07Z</time>
      </trkpt>
      <trkpt lat="42.31561" lon="-0.7317">
        <ele>605.03</ele>
        <time>2021-08-03T14:17:12Z</time>
      </trkpt>
      <trkpt lat="42.31544" lon="-0.73237">
        <ele>602.05</ele>
        <time>2021-08-03T14:17:17Z</time>
      </trkpt>
      <trkpt lat="42.31519" lon="-0.73295">
        <ele>600.34</ele>
        <time>2021-08-03T14:17:21Z</time>
      </trkpt>
      <trkpt lat="42.31497" lon="-0.73436">
        <ele>597.55</ele>
        <time>2021-08-03T14:17:29Z</time>
      </trkpt>
      <trkpt lat="42.31504" lon="-0.7355">
        <ele>593.9</ele>
        <time>2021-08-03T14:17:36Z</time>
      </trkpt>
      <trkpt lat="42.31515" lon="-0.73655">
        <ele>590.78</ele>
        <time>2021-08-03T14:17:42Z</time>
      </trkpt>
      <trkpt lat="42.31523" lon="-0.73814">
        <ele>587.61</ele>
        <time>2021-08-03T14:17:50Z</time>
      </trkpt>
      <trkpt lat="42.31516" lon="-0.73961">
        <ele>584.61</ele>
        <time>2021-08-03T14:17:57Z</time>
      </trkpt>
      <trkpt lat="42.31508" lon="-0.74093">
        <ele>581.15</ele>
        <time>2021-08-03T14:18:03Z</time>
      </trkpt>
      <trkpt lat="42.31505" lon="-0.74136">
        <ele>578.71</ele>
        <time>2021-08-03T14:18:05Z</time>
      </trkpt>
      <trkpt lat="42.31524" lon="-0.74214">
        <ele>575.08</ele>
        <time>2021-08-03T14:18:09Z</time>
      </trkpt>
      <trkpt lat="42.31553" lon="-0.74288">
        <ele>571.44</ele>
        <time>2021-08-03T14:18:13Z</time>
      </trkpt>
      <trkpt lat="42.31583" lon="-0.74359">
        <ele>568.36</ele>
        <time>2021-08-03T14:18:17Z</time>
      </trkpt>
      <trkpt lat="42.31605" lon="-0.7441">
        <ele>566.47</ele>
        <time>2021-08-03T14:18:20Z</time>
      </trkpt>
      <trkpt lat="42.31614" lon="-0.74481">
        <ele>564.01</ele>
        <time>2021-08-03T14:18:24Z</time>
      </trkpt>
      <trkpt lat="42.31617" lon="-0.74591">
        <ele>560.28</ele>
        <time>2021-08-03T14:18:29Z</time>
      </trkpt>
      <trkpt lat="42.31615" lon="-0.7467">
        <ele>556.66</ele>
        <time>2021-08-03T14:18:33Z</time>
      </trkpt>
      <trkpt lat="42.31597" lon="-0.7473">
        <ele>552.5</ele>
        <time>2021-08-03T14:18:37Z</time>
      </trkpt>
      <trkpt lat="42.31565" lon="-0.74758">
        <ele>549.17</ele>
        <time>2021-08-03T14:18:40Z</time>
      </trkpt>
      <trkpt lat="42.31538" lon="-0.74771">
        <ele>547.19</ele>
        <time>2021-08-03T14:18:42Z</time>
      </trkpt>
      <trkpt lat="42.31509" lon="-0.74782">
        <ele>545.34</ele>
        <time>2021-08-03T14:18:44Z</time>
      </trkpt>
      <trkpt lat="42.31465" lon="-0.74848">
        <ele>541.26</ele>
        <time>2021-08-03T14:18:49Z</time>
      </trkpt>
      <trkpt lat="42.31463" lon="-0.74868">
        <ele>540.48</ele>
        <time>2021-08-03T14:18:50Z</time>
      </trkpt>
      <trkpt lat="42.31442" lon="-0.75023">
        <ele>536.69</ele>
        <time>2021-08-03T14:18:57Z</time>
      </trkpt>
      <trkpt lat="42.3142" lon="-0.7519">
        <ele>533.62</ele>
        <time>2021-08-03T14:19:06Z</time>
      </trkpt>
      <trkpt lat="42.31414" lon="-0.75238">
        <ele>531.05</ele>
        <time>2021-08-03T14:19:13Z</time>
      </trkpt>
      <trkpt lat="42.31416" lon="-0.75256">
        <ele>529.63</ele>
        <time>2021-08-03T14:19:22Z</time>
      </trkpt>
      <trkpt lat="42.3142" lon="-0.75262">
        <ele>529.38</ele>
        <time>2021-08-03T14:19:25Z</time>
      </trkpt>
      <trkpt lat="42.31451" lon="-0.75274">
        <ele>529.04</ele>
        <time>2021-08-03T14:19:30Z</time>
      </trkpt>
      <trkpt lat="42.31493" lon="-0.75307">
        <ele>528.9</ele>
        <time>2021-08-03T14:19:34Z</time>
      </trkpt>
      <trkpt lat="42.31568" lon="-0.75348">
        <ele>527.4</ele>
        <time>2021-08-03T14:19:40Z</time>
      </trkpt>
      <trkpt lat="42.31579" lon="-0.75359">
        <ele>526.98</ele>
        <time>2021-08-03T14:19:41Z</time>
      </trkpt>
      <trkpt lat="42.316" lon="-0.7538">
        <ele>525.93</ele>
        <time>2021-08-03T14:19:43Z</time>
      </trkpt>
      <trkpt lat="42.31673" lon="-0.75423">
        <ele>521.87</ele>
        <time>2021-08-03T14:19:49Z</time>
      </trkpt>
      <trkpt lat="42.31698" lon="-0.75468">
        <ele>520.25</ele>
        <time>2021-08-03T14:19:52Z</time>
      </trkpt>
      <trkpt lat="42.31728" lon="-0.75528">
        <ele>517.76</ele>
        <time>2021-08-03T14:19:56Z</time>
      </trkpt>
      <trkpt lat="42.31806" lon="-0.75562">
        <ele>513.38</ele>
        <time>2021-08-03T14:20:02Z</time>
      </trkpt>
      <trkpt lat="42.31916" lon="-0.75553">
        <ele>509.53</ele>
        <time>2021-08-03T14:20:10Z</time>
      </trkpt>
      <trkpt lat="42.31967" lon="-0.75546">
        <ele>508.57</ele>
        <time>2021-08-03T14:20:14Z</time>
      </trkpt>
      <trkpt lat="42.32021" lon="-0.7549">
        <ele>507.3</ele>
        <time>2021-08-03T14:20:21Z</time>
      </trkpt>
      <trkpt lat="42.32023" lon="-0.75481">
        <ele>507.18</ele>
        <time>2021-08-03T14:20:22Z</time>
      </trkpt>
      <trkpt lat="42.32031" lon="-0.75456">
        <ele>506.24</ele>
        <time>2021-08-03T14:20:30Z</time>
      </trkpt>
      <trkpt lat="42.32023" lon="-0.75454">
        <ele>505.71</ele>
        <time>2021-08-03T14:20:57Z</time>
      </trkpt>
      <trkpt lat="42.32021" lon="-0.75456">
        <ele>505.86</ele>
        <time>2021-08-03T14:21:31Z</time>
      </trkpt>
      <trkpt lat="42.32019" lon="-0.75455">
        <ele>505.09</ele>
        <time>2021-08-03T14:22:02Z</time>
      </trkpt>
      <trkpt lat="42.32019" lon="-0.75458">
        <ele>505.18</ele>
        <time>2021-08-03T14:22:09Z</time>
      </trkpt>
      <trkpt lat="42.32022" lon="-0.75456">
        <ele>504.98</ele>
        <time>2021-08-03T14:22:44Z</time>
      </trkpt>
      <trkpt lat="42.32026" lon="-0.75461">
        <ele>505.21</ele>
        <time>2021-08-03T14:22:59Z</time>
      </trkpt>
      <trkpt lat="42.32022" lon="-0.75461">
        <ele>505.86</ele>
        <time>2021-08-03T14:23:20Z</time>
      </trkpt>
      <trkpt lat="42.32022" lon="-0.75461">
        <ele>505.31</ele>
        <time>2021-08-03T14:24:04Z</time>
      </trkpt>
      <trkpt lat="42.3202" lon="-0.7546">
        <ele>506.38</ele>
        <time>2021-08-03T14:24:30Z</time>
      </trkpt>
      <trkpt lat="42.32019" lon="-0.7546">
        <ele>505.44</ele>
        <time>2021-08-03T14:25:17Z</time>
      </trkpt>
      <trkpt lat="42.3202" lon="-0.7546">
        <ele>506.66</ele>
        <time>2021-08-03T14:26:00Z</time>
      </trkpt>
      <trkpt lat="42.32019" lon="-0.7546">
        <ele>505.72</ele>
        <time>2021-08-03T14:26:47Z</time>
      </trkpt>
      <trkpt lat="42.3202" lon="-0.7546">
        <ele>506.3</ele>
        <time>2021-08-03T14:27:42Z</time>
      </trkpt>
      <trkpt lat="42.3202" lon="-0.7546">
        <ele>505.86</ele>
        <time>2021-08-03T14:28:49Z</time>
      </trkpt>
      <trkpt lat="42.32026" lon="-0.75459">
        <ele>504.42</ele>
        <time>2021-08-03T14:29:05Z</time>
      </trkpt>
      <trkpt lat="42.32027" lon="-0.75458">
        <ele>504.6</ele>
        <time>2021-08-03T14:29:49Z</time>
      </trkpt>
      <trkpt lat="42.32027" lon="-0.75458">
        <ele>504.65</ele>
        <time>2021-08-03T14:30:21Z</time>
      </trkpt>
      <trkpt lat="42.32052" lon="-0.75422">
        <ele>504.81</ele>
        <time>2021-08-03T14:30:27Z</time>
      </trkpt>
      <trkpt lat="42.32093" lon="-0.75342">
        <ele>505.49</ele>
        <time>2021-08-03T14:30:33Z</time>
      </trkpt>
      <trkpt lat="42.3215" lon="-0.75316">
        <ele>506.54</ele>
        <time>2021-08-03T14:30:39Z</time>
      </trkpt>
      <trkpt lat="42.32178" lon="-0.7532">
        <ele>507.49</ele>
        <time>2021-08-03T14:30:42Z</time>
      </trkpt>
      <trkpt lat="42.32214" lon="-0.75338">
        <ele>509.22</ele>
        <time>2021-08-03T14:30:46Z</time>
      </trkpt>
      <trkpt lat="42.32233" lon="-0.75407">
        <ele>512.27</ele>
        <time>2021-08-03T14:30:52Z</time>
      </trkpt>
      <trkpt lat="42.32264" lon="-0.75488">
        <ele>515.69</ele>
        <time>2021-08-03T14:30:59Z</time>
      </trkpt>
      <trkpt lat="42.32296" lon="-0.75545">
        <ele>518.64</ele>
        <time>2021-08-03T14:31:04Z</time>
      </trkpt>
      <trkpt lat="42.32303" lon="-0.75574">
        <ele>519.94</ele>
        <time>2021-08-03T14:31:06Z</time>
      </trkpt>
      <trkpt lat="42.32346" lon="-0.7563">
        <ele>522.88</ele>
        <time>2021-08-03T14:31:11Z</time>
      </trkpt>
      <trkpt lat="42.32404" lon="-0.75674">
        <ele>526.31</ele>
        <time>2021-08-03T14:31:17Z</time>
      </trkpt>
      <trkpt lat="42.32463" lon="-0.75669">
        <ele>528.75</ele>
        <time>2021-08-03T14:31:23Z</time>
      </trkpt>
      <trkpt lat="42.32508" lon="-0.7564">
        <ele>530.61</ele>
        <time>2021-08-03T14:31:28Z</time>
      </trkpt>
      <trkpt lat="42.32558" lon="-0.75654">
        <ele>532.24</ele>
        <time>2021-08-03T14:31:34Z</time>
      </trkpt>
      <trkpt lat="42.32579" lon="-0.75674">
        <ele>533.12</ele>
        <time>2021-08-03T14:31:37Z</time>
      </trkpt>
      <trkpt lat="42.32584" lon="-0.7571">
        <ele>534.45</ele>
        <time>2021-08-03T14:31:41Z</time>
      </trkpt>
      <trkpt lat="42.32599" lon="-0.75792">
        <ele>536.64</ele>
        <time>2021-08-03T14:31:47Z</time>
      </trkpt>
      <trkpt lat="42.3269" lon="-0.75911">
        <ele>540.51</ele>
        <time>2021-08-03T14:31:56Z</time>
      </trkpt>
      <trkpt lat="42.32699" lon="-0.75925">
        <ele>541.02</ele>
        <time>2021-08-03T14:31:57Z</time>
      </trkpt>
      <trkpt lat="42.32731" lon="-0.76021">
        <ele>543.75</ele>
        <time>2021-08-03T14:32:03Z</time>
      </trkpt>
      <trkpt lat="42.32741" lon="-0.76035">
        <ele>544.15</ele>
        <time>2021-08-03T14:32:04Z</time>
      </trkpt>
      <trkpt lat="42.32814" lon="-0.76122">
        <ele>548</ele>
        <time>2021-08-03T14:32:11Z</time>
      </trkpt>
      <trkpt lat="42.32875" lon="-0.76191">
        <ele>551.03</ele>
        <time>2021-08-03T14:32:17Z</time>
      </trkpt>
      <trkpt lat="42.32914" lon="-0.76231">
        <ele>553.02</ele>
        <time>2021-08-03T14:32:21Z</time>
      </trkpt>
      <trkpt lat="42.32939" lon="-0.76301">
        <ele>555.19</ele>
        <time>2021-08-03T14:32:26Z</time>
      </trkpt>
      <trkpt lat="42.32951" lon="-0.76354">
        <ele>556.37</ele>
        <time>2021-08-03T14:32:29Z</time>
      </trkpt>
      <trkpt lat="42.33007" lon="-0.76459">
        <ele>559.04</ele>
        <time>2021-08-03T14:32:36Z</time>
      </trkpt>
      <trkpt lat="42.33074" lon="-0.76532">
        <ele>562.54</ele>
        <time>2021-08-03T14:32:43Z</time>
      </trkpt>
      <trkpt lat="42.33109" lon="-0.76602">
        <ele>566.74</ele>
        <time>2021-08-03T14:32:49Z</time>
      </trkpt>
      <trkpt lat="42.33133" lon="-0.76653">
        <ele>568.93</ele>
        <time>2021-08-03T14:32:53Z</time>
      </trkpt>
      <trkpt lat="42.33184" lon="-0.76703">
        <ele>571.62</ele>
        <time>2021-08-03T14:32:58Z</time>
      </trkpt>
      <trkpt lat="42.33211" lon="-0.76719">
        <ele>572.81</ele>
        <time>2021-08-03T14:33:00Z</time>
      </trkpt>
      <trkpt lat="42.33256" lon="-0.7677">
        <ele>575.25</ele>
        <time>2021-08-03T14:33:04Z</time>
      </trkpt>
      <trkpt lat="42.33322" lon="-0.76827">
        <ele>580.1</ele>
        <time>2021-08-03T14:33:09Z</time>
      </trkpt>
      <trkpt lat="42.33351" lon="-0.76868">
        <ele>582.59</ele>
        <time>2021-08-03T14:33:12Z</time>
      </trkpt>
      <trkpt lat="42.33393" lon="-0.76916">
        <ele>585.06</ele>
        <time>2021-08-03T14:33:16Z</time>
      </trkpt>
      <trkpt lat="42.33436" lon="-0.77013">
        <ele>588.31</ele>
        <time>2021-08-03T14:33:22Z</time>
      </trkpt>
      <trkpt lat="42.33469" lon="-0.7706">
        <ele>589.53</ele>
        <time>2021-08-03T14:33:25Z</time>
      </trkpt>
      <trkpt lat="42.33528" lon="-0.77126">
        <ele>592.17</ele>
        <time>2021-08-03T14:33:30Z</time>
      </trkpt>
      <trkpt lat="42.33594" lon="-0.77172">
        <ele>595.1</ele>
        <time>2021-08-03T14:33:35Z</time>
      </trkpt>
      <trkpt lat="42.33629" lon="-0.77227">
        <ele>597.9</ele>
        <time>2021-08-03T14:33:39Z</time>
      </trkpt>
      <trkpt lat="42.3366" lon="-0.77264">
        <ele>599.79</ele>
        <time>2021-08-03T14:33:42Z</time>
      </trkpt>
      <trkpt lat="42.33718" lon="-0.77377">
        <ele>603.44</ele>
        <time>2021-08-03T14:33:49Z</time>
      </trkpt>
      <trkpt lat="42.33745" lon="-0.7743">
        <ele>605.21</ele>
        <time>2021-08-03T14:33:52Z</time>
      </trkpt>
      <trkpt lat="42.33823" lon="-0.77527">
        <ele>608.67</ele>
        <time>2021-08-03T14:33:59Z</time>
      </trkpt>
      <trkpt lat="42.33876" lon="-0.77566">
        <ele>611.19</ele>
        <time>2021-08-03T14:34:04Z</time>
      </trkpt>
      <trkpt lat="42.33891" lon="-0.77612">
        <ele>613.63</ele>
        <time>2021-08-03T14:34:08Z</time>
      </trkpt>
      <trkpt lat="42.33894" lon="-0.7772">
        <ele>617.74</ele>
        <time>2021-08-03T14:34:15Z</time>
      </trkpt>
      <trkpt lat="42.33913" lon="-0.7781">
        <ele>621.52</ele>
        <time>2021-08-03T14:34:20Z</time>
      </trkpt>
      <trkpt lat="42.33918" lon="-0.77827">
        <ele>622.33</ele>
        <time>2021-08-03T14:34:21Z</time>
      </trkpt>
      <trkpt lat="42.33969" lon="-0.77927">
        <ele>626.55</ele>
        <time>2021-08-03T14:34:27Z</time>
      </trkpt>
      <trkpt lat="42.34012" lon="-0.78022">
        <ele>630.28</ele>
        <time>2021-08-03T14:34:32Z</time>
      </trkpt>
      <trkpt lat="42.34061" lon="-0.78091">
        <ele>633.74</ele>
        <time>2021-08-03T14:34:36Z</time>
      </trkpt>
      <trkpt lat="42.34119" lon="-0.78118">
        <ele>636.93</ele>
        <time>2021-08-03T14:34:40Z</time>
      </trkpt>
      <trkpt lat="42.34144" lon="-0.78116">
        <ele>638.48</ele>
        <time>2021-08-03T14:34:42Z</time>
      </trkpt>
      <trkpt lat="42.34175" lon="-0.78143">
        <ele>642.71</ele>
        <time>2021-08-03T14:34:47Z</time>
      </trkpt>
      <trkpt lat="42.34156" lon="-0.78177">
        <ele>644.99</ele>
        <time>2021-08-03T14:34:51Z</time>
      </trkpt>
      <trkpt lat="42.34135" lon="-0.78233">
        <ele>647.37</ele>
        <time>2021-08-03T14:34:57Z</time>
      </trkpt>
      <trkpt lat="42.34139" lon="-0.78243">
        <ele>647.79</ele>
        <time>2021-08-03T14:34:58Z</time>
      </trkpt>
      <trkpt lat="42.34192" lon="-0.78345">
        <ele>651.75</ele>
        <time>2021-08-03T14:35:05Z</time>
      </trkpt>
      <trkpt lat="42.34241" lon="-0.78435">
        <ele>655.26</ele>
        <time>2021-08-03T14:35:10Z</time>
      </trkpt>
      <trkpt lat="42.34293" lon="-0.78492">
        <ele>658.84</ele>
        <time>2021-08-03T14:35:14Z</time>
      </trkpt>
      <trkpt lat="42.34344" lon="-0.78542">
        <ele>662.4</ele>
        <time>2021-08-03T14:35:18Z</time>
      </trkpt>
      <trkpt lat="42.3441" lon="-0.78587">
        <ele>665.91</ele>
        <time>2021-08-03T14:35:23Z</time>
      </trkpt>
      <trkpt lat="42.34491" lon="-0.78632">
        <ele>668.99</ele>
        <time>2021-08-03T14:35:29Z</time>
      </trkpt>
      <trkpt lat="42.34529" lon="-0.78654">
        <ele>670.28</ele>
        <time>2021-08-03T14:35:32Z</time>
      </trkpt>
      <trkpt lat="42.34574" lon="-0.78724">
        <ele>671.61</ele>
        <time>2021-08-03T14:35:37Z</time>
      </trkpt>
      <trkpt lat="42.34671" lon="-0.78882">
        <ele>673.1</ele>
        <time>2021-08-03T14:35:47Z</time>
      </trkpt>
      <trkpt lat="42.34704" lon="-0.78973">
        <ele>673.03</ele>
        <time>2021-08-03T14:35:52Z</time>
      </trkpt>
      <trkpt lat="42.34746" lon="-0.79026">
        <ele>672.79</ele>
        <time>2021-08-03T14:35:56Z</time>
      </trkpt>
      <trkpt lat="42.34822" lon="-0.79086">
        <ele>672.94</ele>
        <time>2021-08-03T14:36:02Z</time>
      </trkpt>
      <trkpt lat="42.34839" lon="-0.79143">
        <ele>674.24</ele>
        <time>2021-08-03T14:36:06Z</time>
      </trkpt>
      <trkpt lat="42.34858" lon="-0.79203">
        <ele>676.24</ele>
        <time>2021-08-03T14:36:10Z</time>
      </trkpt>
      <trkpt lat="42.34867" lon="-0.79297">
        <ele>679.03</ele>
        <time>2021-08-03T14:36:15Z</time>
      </trkpt>
      <trkpt lat="42.34898" lon="-0.79368">
        <ele>681.61</ele>
        <time>2021-08-03T14:36:20Z</time>
      </trkpt>
      <trkpt lat="42.34923" lon="-0.79375">
        <ele>682.7</ele>
        <time>2021-08-03T14:36:22Z</time>
      </trkpt>
      <trkpt lat="42.34959" lon="-0.79354">
        <ele>685.26</ele>
        <time>2021-08-03T14:36:25Z</time>
      </trkpt>
      <trkpt lat="42.34982" lon="-0.79332">
        <ele>686.45</ele>
        <time>2021-08-03T14:36:28Z</time>
      </trkpt>
      <trkpt lat="42.34998" lon="-0.79322">
        <ele>686.82</ele>
        <time>2021-08-03T14:36:31Z</time>
      </trkpt>
      <trkpt lat="42.35007" lon="-0.79316">
        <ele>686.65</ele>
        <time>2021-08-03T14:36:39Z</time>
      </trkpt>
      <trkpt lat="42.35017" lon="-0.79302">
        <ele>686.99</ele>
        <time>2021-08-03T14:37:41Z</time>
      </trkpt>
      <trkpt lat="42.35054" lon="-0.79278">
        <ele>687.21</ele>
        <time>2021-08-03T14:37:46Z</time>
      </trkpt>
      <trkpt lat="42.35073" lon="-0.79271">
        <ele>687.51</ele>
        <time>2021-08-03T14:37:48Z</time>
      </trkpt>
      <trkpt lat="42.3509" lon="-0.79233">
        <ele>687.86</ele>
        <time>2021-08-03T14:37:52Z</time>
      </trkpt>
      <trkpt lat="42.35111" lon="-0.79172">
        <ele>688.19</ele>
        <time>2021-08-03T14:37:59Z</time>
      </trkpt>
      <trkpt lat="42.3514" lon="-0.79189">
        <ele>688.34</ele>
        <time>2021-08-03T14:38:02Z</time>
      </trkpt>
      <trkpt lat="42.35181" lon="-0.79224">
        <ele>689.03</ele>
        <time>2021-08-03T14:38:07Z</time>
      </trkpt>
      <trkpt lat="42.35217" lon="-0.79229">
        <ele>689.8</ele>
        <time>2021-08-03T14:38:11Z</time>
      </trkpt>
      <trkpt lat="42.35237" lon="-0.79223">
        <ele>690.26</ele>
        <time>2021-08-03T14:38:13Z</time>
      </trkpt>
      <trkpt lat="42.35284" lon="-0.79221">
        <ele>691.35</ele>
        <time>2021-08-03T14:38:18Z</time>
      </trkpt>
      <trkpt lat="42.3532" lon="-0.79263">
        <ele>692.12</ele>
        <time>2021-08-03T14:38:24Z</time>
      </trkpt>
      <trkpt lat="42.35323" lon="-0.79289">
        <ele>692.43</ele>
        <time>2021-08-03T14:38:27Z</time>
      </trkpt>
      <trkpt lat="42.35305" lon="-0.79323">
        <ele>693.2</ele>
        <time>2021-08-03T14:38:33Z</time>
      </trkpt>
      <trkpt lat="42.35289" lon="-0.79332">
        <ele>693.96</ele>
        <time>2021-08-03T14:38:36Z</time>
      </trkpt>
      <trkpt lat="42.35279" lon="-0.79349">
        <ele>694.81</ele>
        <time>2021-08-03T14:38:40Z</time>
      </trkpt>
      <trkpt lat="42.35298" lon="-0.79428">
        <ele>697.45</ele>
        <time>2021-08-03T14:38:49Z</time>
      </trkpt>
      <trkpt lat="42.35325" lon="-0.7952">
        <ele>700.61</ele>
        <time>2021-08-03T14:38:56Z</time>
      </trkpt>
      <trkpt lat="42.35366" lon="-0.79557">
        <ele>703.45</ele>
        <time>2021-08-03T14:39:02Z</time>
      </trkpt>
      <trkpt lat="42.35454" lon="-0.7957">
        <ele>705.72</ele>
        <time>2021-08-03T14:39:13Z</time>
      </trkpt>
      <trkpt lat="42.35469" lon="-0.79573">
        <ele>705.36</ele>
        <time>2021-08-03T14:39:15Z</time>
      </trkpt>
      <trkpt lat="42.355" lon="-0.79602">
        <ele>703.53</ele>
        <time>2021-08-03T14:39:21Z</time>
      </trkpt>
      <trkpt lat="42.35527" lon="-0.79653">
        <ele>701.12</ele>
        <time>2021-08-03T14:39:28Z</time>
      </trkpt>
      <trkpt lat="42.35549" lon="-0.79672">
        <ele>698.34</ele>
        <time>2021-08-03T14:39:38Z</time>
      </trkpt>
      <trkpt lat="42.3557" lon="-0.79671">
        <ele>698.02</ele>
        <time>2021-08-03T14:39:42Z</time>
      </trkpt>
      <trkpt lat="42.35583" lon="-0.79667">
        <ele>697.86</ele>
        <time>2021-08-03T14:39:44Z</time>
      </trkpt>
      <trkpt lat="42.35614" lon="-0.79674">
        <ele>697.66</ele>
        <time>2021-08-03T14:39:49Z</time>
      </trkpt>
      <trkpt lat="42.35613" lon="-0.79709">
        <ele>696.95</ele>
        <time>2021-08-03T14:39:55Z</time>
      </trkpt>
      <trkpt lat="42.35592" lon="-0.79758">
        <ele>696.02</ele>
        <time>2021-08-03T14:40:00Z</time>
      </trkpt>
      <trkpt lat="42.3558" lon="-0.79819">
        <ele>694.72</ele>
        <time>2021-08-03T14:40:05Z</time>
      </trkpt>
      <trkpt lat="42.35606" lon="-0.79879">
        <ele>692.32</ele>
        <time>2021-08-03T14:40:12Z</time>
      </trkpt>
      <trkpt lat="42.35611" lon="-0.79887">
        <ele>691.97</ele>
        <time>2021-08-03T14:40:13Z</time>
      </trkpt>
      <trkpt lat="42.3562" lon="-0.79902">
        <ele>691.07</ele>
        <time>2021-08-03T14:40:15Z</time>
      </trkpt>
      <trkpt lat="42.35654" lon="-0.79928">
        <ele>687.85</ele>
        <time>2021-08-03T14:40:21Z</time>
      </trkpt>
      <trkpt lat="42.35666" lon="-0.79933">
        <ele>686.74</ele>
        <time>2021-08-03T14:40:23Z</time>
      </trkpt>
      <trkpt lat="42.35687" lon="-0.79953">
        <ele>683.1</ele>
        <time>2021-08-03T14:40:29Z</time>
      </trkpt>
      <trkpt lat="42.3569" lon="-0.79953">
        <ele>681.95</ele>
        <time>2021-08-03T14:40:31Z</time>
      </trkpt>
      <trkpt lat="42.35694" lon="-0.79953">
        <ele>678.32</ele>
        <time>2021-08-03T14:40:45Z</time>
      </trkpt>
      <trkpt lat="42.35697" lon="-0.79949">
        <ele>677.69</ele>
        <time>2021-08-03T14:40:55Z</time>
      </trkpt>
      <trkpt lat="42.35708" lon="-0.79936">
        <ele>677.59</ele>
        <time>2021-08-03T14:40:59Z</time>
      </trkpt>
      <trkpt lat="42.35732" lon="-0.79912">
        <ele>677.01</ele>
        <time>2021-08-03T14:41:03Z</time>
      </trkpt>
      <trkpt lat="42.35763" lon="-0.79894">
        <ele>676.08</ele>
        <time>2021-08-03T14:41:07Z</time>
      </trkpt>
      <trkpt lat="42.35822" lon="-0.79899">
        <ele>674.85</ele>
        <time>2021-08-03T14:41:14Z</time>
      </trkpt>
      <trkpt lat="42.35852" lon="-0.79918">
        <ele>674.8</ele>
        <time>2021-08-03T14:41:19Z</time>
      </trkpt>
      <trkpt lat="42.35887" lon="-0.7993">
        <ele>674.56</ele>
        <time>2021-08-03T14:41:24Z</time>
      </trkpt>
      <trkpt lat="42.35943" lon="-0.79961">
        <ele>671.98</ele>
        <time>2021-08-03T14:41:34Z</time>
      </trkpt>
      <trkpt lat="42.35938" lon="-0.79994">
        <ele>669.47</ele>
        <time>2021-08-03T14:41:41Z</time>
      </trkpt>
      <trkpt lat="42.35919" lon="-0.8">
        <ele>669.22</ele>
        <time>2021-08-03T14:41:44Z</time>
      </trkpt>
      <trkpt lat="42.35879" lon="-0.80004">
        <ele>671.53</ele>
        <time>2021-08-03T14:41:53Z</time>
      </trkpt>
      <trkpt lat="42.35852" lon="-0.79991">
        <ele>673.45</ele>
        <time>2021-08-03T14:41:58Z</time>
      </trkpt>
      <trkpt lat="42.35825" lon="-0.80004">
        <ele>675.79</ele>
        <time>2021-08-03T14:42:03Z</time>
      </trkpt>
      <trkpt lat="42.35787" lon="-0.80072">
        <ele>679.24</ele>
        <time>2021-08-03T14:42:10Z</time>
      </trkpt>
      <trkpt lat="42.35759" lon="-0.80099">
        <ele>681.09</ele>
        <time>2021-08-03T14:42:14Z</time>
      </trkpt>
      <trkpt lat="42.35713" lon="-0.8012">
        <ele>685.12</ele>
        <time>2021-08-03T14:42:21Z</time>
      </trkpt>
      <trkpt lat="42.35702" lon="-0.80128">
        <ele>688.53</ele>
        <time>2021-08-03T14:42:27Z</time>
      </trkpt>
      <trkpt lat="42.35696" lon="-0.80129">
        <ele>690.16</ele>
        <time>2021-08-03T14:42:33Z</time>
      </trkpt>
      <trkpt lat="42.35666" lon="-0.80123">
        <ele>691.18</ele>
        <time>2021-08-03T14:42:38Z</time>
      </trkpt>
      <trkpt lat="42.35629" lon="-0.80132">
        <ele>691.59</ele>
        <time>2021-08-03T14:42:43Z</time>
      </trkpt>
      <trkpt lat="42.35617" lon="-0.80134">
        <ele>691.66</ele>
        <time>2021-08-03T14:42:45Z</time>
      </trkpt>
      <trkpt lat="42.35605" lon="-0.80153">
        <ele>691.81</ele>
        <time>2021-08-03T14:42:49Z</time>
      </trkpt>
      <trkpt lat="42.35605" lon="-0.80186">
        <ele>691.59</ele>
        <time>2021-08-03T14:42:52Z</time>
      </trkpt>
      <trkpt lat="42.35626" lon="-0.80255">
        <ele>690.95</ele>
        <time>2021-08-03T14:43:00Z</time>
      </trkpt>
      <trkpt lat="42.3564" lon="-0.80259">
        <ele>690.74</ele>
        <time>2021-08-03T14:43:02Z</time>
      </trkpt>
      <trkpt lat="42.35672" lon="-0.80274">
        <ele>690.34</ele>
        <time>2021-08-03T14:43:06Z</time>
      </trkpt>
      <trkpt lat="42.35677" lon="-0.80303">
        <ele>689.87</ele>
        <time>2021-08-03T14:43:12Z</time>
      </trkpt>
      <trkpt lat="42.35671" lon="-0.80306">
        <ele>689.86</ele>
        <time>2021-08-03T14:43:13Z</time>
      </trkpt>
      <trkpt lat="42.35636" lon="-0.80325">
        <ele>690.67</ele>
        <time>2021-08-03T14:43:19Z</time>
      </trkpt>
      <trkpt lat="42.3559" lon="-0.80359">
        <ele>694.29</ele>
        <time>2021-08-03T14:43:26Z</time>
      </trkpt>
      <trkpt lat="42.35564" lon="-0.80371">
        <ele>696.43</ele>
        <time>2021-08-03T14:43:30Z</time>
      </trkpt>
      <trkpt lat="42.35553" lon="-0.80397">
        <ele>699.82</ele>
        <time>2021-08-03T14:43:36Z</time>
      </trkpt>
      <trkpt lat="42.35575" lon="-0.80458">
        <ele>703.18</ele>
        <time>2021-08-03T14:43:46Z</time>
      </trkpt>
      <trkpt lat="42.3559" lon="-0.80501">
        <ele>704.07</ele>
        <time>2021-08-03T14:43:50Z</time>
      </trkpt>
      <trkpt lat="42.35603" lon="-0.80522">
        <ele>704.37</ele>
        <time>2021-08-03T14:43:53Z</time>
      </trkpt>
      <trkpt lat="42.35617" lon="-0.80586">
        <ele>705.53</ele>
        <time>2021-08-03T14:43:59Z</time>
      </trkpt>
      <trkpt lat="42.35635" lon="-0.8072">
        <ele>707.25</ele>
        <time>2021-08-03T14:44:10Z</time>
      </trkpt>
      <trkpt lat="42.35637" lon="-0.80732">
        <ele>707.51</ele>
        <time>2021-08-03T14:44:11Z</time>
      </trkpt>
      <trkpt lat="42.35647" lon="-0.80762">
        <ele>708.19</ele>
        <time>2021-08-03T14:44:14Z</time>
      </trkpt>
      <trkpt lat="42.35654" lon="-0.80853">
        <ele>708.64</ele>
        <time>2021-08-03T14:44:23Z</time>
      </trkpt>
      <trkpt lat="42.35654" lon="-0.80864">
        <ele>708.63</ele>
        <time>2021-08-03T14:44:25Z</time>
      </trkpt>
      <trkpt lat="42.35646" lon="-0.80933">
        <ele>708.35</ele>
        <time>2021-08-03T14:44:32Z</time>
      </trkpt>
      <trkpt lat="42.3565" lon="-0.81027">
        <ele>707.7</ele>
        <time>2021-08-03T14:44:39Z</time>
      </trkpt>
      <trkpt lat="42.35659" lon="-0.81077">
        <ele>707.22</ele>
        <time>2021-08-03T14:44:43Z</time>
      </trkpt>
      <trkpt lat="42.35663" lon="-0.81172">
        <ele>707.43</ele>
        <time>2021-08-03T14:44:52Z</time>
      </trkpt>
      <trkpt lat="42.35662" lon="-0.81184">
        <ele>707.63</ele>
        <time>2021-08-03T14:44:59Z</time>
      </trkpt>
      <trkpt lat="42.35674" lon="-0.81229">
        <ele>707.81</ele>
        <time>2021-08-03T14:45:06Z</time>
      </trkpt>
      <trkpt lat="42.35684" lon="-0.81288">
        <ele>707.12</ele>
        <time>2021-08-03T14:45:13Z</time>
      </trkpt>
      <trkpt lat="42.35677" lon="-0.81314">
        <ele>706.79</ele>
        <time>2021-08-03T14:45:17Z</time>
      </trkpt>
      <trkpt lat="42.35666" lon="-0.81357">
        <ele>705.81</ele>
        <time>2021-08-03T14:45:23Z</time>
      </trkpt>
      <trkpt lat="42.35659" lon="-0.81395">
        <ele>703.54</ele>
        <time>2021-08-03T14:45:29Z</time>
      </trkpt>
      <trkpt lat="42.35672" lon="-0.81455">
        <ele>701.17</ele>
        <time>2021-08-03T14:45:36Z</time>
      </trkpt>
      <trkpt lat="42.35687" lon="-0.8148">
        <ele>699.98</ele>
        <time>2021-08-03T14:45:40Z</time>
      </trkpt>
      <trkpt lat="42.35696" lon="-0.81516">
        <ele>698.2</ele>
        <time>2021-08-03T14:45:46Z</time>
      </trkpt>
      <trkpt lat="42.35694" lon="-0.81548">
        <ele>697.49</ele>
        <time>2021-08-03T14:45:49Z</time>
      </trkpt>
      <trkpt lat="42.35705" lon="-0.81618">
        <ele>696.63</ele>
        <time>2021-08-03T14:45:56Z</time>
      </trkpt>
      <trkpt lat="42.35713" lon="-0.81689">
        <ele>696.06</ele>
        <time>2021-08-03T14:46:03Z</time>
      </trkpt>
      <trkpt lat="42.35711" lon="-0.81713">
        <ele>695.5</ele>
        <time>2021-08-03T14:46:07Z</time>
      </trkpt>
      <trkpt lat="42.35712" lon="-0.81747">
        <ele>694.31</ele>
        <time>2021-08-03T14:46:11Z</time>
      </trkpt>
      <trkpt lat="42.35718" lon="-0.81772">
        <ele>693.39</ele>
        <time>2021-08-03T14:46:15Z</time>
      </trkpt>
      <trkpt lat="42.35729" lon="-0.81827">
        <ele>691.36</ele>
        <time>2021-08-03T14:46:23Z</time>
      </trkpt>
      <trkpt lat="42.35716" lon="-0.81839">
        <ele>689.51</ele>
        <time>2021-08-03T14:46:29Z</time>
      </trkpt>
      <trkpt lat="42.35712" lon="-0.81833">
        <ele>689.23</ele>
        <time>2021-08-03T14:46:30Z</time>
      </trkpt>
      <trkpt lat="42.35684" lon="-0.81799">
        <ele>687.89</ele>
        <time>2021-08-03T14:46:35Z</time>
      </trkpt>
      <trkpt lat="42.35642" lon="-0.81794">
        <ele>684.23</ele>
        <time>2021-08-03T14:46:42Z</time>
      </trkpt>
      <trkpt lat="42.35637" lon="-0.81837">
        <ele>681.28</ele>
        <time>2021-08-03T14:46:47Z</time>
      </trkpt>
      <trkpt lat="42.35648" lon="-0.81864">
        <ele>678.77</ele>
        <time>2021-08-03T14:46:52Z</time>
      </trkpt>
      <trkpt lat="42.35655" lon="-0.81874">
        <ele>678.35</ele>
        <time>2021-08-03T14:46:54Z</time>
      </trkpt>
      <trkpt lat="42.35687" lon="-0.81922">
        <ele>676.59</ele>
        <time>2021-08-03T14:47:02Z</time>
      </trkpt>
      <trkpt lat="42.35697" lon="-0.81947">
        <ele>676.14</ele>
        <time>2021-08-03T14:47:04Z</time>
      </trkpt>
      <trkpt lat="42.35706" lon="-0.81972">
        <ele>675.68</ele>
        <time>2021-08-03T14:47:06Z</time>
      </trkpt>
      <trkpt lat="42.35738" lon="-0.82013">
        <ele>674.19</ele>
        <time>2021-08-03T14:47:11Z</time>
      </trkpt>
      <trkpt lat="42.3576" lon="-0.82032">
        <ele>673.24</ele>
        <time>2021-08-03T14:47:14Z</time>
      </trkpt>
      <trkpt lat="42.35772" lon="-0.82044">
        <ele>671.64</ele>
        <time>2021-08-03T14:47:18Z</time>
      </trkpt>
      <trkpt lat="42.35772" lon="-0.82065">
        <ele>668.38</ele>
        <time>2021-08-03T14:47:30Z</time>
      </trkpt>
      <trkpt lat="42.35764" lon="-0.82073">
        <ele>668.04</ele>
        <time>2021-08-03T14:47:32Z</time>
      </trkpt>
      <trkpt lat="42.35761" lon="-0.82114">
        <ele>666.72</ele>
        <time>2021-08-03T14:47:40Z</time>
      </trkpt>
      <trkpt lat="42.35776" lon="-0.82122">
        <ele>666.09</ele>
        <time>2021-08-03T14:47:44Z</time>
      </trkpt>
      <trkpt lat="42.35789" lon="-0.82123">
        <ele>665.59</ele>
        <time>2021-08-03T14:47:46Z</time>
      </trkpt>
      <trkpt lat="42.35825" lon="-0.82147">
        <ele>661.88</ele>
        <time>2021-08-03T14:47:54Z</time>
      </trkpt>
      <trkpt lat="42.35847" lon="-0.82179">
        <ele>658.74</ele>
        <time>2021-08-03T14:48:00Z</time>
      </trkpt>
      <trkpt lat="42.3585" lon="-0.82198">
        <ele>656.09</ele>
        <time>2021-08-03T14:48:07Z</time>
      </trkpt>
      <trkpt lat="42.35849" lon="-0.82199">
        <ele>655.89</ele>
        <time>2021-08-03T14:48:08Z</time>
      </trkpt>
      <trkpt lat="42.35833" lon="-0.82194">
        <ele>655.47</ele>
        <time>2021-08-03T14:48:14Z</time>
      </trkpt>
      <trkpt lat="42.35823" lon="-0.82185">
        <ele>655.46</ele>
        <time>2021-08-03T14:48:16Z</time>
      </trkpt>
      <trkpt lat="42.35764" lon="-0.82198">
        <ele>658.36</ele>
        <time>2021-08-03T14:48:24Z</time>
      </trkpt>
      <trkpt lat="42.35757" lon="-0.82211">
        <ele>659.8</ele>
        <time>2021-08-03T14:48:26Z</time>
      </trkpt>
      <trkpt lat="42.35746" lon="-0.82232">
        <ele>664.08</ele>
        <time>2021-08-03T14:48:31Z</time>
      </trkpt>
      <trkpt lat="42.35728" lon="-0.8225">
        <ele>667.2</ele>
        <time>2021-08-03T14:48:35Z</time>
      </trkpt>
      <trkpt lat="42.35722" lon="-0.82256">
        <ele>667.89</ele>
        <time>2021-08-03T14:48:36Z</time>
      </trkpt>
      <trkpt lat="42.35716" lon="-0.82299">
        <ele>671.91</ele>
        <time>2021-08-03T14:48:41Z</time>
      </trkpt>
      <trkpt lat="42.35718" lon="-0.82308">
        <ele>672.81</ele>
        <time>2021-08-03T14:48:42Z</time>
      </trkpt>
      <trkpt lat="42.35727" lon="-0.82345">
        <ele>676.27</ele>
        <time>2021-08-03T14:48:46Z</time>
      </trkpt>
      <trkpt lat="42.35726" lon="-0.82385">
        <ele>680.47</ele>
        <time>2021-08-03T14:48:50Z</time>
      </trkpt>
      <trkpt lat="42.35726" lon="-0.8243">
        <ele>684.01</ele>
        <time>2021-08-03T14:48:54Z</time>
      </trkpt>
      <trkpt lat="42.35727" lon="-0.82477">
        <ele>687.9</ele>
        <time>2021-08-03T14:48:58Z</time>
      </trkpt>
      <trkpt lat="42.35732" lon="-0.82525">
        <ele>691.89</ele>
        <time>2021-08-03T14:49:02Z</time>
      </trkpt>
      <trkpt lat="42.35736" lon="-0.82547">
        <ele>693.79</ele>
        <time>2021-08-03T14:49:04Z</time>
      </trkpt>
      <trkpt lat="42.35749" lon="-0.82587">
        <ele>698.25</ele>
        <time>2021-08-03T14:49:09Z</time>
      </trkpt>
      <trkpt lat="42.35772" lon="-0.82629">
        <ele>701.45</ele>
        <time>2021-08-03T14:49:14Z</time>
      </trkpt>
      <trkpt lat="42.35793" lon="-0.82681">
        <ele>705.09</ele>
        <time>2021-08-03T14:49:19Z</time>
      </trkpt>
      <trkpt lat="42.35781" lon="-0.827">
        <ele>709.44</ele>
        <time>2021-08-03T14:49:25Z</time>
      </trkpt>
      <trkpt lat="42.35777" lon="-0.82698">
        <ele>710.1</ele>
        <time>2021-08-03T14:49:26Z</time>
      </trkpt>
      <trkpt lat="42.35759" lon="-0.82683">
        <ele>712.37</ele>
        <time>2021-08-03T14:49:31Z</time>
      </trkpt>
      <trkpt lat="42.35702" lon="-0.82685">
        <ele>713.49</ele>
        <time>2021-08-03T14:49:40Z</time>
      </trkpt>
      <trkpt lat="42.35696" lon="-0.82698">
        <ele>713.1</ele>
        <time>2021-08-03T14:49:42Z</time>
      </trkpt>
      <trkpt lat="42.35668" lon="-0.82722">
        <ele>710.64</ele>
        <time>2021-08-03T14:49:49Z</time>
      </trkpt>
      <trkpt lat="42.35643" lon="-0.82744">
        <ele>707.45</ele>
        <time>2021-08-03T14:49:55Z</time>
      </trkpt>
      <trkpt lat="42.35609" lon="-0.82772">
        <ele>703.3</ele>
        <time>2021-08-03T14:50:03Z</time>
      </trkpt>
      <trkpt lat="42.356" lon="-0.82779">
        <ele>702.23</ele>
        <time>2021-08-03T14:50:05Z</time>
      </trkpt>
      <trkpt lat="42.35583" lon="-0.82789">
        <ele>699.69</ele>
        <time>2021-08-03T14:50:09Z</time>
      </trkpt>
      <trkpt lat="42.35569" lon="-0.82803">
        <ele>698.04</ele>
        <time>2021-08-03T14:50:12Z</time>
      </trkpt>
      <trkpt lat="42.35541" lon="-0.82817">
        <ele>694.07</ele>
        <time>2021-08-03T14:50:18Z</time>
      </trkpt>
      <trkpt lat="42.35522" lon="-0.82829">
        <ele>691</ele>
        <time>2021-08-03T14:50:23Z</time>
      </trkpt>
      <trkpt lat="42.35506" lon="-0.82854">
        <ele>687.94</ele>
        <time>2021-08-03T14:50:28Z</time>
      </trkpt>
      <trkpt lat="42.35501" lon="-0.8286">
        <ele>687.3</ele>
        <time>2021-08-03T14:50:29Z</time>
      </trkpt>
      <trkpt lat="42.35477" lon="-0.82868">
        <ele>683.15</ele>
        <time>2021-08-03T14:50:35Z</time>
      </trkpt>
      <trkpt lat="42.35444" lon="-0.82854">
        <ele>680.15</ele>
        <time>2021-08-03T14:50:41Z</time>
      </trkpt>
      <trkpt lat="42.3545" lon="-0.82882">
        <ele>677.73</ele>
        <time>2021-08-03T14:50:46Z</time>
      </trkpt>
      <trkpt lat="42.35466" lon="-0.82905">
        <ele>676.45</ele>
        <time>2021-08-03T14:50:49Z</time>
      </trkpt>
      <trkpt lat="42.35488" lon="-0.82949">
        <ele>673.77</ele>
        <time>2021-08-03T14:50:54Z</time>
      </trkpt>
      <trkpt lat="42.355" lon="-0.82966">
        <ele>672.33</ele>
        <time>2021-08-03T14:50:57Z</time>
      </trkpt>
      <trkpt lat="42.35485" lon="-0.82992">
        <ele>668.51</ele>
        <time>2021-08-03T14:51:03Z</time>
      </trkpt>
      <trkpt lat="42.35464" lon="-0.82995">
        <ele>667.41</ele>
        <time>2021-08-03T14:51:06Z</time>
      </trkpt>
      <trkpt lat="42.3545" lon="-0.82995">
        <ele>666.65</ele>
        <time>2021-08-03T14:51:08Z</time>
      </trkpt>
      <trkpt lat="42.35383" lon="-0.82978">
        <ele>663.06</ele>
        <time>2021-08-03T14:51:17Z</time>
      </trkpt>
      <trkpt lat="42.35362" lon="-0.82975">
        <ele>661.39</ele>
        <time>2021-08-03T14:51:20Z</time>
      </trkpt>
      <trkpt lat="42.35282" lon="-0.82995">
        <ele>659.52</ele>
        <time>2021-08-03T14:51:30Z</time>
      </trkpt>
      <trkpt lat="42.35264" lon="-0.82996">
        <ele>659.15</ele>
        <time>2021-08-03T14:51:32Z</time>
      </trkpt>
      <trkpt lat="42.35219" lon="-0.82982">
        <ele>657.57</ele>
        <time>2021-08-03T14:51:38Z</time>
      </trkpt>
      <trkpt lat="42.35187" lon="-0.82959">
        <ele>653.87</ele>
        <time>2021-08-03T14:51:46Z</time>
      </trkpt>
      <trkpt lat="42.35166" lon="-0.82938">
        <ele>652.36</ele>
        <time>2021-08-03T14:51:50Z</time>
      </trkpt>
      <trkpt lat="42.3511" lon="-0.8293">
        <ele>648.73</ele>
        <time>2021-08-03T14:51:58Z</time>
      </trkpt>
      <trkpt lat="42.35082" lon="-0.82956">
        <ele>646.5</ele>
        <time>2021-08-03T14:52:04Z</time>
      </trkpt>
      <trkpt lat="42.3507" lon="-0.82965">
        <ele>642.79</ele>
        <time>2021-08-03T14:52:12Z</time>
      </trkpt>
      <trkpt lat="42.35049" lon="-0.82969">
        <ele>639.71</ele>
        <time>2021-08-03T14:52:28Z</time>
      </trkpt>
      <trkpt lat="42.35016" lon="-0.82978">
        <ele>637.09</ele>
        <time>2021-08-03T14:52:40Z</time>
      </trkpt>
      <trkpt lat="42.34997" lon="-0.82966">
        <ele>636.56</ele>
        <time>2021-08-03T14:52:45Z</time>
      </trkpt>
      <trkpt lat="42.34987" lon="-0.82958">
        <ele>636.61</ele>
        <time>2021-08-03T14:52:47Z</time>
      </trkpt>
      <trkpt lat="42.34937" lon="-0.82959">
        <ele>638.28</ele>
        <time>2021-08-03T14:52:54Z</time>
      </trkpt>
      <trkpt lat="42.34924" lon="-0.82982">
        <ele>640.37</ele>
        <time>2021-08-03T14:53:00Z</time>
      </trkpt>
      <trkpt lat="42.34932" lon="-0.82989">
        <ele>641.14</ele>
        <time>2021-08-03T14:53:03Z</time>
      </trkpt>
      <trkpt lat="42.34957" lon="-0.83007">
        <ele>644.44</ele>
        <time>2021-08-03T14:53:12Z</time>
      </trkpt>
      <trkpt lat="42.34961" lon="-0.83015">
        <ele>645.12</ele>
        <time>2021-08-03T14:53:14Z</time>
      </trkpt>
      <trkpt lat="42.34947" lon="-0.83032">
        <ele>646.64</ele>
        <time>2021-08-03T14:53:19Z</time>
      </trkpt>
      <trkpt lat="42.34913" lon="-0.83033">
        <ele>648.95</ele>
        <time>2021-08-03T14:53:24Z</time>
      </trkpt>
      <trkpt lat="42.34881" lon="-0.83018">
        <ele>652.64</ele>
        <time>2021-08-03T14:53:31Z</time>
      </trkpt>
      <trkpt lat="42.3485" lon="-0.8299">
        <ele>655.95</ele>
        <time>2021-08-03T14:53:37Z</time>
      </trkpt>
      <trkpt lat="42.34832" lon="-0.8297">
        <ele>657.91</ele>
        <time>2021-08-03T14:53:41Z</time>
      </trkpt>
      <trkpt lat="42.34804" lon="-0.82949">
        <ele>659.29</ele>
        <time>2021-08-03T14:53:45Z</time>
      </trkpt>
      <trkpt lat="42.34776" lon="-0.82923">
        <ele>660.41</ele>
        <time>2021-08-03T14:53:50Z</time>
      </trkpt>
      <trkpt lat="42.34761" lon="-0.82901">
        <ele>661.82</ele>
        <time>2021-08-03T14:53:53Z</time>
      </trkpt>
      <trkpt lat="42.34757" lon="-0.82867">
        <ele>664.06</ele>
        <time>2021-08-03T14:53:57Z</time>
      </trkpt>
      <trkpt lat="42.34752" lon="-0.82807">
        <ele>668.09</ele>
        <time>2021-08-03T14:54:03Z</time>
      </trkpt>
      <trkpt lat="42.34751" lon="-0.82794">
        <ele>668.74</ele>
        <time>2021-08-03T14:54:04Z</time>
      </trkpt>
      <trkpt lat="42.34728" lon="-0.82742">
        <ele>671.86</ele>
        <time>2021-08-03T14:54:11Z</time>
      </trkpt>
      <trkpt lat="42.34722" lon="-0.82757">
        <ele>673.55</ele>
        <time>2021-08-03T14:54:15Z</time>
      </trkpt>
      <trkpt lat="42.3472" lon="-0.82783">
        <ele>677.32</ele>
        <time>2021-08-03T14:54:24Z</time>
      </trkpt>
      <trkpt lat="42.34712" lon="-0.82846">
        <ele>679.7</ele>
        <time>2021-08-03T14:54:32Z</time>
      </trkpt>
      <trkpt lat="42.3471" lon="-0.82857">
        <ele>680.05</ele>
        <time>2021-08-03T14:54:33Z</time>
      </trkpt>
      <trkpt lat="42.3468" lon="-0.82902">
        <ele>683.1</ele>
        <time>2021-08-03T14:54:40Z</time>
      </trkpt>
      <trkpt lat="42.34655" lon="-0.82921">
        <ele>684.92</ele>
        <time>2021-08-03T14:54:44Z</time>
      </trkpt>
      <trkpt lat="42.34665" lon="-0.82941">
        <ele>685.69</ele>
        <time>2021-08-03T14:54:49Z</time>
      </trkpt>
      <trkpt lat="42.34681" lon="-0.82946">
        <ele>686.11</ele>
        <time>2021-08-03T14:54:51Z</time>
      </trkpt>
      <trkpt lat="42.34713" lon="-0.82983">
        <ele>688.71</ele>
        <time>2021-08-03T14:54:58Z</time>
      </trkpt>
      <trkpt lat="42.34703" lon="-0.82997">
        <ele>689.79</ele>
        <time>2021-08-03T14:55:00Z</time>
      </trkpt>
      <trkpt lat="42.34693" lon="-0.83013">
        <ele>691.73</ele>
        <time>2021-08-03T14:55:04Z</time>
      </trkpt>
      <trkpt lat="42.34699" lon="-0.83036">
        <ele>693.67</ele>
        <time>2021-08-03T14:55:10Z</time>
      </trkpt>
      <trkpt lat="42.34697" lon="-0.83073">
        <ele>697.07</ele>
        <time>2021-08-03T14:55:18Z</time>
      </trkpt>
      <trkpt lat="42.34679" lon="-0.83109">
        <ele>700.3</ele>
        <time>2021-08-03T14:55:26Z</time>
      </trkpt>
      <trkpt lat="42.34661" lon="-0.83127">
        <ele>702.44</ele>
        <time>2021-08-03T14:55:32Z</time>
      </trkpt>
      <trkpt lat="42.34631" lon="-0.83099">
        <ele>704.7</ele>
        <time>2021-08-03T14:55:38Z</time>
      </trkpt>
      <trkpt lat="42.34587" lon="-0.83058">
        <ele>707.44</ele>
        <time>2021-08-03T14:55:44Z</time>
      </trkpt>
      <trkpt lat="42.3456" lon="-0.83046">
        <ele>709.28</ele>
        <time>2021-08-03T14:55:47Z</time>
      </trkpt>
      <trkpt lat="42.34543" lon="-0.8303">
        <ele>711.05</ele>
        <time>2021-08-03T14:55:50Z</time>
      </trkpt>
      <trkpt lat="42.34504" lon="-0.83025">
        <ele>713.89</ele>
        <time>2021-08-03T14:55:55Z</time>
      </trkpt>
      <trkpt lat="42.34478" lon="-0.83001">
        <ele>717.79</ele>
        <time>2021-08-03T14:56:02Z</time>
      </trkpt>
      <trkpt lat="42.3448" lon="-0.82992">
        <ele>718.21</ele>
        <time>2021-08-03T14:56:03Z</time>
      </trkpt>
      <trkpt lat="42.34494" lon="-0.82946">
        <ele>719.58</ele>
        <time>2021-08-03T14:56:07Z</time>
      </trkpt>
      <trkpt lat="42.34535" lon="-0.8292">
        <ele>718.98</ele>
        <time>2021-08-03T14:56:12Z</time>
      </trkpt>
      <trkpt lat="42.3455" lon="-0.82913">
        <ele>717.39</ele>
        <time>2021-08-03T14:56:14Z</time>
      </trkpt>
      <trkpt lat="42.34554" lon="-0.82875">
        <ele>714.71</ele>
        <time>2021-08-03T14:56:20Z</time>
      </trkpt>
      <trkpt lat="42.34515" lon="-0.82867">
        <ele>714.71</ele>
        <time>2021-08-03T14:56:25Z</time>
      </trkpt>
      <trkpt lat="42.34482" lon="-0.8286">
        <ele>716.18</ele>
        <time>2021-08-03T14:56:30Z</time>
      </trkpt>
      <trkpt lat="42.34456" lon="-0.82827">
        <ele>718.19</ele>
        <time>2021-08-03T14:56:38Z</time>
      </trkpt>
      <trkpt lat="42.34435" lon="-0.82793">
        <ele>719.83</ele>
        <time>2021-08-03T14:56:46Z</time>
      </trkpt>
      <trkpt lat="42.34432" lon="-0.8276">
        <ele>721.17</ele>
        <time>2021-08-03T14:56:51Z</time>
      </trkpt>
      <trkpt lat="42.34405" lon="-0.82727">
        <ele>724.34</ele>
        <time>2021-08-03T14:56:59Z</time>
      </trkpt>
      <trkpt lat="42.34348" lon="-0.82714">
        <ele>727.91</ele>
        <time>2021-08-03T14:57:13Z</time>
      </trkpt>
      <trkpt lat="42.34338" lon="-0.82711">
        <ele>728.74</ele>
        <time>2021-08-03T14:57:15Z</time>
      </trkpt>
      <trkpt lat="42.34306" lon="-0.82683">
        <ele>732.24</ele>
        <time>2021-08-03T14:57:23Z</time>
      </trkpt>
      <trkpt lat="42.34282" lon="-0.82663">
        <ele>735.47</ele>
        <time>2021-08-03T14:57:30Z</time>
      </trkpt>
      <trkpt lat="42.34263" lon="-0.82645">
        <ele>737.59</ele>
        <time>2021-08-03T14:57:35Z</time>
      </trkpt>
      <trkpt lat="42.34246" lon="-0.82633">
        <ele>739.31</ele>
        <time>2021-08-03T14:57:39Z</time>
      </trkpt>
      <trkpt lat="42.34207" lon="-0.82624">
        <ele>743.34</ele>
        <time>2021-08-03T14:57:47Z</time>
      </trkpt>
      <trkpt lat="42.34202" lon="-0.82623">
        <ele>743.81</ele>
        <time>2021-08-03T14:57:48Z</time>
      </trkpt>
      <trkpt lat="42.3418" lon="-0.82601">
        <ele>746.05</ele>
        <time>2021-08-03T14:57:54Z</time>
      </trkpt>
      <trkpt lat="42.34174" lon="-0.82587">
        <ele>747.5</ele>
        <time>2021-08-03T14:57:56Z</time>
      </trkpt>
      <trkpt lat="42.34154" lon="-0.82571">
        <ele>749.55</ele>
        <time>2021-08-03T14:58:00Z</time>
      </trkpt>
      <trkpt lat="42.34137" lon="-0.82567">
        <ele>751.13</ele>
        <time>2021-08-03T14:58:03Z</time>
      </trkpt>
      <trkpt lat="42.34096" lon="-0.82567">
        <ele>753.61</ele>
        <time>2021-08-03T14:58:10Z</time>
      </trkpt>
      <trkpt lat="42.3408" lon="-0.82579">
        <ele>754.35</ele>
        <time>2021-08-03T14:58:15Z</time>
      </trkpt>
      <trkpt lat="42.34071" lon="-0.82625">
        <ele>755.43</ele>
        <time>2021-08-03T14:58:26Z</time>
      </trkpt>
      <trkpt lat="42.3407" lon="-0.82631">
        <ele>755.59</ele>
        <time>2021-08-03T14:58:27Z</time>
      </trkpt>
      <trkpt lat="42.34069" lon="-0.82662">
        <ele>756.17</ele>
        <time>2021-08-03T14:58:31Z</time>
      </trkpt>
      <trkpt lat="42.34051" lon="-0.82707">
        <ele>757.94</ele>
        <time>2021-08-03T14:58:37Z</time>
      </trkpt>
      <trkpt lat="42.34032" lon="-0.8273">
        <ele>759.49</ele>
        <time>2021-08-03T14:58:41Z</time>
      </trkpt>
      <trkpt lat="42.3401" lon="-0.82784">
        <ele>763.19</ele>
        <time>2021-08-03T14:58:48Z</time>
      </trkpt>
      <trkpt lat="42.34004" lon="-0.82801">
        <ele>764.21</ele>
        <time>2021-08-03T14:58:50Z</time>
      </trkpt>
      <trkpt lat="42.33978" lon="-0.82834">
        <ele>768.17</ele>
        <time>2021-08-03T14:58:57Z</time>
      </trkpt>
      <trkpt lat="42.33974" lon="-0.82839">
        <ele>768.71</ele>
        <time>2021-08-03T14:58:58Z</time>
      </trkpt>
      <trkpt lat="42.33943" lon="-0.82885">
        <ele>772.36</ele>
        <time>2021-08-03T14:59:05Z</time>
      </trkpt>
      <trkpt lat="42.33939" lon="-0.82891">
        <ele>772.87</ele>
        <time>2021-08-03T14:59:06Z</time>
      </trkpt>
      <trkpt lat="42.33918" lon="-0.82977">
        <ele>776.46</ele>
        <time>2021-08-03T14:59:15Z</time>
      </trkpt>
      <trkpt lat="42.33926" lon="-0.83003">
        <ele>777.38</ele>
        <time>2021-08-03T14:59:18Z</time>
      </trkpt>
      <trkpt lat="42.33932" lon="-0.8307">
        <ele>780.17</ele>
        <time>2021-08-03T14:59:25Z</time>
      </trkpt>
      <trkpt lat="42.33916" lon="-0.83128">
        <ele>783.75</ele>
        <time>2021-08-03T14:59:31Z</time>
      </trkpt>
      <trkpt lat="42.33909" lon="-0.83146">
        <ele>785.2</ele>
        <time>2021-08-03T14:59:33Z</time>
      </trkpt>
      <trkpt lat="42.33893" lon="-0.83174">
        <ele>789.12</ele>
        <time>2021-08-03T14:59:37Z</time>
      </trkpt>
      <trkpt lat="42.33889" lon="-0.83181">
        <ele>789.91</ele>
        <time>2021-08-03T14:59:38Z</time>
      </trkpt>
      <trkpt lat="42.33867" lon="-0.83243">
        <ele>794.27</ele>
        <time>2021-08-03T14:59:44Z</time>
      </trkpt>
      <trkpt lat="42.3385" lon="-0.83286">
        <ele>797.69</ele>
        <time>2021-08-03T14:59:48Z</time>
      </trkpt>
      <trkpt lat="42.33836" lon="-0.83333">
        <ele>800.87</ele>
        <time>2021-08-03T14:59:52Z</time>
      </trkpt>
      <trkpt lat="42.33834" lon="-0.83345">
        <ele>801.36</ele>
        <time>2021-08-03T14:59:53Z</time>
      </trkpt>
      <trkpt lat="42.33833" lon="-0.83403">
        <ele>802.94</ele>
        <time>2021-08-03T14:59:58Z</time>
      </trkpt>
      <trkpt lat="42.33809" lon="-0.83424">
        <ele>804.07</ele>
        <time>2021-08-03T15:00:05Z</time>
      </trkpt>
      <trkpt lat="42.33776" lon="-0.83425">
        <ele>805.53</ele>
        <time>2021-08-03T15:00:10Z</time>
      </trkpt>
      <trkpt lat="42.33734" lon="-0.83437">
        <ele>809.13</ele>
        <time>2021-08-03T15:00:17Z</time>
      </trkpt>
      <trkpt lat="42.33715" lon="-0.83415">
        <ele>811.06</ele>
        <time>2021-08-03T15:00:21Z</time>
      </trkpt>
      <trkpt lat="42.33707" lon="-0.83402">
        <ele>811.81</ele>
        <time>2021-08-03T15:00:23Z</time>
      </trkpt>
      <trkpt lat="42.33668" lon="-0.83343">
        <ele>814.47</ele>
        <time>2021-08-03T15:00:30Z</time>
      </trkpt>
      <trkpt lat="42.3362" lon="-0.8327">
        <ele>818.03</ele>
        <time>2021-08-03T15:00:38Z</time>
      </trkpt>
      <trkpt lat="42.33565" lon="-0.83169">
        <ele>820.73</ele>
        <time>2021-08-03T15:00:47Z</time>
      </trkpt>
      <trkpt lat="42.33518" lon="-0.83072">
        <ele>821.53</ele>
        <time>2021-08-03T15:00:55Z</time>
      </trkpt>
      <trkpt lat="42.3346" lon="-0.82993">
        <ele>824.73</ele>
        <time>2021-08-03T15:01:04Z</time>
      </trkpt>
      <trkpt lat="42.3344" lon="-0.82938">
        <ele>827.27</ele>
        <time>2021-08-03T15:01:10Z</time>
      </trkpt>
      <trkpt lat="42.33435" lon="-0.82919">
        <ele>828.68</ele>
        <time>2021-08-03T15:01:13Z</time>
      </trkpt>
      <trkpt lat="42.33428" lon="-0.82853">
        <ele>832.93</ele>
        <time>2021-08-03T15:01:20Z</time>
      </trkpt>
      <trkpt lat="42.33428" lon="-0.82844">
        <ele>833.46</ele>
        <time>2021-08-03T15:01:21Z</time>
      </trkpt>
      <trkpt lat="42.33405" lon="-0.82765">
        <ele>837.52</ele>
        <time>2021-08-03T15:01:29Z</time>
      </trkpt>
      <trkpt lat="42.33385" lon="-0.82718">
        <ele>841.27</ele>
        <time>2021-08-03T15:01:34Z</time>
      </trkpt>
      <trkpt lat="42.33381" lon="-0.82711">
        <ele>842.05</ele>
        <time>2021-08-03T15:01:35Z</time>
      </trkpt>
      <trkpt lat="42.33368" lon="-0.82659">
        <ele>845.97</ele>
        <time>2021-08-03T15:01:40Z</time>
      </trkpt>
      <trkpt lat="42.3335" lon="-0.82592">
        <ele>849.36</ele>
        <time>2021-08-03T15:01:46Z</time>
      </trkpt>
      <trkpt lat="42.33328" lon="-0.82487">
        <ele>851.98</ele>
        <time>2021-08-03T15:01:55Z</time>
      </trkpt>
      <trkpt lat="42.33301" lon="-0.82479">
        <ele>852.88</ele>
        <time>2021-08-03T15:02:01Z</time>
      </trkpt>
      <trkpt lat="42.33299" lon="-0.82511">
        <ele>853.9</ele>
        <time>2021-08-03T15:02:04Z</time>
      </trkpt>
      <trkpt lat="42.33297" lon="-0.82549">
        <ele>855.22</ele>
        <time>2021-08-03T15:02:07Z</time>
      </trkpt>
      <trkpt lat="42.33305" lon="-0.82647">
        <ele>859.07</ele>
        <time>2021-08-03T15:02:14Z</time>
      </trkpt>
      <trkpt lat="42.33316" lon="-0.82724">
        <ele>862.32</ele>
        <time>2021-08-03T15:02:19Z</time>
      </trkpt>
      <trkpt lat="42.33321" lon="-0.82807">
        <ele>865.73</ele>
        <time>2021-08-03T15:02:24Z</time>
      </trkpt>
      <trkpt lat="42.33318" lon="-0.82855">
        <ele>867.97</ele>
        <time>2021-08-03T15:02:28Z</time>
      </trkpt>
      <trkpt lat="42.33299" lon="-0.82915">
        <ele>871.47</ele>
        <time>2021-08-03T15:02:34Z</time>
      </trkpt>
      <trkpt lat="42.3329" lon="-0.82964">
        <ele>875.91</ele>
        <time>2021-08-03T15:02:39Z</time>
      </trkpt>
      <trkpt lat="42.3329" lon="-0.8297">
        <ele>876.9</ele>
        <time>2021-08-03T15:02:40Z</time>
      </trkpt>
      <trkpt lat="42.3329" lon="-0.82981">
        <ele>878.86</ele>
        <time>2021-08-03T15:02:42Z</time>
      </trkpt>
      <trkpt lat="42.3328" lon="-0.83006">
        <ele>883.01</ele>
        <time>2021-08-03T15:02:47Z</time>
      </trkpt>
      <trkpt lat="42.33271" lon="-0.82974">
        <ele>886.9</ele>
        <time>2021-08-03T15:02:52Z</time>
      </trkpt>
      <trkpt lat="42.33245" lon="-0.82969">
        <ele>889.73</ele>
        <time>2021-08-03T15:02:57Z</time>
      </trkpt>
      <trkpt lat="42.33243" lon="-0.8301">
        <ele>892.49</ele>
        <time>2021-08-03T15:03:01Z</time>
      </trkpt>
      <trkpt lat="42.33261" lon="-0.83071">
        <ele>896.39</ele>
        <time>2021-08-03T15:03:06Z</time>
      </trkpt>
      <trkpt lat="42.33272" lon="-0.83099">
        <ele>898.17</ele>
        <time>2021-08-03T15:03:08Z</time>
      </trkpt>
      <trkpt lat="42.33317" lon="-0.83183">
        <ele>902.53</ele>
        <time>2021-08-03T15:03:14Z</time>
      </trkpt>
      <trkpt lat="42.33376" lon="-0.83298">
        <ele>905.66</ele>
        <time>2021-08-03T15:03:22Z</time>
      </trkpt>
      <trkpt lat="42.334" lon="-0.83371">
        <ele>908.53</ele>
        <time>2021-08-03T15:03:27Z</time>
      </trkpt>
      <trkpt lat="42.33408" lon="-0.83417">
        <ele>911.99</ele>
        <time>2021-08-03T15:03:31Z</time>
      </trkpt>
      <trkpt lat="42.33426" lon="-0.83452">
        <ele>916.35</ele>
        <time>2021-08-03T15:03:36Z</time>
      </trkpt>
      <trkpt lat="42.3345" lon="-0.83495">
        <ele>919.96</ele>
        <time>2021-08-03T15:03:41Z</time>
      </trkpt>
      <trkpt lat="42.33512" lon="-0.83588">
        <ele>924.04</ele>
        <time>2021-08-03T15:03:48Z</time>
      </trkpt>
      <trkpt lat="42.33521" lon="-0.83602">
        <ele>924.38</ele>
        <time>2021-08-03T15:03:49Z</time>
      </trkpt>
      <trkpt lat="42.33547" lon="-0.83641">
        <ele>925.17</ele>
        <time>2021-08-03T15:03:53Z</time>
      </trkpt>
      <trkpt lat="42.33613" lon="-0.8373">
        <ele>927.9</ele>
        <time>2021-08-03T15:04:02Z</time>
      </trkpt>
      <trkpt lat="42.33664" lon="-0.83809">
        <ele>930.38</ele>
        <time>2021-08-03T15:04:09Z</time>
      </trkpt>
      <trkpt lat="42.33732" lon="-0.83927">
        <ele>933.39</ele>
        <time>2021-08-03T15:04:18Z</time>
      </trkpt>
      <trkpt lat="42.33742" lon="-0.83939">
        <ele>933.47</ele>
        <time>2021-08-03T15:04:19Z</time>
      </trkpt>
      <trkpt lat="42.33766" lon="-0.83985">
        <ele>933.4</ele>
        <time>2021-08-03T15:04:23Z</time>
      </trkpt>
      <trkpt lat="42.33771" lon="-0.84002">
        <ele>933.24</ele>
        <time>2021-08-03T15:04:25Z</time>
      </trkpt>
      <trkpt lat="42.33789" lon="-0.84044">
        <ele>932.83</ele>
        <time>2021-08-03T15:04:29Z</time>
      </trkpt>
      <trkpt lat="42.33793" lon="-0.84096">
        <ele>932.83</ele>
        <time>2021-08-03T15:04:33Z</time>
      </trkpt>
      <trkpt lat="42.33791" lon="-0.8412">
        <ele>932.94</ele>
        <time>2021-08-03T15:04:35Z</time>
      </trkpt>
      <trkpt lat="42.33753" lon="-0.84161">
        <ele>933.46</ele>
        <time>2021-08-03T15:04:41Z</time>
      </trkpt>
      <trkpt lat="42.33743" lon="-0.84162">
        <ele>933.86</ele>
        <time>2021-08-03T15:04:42Z</time>
      </trkpt>
      <trkpt lat="42.33702" lon="-0.84168">
        <ele>935.23</ele>
        <time>2021-08-03T15:04:46Z</time>
      </trkpt>
      <trkpt lat="42.33667" lon="-0.84164">
        <ele>936.57</ele>
        <time>2021-08-03T15:04:49Z</time>
      </trkpt>
      <trkpt lat="42.33597" lon="-0.84187">
        <ele>939.83</ele>
        <time>2021-08-03T15:04:56Z</time>
      </trkpt>
      <trkpt lat="42.33582" lon="-0.84234">
        <ele>941.69</ele>
        <time>2021-08-03T15:05:00Z</time>
      </trkpt>
      <trkpt lat="42.33578" lon="-0.8426">
        <ele>942.76</ele>
        <time>2021-08-03T15:05:02Z</time>
      </trkpt>
      <trkpt lat="42.33577" lon="-0.84295">
        <ele>944.04</ele>
        <time>2021-08-03T15:05:05Z</time>
      </trkpt>
      <trkpt lat="42.3357" lon="-0.84329">
        <ele>945.54</ele>
        <time>2021-08-03T15:05:08Z</time>
      </trkpt>
      <trkpt lat="42.33518" lon="-0.84405">
        <ele>949.03</ele>
        <time>2021-08-03T15:05:15Z</time>
      </trkpt>
      <trkpt lat="42.33469" lon="-0.84434">
        <ele>950.48</ele>
        <time>2021-08-03T15:05:20Z</time>
      </trkpt>
      <trkpt lat="42.33455" lon="-0.84496">
        <ele>951.42</ele>
        <time>2021-08-03T15:05:26Z</time>
      </trkpt>
      <trkpt lat="42.3346" lon="-0.84527">
        <ele>951.5</ele>
        <time>2021-08-03T15:05:28Z</time>
      </trkpt>
      <trkpt lat="42.33446" lon="-0.84626">
        <ele>951.44</ele>
        <time>2021-08-03T15:05:35Z</time>
      </trkpt>
      <trkpt lat="42.33411" lon="-0.84657">
        <ele>951.04</ele>
        <time>2021-08-03T15:05:40Z</time>
      </trkpt>
      <trkpt lat="42.33367" lon="-0.84675">
        <ele>951.32</ele>
        <time>2021-08-03T15:05:44Z</time>
      </trkpt>
      <trkpt lat="42.33329" lon="-0.84678">
        <ele>952.27</ele>
        <time>2021-08-03T15:05:47Z</time>
      </trkpt>
      <trkpt lat="42.33274" lon="-0.84657">
        <ele>954.98</ele>
        <time>2021-08-03T15:05:52Z</time>
      </trkpt>
      <trkpt lat="42.33222" lon="-0.84641">
        <ele>958.7</ele>
        <time>2021-08-03T15:05:57Z</time>
      </trkpt>
      <trkpt lat="42.33196" lon="-0.84628">
        <ele>960.9</ele>
        <time>2021-08-03T15:06:00Z</time>
      </trkpt>
      <trkpt lat="42.33172" lon="-0.84627">
        <ele>964.3</ele>
        <time>2021-08-03T15:06:07Z</time>
      </trkpt>
      <trkpt lat="42.33122" lon="-0.84621">
        <ele>965.87</ele>
        <time>2021-08-03T15:06:13Z</time>
      </trkpt>
      <trkpt lat="42.33071" lon="-0.84634">
        <ele>966.51</ele>
        <time>2021-08-03T15:06:17Z</time>
      </trkpt>
      <trkpt lat="42.33023" lon="-0.84607">
        <ele>967.02</ele>
        <time>2021-08-03T15:06:21Z</time>
      </trkpt>
      <trkpt lat="42.32959" lon="-0.84536">
        <ele>967.73</ele>
        <time>2021-08-03T15:06:26Z</time>
      </trkpt>
      <trkpt lat="42.32901" lon="-0.84511">
        <ele>967.93</ele>
        <time>2021-08-03T15:06:30Z</time>
      </trkpt>
      <trkpt lat="42.3284" lon="-0.84513">
        <ele>967.51</ele>
        <time>2021-08-03T15:06:34Z</time>
      </trkpt>
      <trkpt lat="42.32783" lon="-0.84532">
        <ele>965.91</ele>
        <time>2021-08-03T15:06:39Z</time>
      </trkpt>
      <trkpt lat="42.32753" lon="-0.84542">
        <ele>964.66</ele>
        <time>2021-08-03T15:06:42Z</time>
      </trkpt>
      <trkpt lat="42.3274" lon="-0.84548">
        <ele>963.84</ele>
        <time>2021-08-03T15:06:44Z</time>
      </trkpt>
      <trkpt lat="42.32704" lon="-0.84575">
        <ele>962.01</ele>
        <time>2021-08-03T15:06:50Z</time>
      </trkpt>
      <trkpt lat="42.32666" lon="-0.84591">
        <ele>962.04</ele>
        <time>2021-08-03T15:06:56Z</time>
      </trkpt>
      <trkpt lat="42.3264" lon="-0.84596">
        <ele>962.38</ele>
        <time>2021-08-03T15:07:00Z</time>
      </trkpt>
      <trkpt lat="42.32622" lon="-0.8462">
        <ele>962.77</ele>
        <time>2021-08-03T15:07:05Z</time>
      </trkpt>
      <trkpt lat="42.32609" lon="-0.84693">
        <ele>963</ele>
        <time>2021-08-03T15:07:12Z</time>
      </trkpt>
      <trkpt lat="42.32615" lon="-0.8475">
        <ele>962.3</ele>
        <time>2021-08-03T15:07:18Z</time>
      </trkpt>
      <trkpt lat="42.32581" lon="-0.84806">
        <ele>963.4</ele>
        <time>2021-08-03T15:07:26Z</time>
      </trkpt>
      <trkpt lat="42.32572" lon="-0.84808">
        <ele>963.56</ele>
        <time>2021-08-03T15:07:27Z</time>
      </trkpt>
      <trkpt lat="42.32547" lon="-0.84816">
        <ele>963.63</ele>
        <time>2021-08-03T15:07:30Z</time>
      </trkpt>
      <trkpt lat="42.32498" lon="-0.8487">
        <ele>963.01</ele>
        <time>2021-08-03T15:07:37Z</time>
      </trkpt>
      <trkpt lat="42.32476" lon="-0.84914">
        <ele>963.02</ele>
        <time>2021-08-03T15:07:41Z</time>
      </trkpt>
      <trkpt lat="42.32455" lon="-0.84988">
        <ele>963.77</ele>
        <time>2021-08-03T15:07:48Z</time>
      </trkpt>
      <trkpt lat="42.32451" lon="-0.84999">
        <ele>963.8</ele>
        <time>2021-08-03T15:07:51Z</time>
      </trkpt>
      <trkpt lat="42.32416" lon="-0.84992">
        <ele>964</ele>
        <time>2021-08-03T15:07:57Z</time>
      </trkpt>
      <trkpt lat="42.32404" lon="-0.84978">
        <ele>964.04</ele>
        <time>2021-08-03T15:07:59Z</time>
      </trkpt>
      <trkpt lat="42.32385" lon="-0.84948">
        <ele>964.06</ele>
        <time>2021-08-03T15:08:03Z</time>
      </trkpt>
      <trkpt lat="42.32358" lon="-0.84926">
        <ele>964.16</ele>
        <time>2021-08-03T15:08:07Z</time>
      </trkpt>
      <trkpt lat="42.32318" lon="-0.84907">
        <ele>964.71</ele>
        <time>2021-08-03T15:08:12Z</time>
      </trkpt>
      <trkpt lat="42.32293" lon="-0.84875">
        <ele>965.26</ele>
        <time>2021-08-03T15:08:16Z</time>
      </trkpt>
      <trkpt lat="42.32274" lon="-0.84839">
        <ele>965.44</ele>
        <time>2021-08-03T15:08:20Z</time>
      </trkpt>
      <trkpt lat="42.32257" lon="-0.84815">
        <ele>965.34</ele>
        <time>2021-08-03T15:08:23Z</time>
      </trkpt>
      <trkpt lat="42.32223" lon="-0.84796">
        <ele>965.41</ele>
        <time>2021-08-03T15:08:28Z</time>
      </trkpt>
      <trkpt lat="42.32199" lon="-0.8477">
        <ele>965.44</ele>
        <time>2021-08-03T15:08:32Z</time>
      </trkpt>
      <trkpt lat="42.32137" lon="-0.84686">
        <ele>963.27</ele>
        <time>2021-08-03T15:08:43Z</time>
      </trkpt>
      <trkpt lat="42.32083" lon="-0.84681">
        <ele>962.11</ele>
        <time>2021-08-03T15:08:50Z</time>
      </trkpt>
      <trkpt lat="42.31993" lon="-0.84723">
        <ele>961.73</ele>
        <time>2021-08-03T15:09:01Z</time>
      </trkpt>
      <trkpt lat="42.31955" lon="-0.84756">
        <ele>962.35</ele>
        <time>2021-08-03T15:09:09Z</time>
      </trkpt>
      <trkpt lat="42.3189" lon="-0.84782">
        <ele>961.67</ele>
        <time>2021-08-03T15:09:19Z</time>
      </trkpt>
      <trkpt lat="42.31873" lon="-0.84789">
        <ele>961.33</ele>
        <time>2021-08-03T15:09:21Z</time>
      </trkpt>
      <trkpt lat="42.3182" lon="-0.84786">
        <ele>960.26</ele>
        <time>2021-08-03T15:09:28Z</time>
      </trkpt>
      <trkpt lat="42.31796" lon="-0.84776">
        <ele>959.89</ele>
        <time>2021-08-03T15:09:31Z</time>
      </trkpt>
      <trkpt lat="42.31759" lon="-0.84742">
        <ele>958.95</ele>
        <time>2021-08-03T15:09:36Z</time>
      </trkpt>
      <trkpt lat="42.31739" lon="-0.84719">
        <ele>958.32</ele>
        <time>2021-08-03T15:09:39Z</time>
      </trkpt>
      <trkpt lat="42.31707" lon="-0.84684">
        <ele>956.77</ele>
        <time>2021-08-03T15:09:44Z</time>
      </trkpt>
      <trkpt lat="42.31659" lon="-0.84626">
        <ele>952.2</ele>
        <time>2021-08-03T15:09:53Z</time>
      </trkpt>
      <trkpt lat="42.31621" lon="-0.84562">
        <ele>948.85</ele>
        <time>2021-08-03T15:10:01Z</time>
      </trkpt>
      <trkpt lat="42.31579" lon="-0.84486">
        <ele>946.33</ele>
        <time>2021-08-03T15:10:11Z</time>
      </trkpt>
      <trkpt lat="42.31567" lon="-0.84472">
        <ele>945.92</ele>
        <time>2021-08-03T15:10:13Z</time>
      </trkpt>
      <trkpt lat="42.31518" lon="-0.84452">
        <ele>944.44</ele>
        <time>2021-08-03T15:10:19Z</time>
      </trkpt>
      <trkpt lat="42.3148" lon="-0.8447">
        <ele>943.45</ele>
        <time>2021-08-03T15:10:24Z</time>
      </trkpt>
      <trkpt lat="42.31436" lon="-0.84463">
        <ele>943.67</ele>
        <time>2021-08-03T15:10:33Z</time>
      </trkpt>
      <trkpt lat="42.3141" lon="-0.84439">
        <ele>943.97</ele>
        <time>2021-08-03T15:10:37Z</time>
      </trkpt>
      <trkpt lat="42.31393" lon="-0.84407">
        <ele>944.11</ele>
        <time>2021-08-03T15:10:41Z</time>
      </trkpt>
      <trkpt lat="42.31386" lon="-0.84389">
        <ele>944.08</ele>
        <time>2021-08-03T15:10:43Z</time>
      </trkpt>
      <trkpt lat="42.31358" lon="-0.84362">
        <ele>942.95</ele>
        <time>2021-08-03T15:10:48Z</time>
      </trkpt>
      <trkpt lat="42.3134" lon="-0.84347">
        <ele>940.78</ele>
        <time>2021-08-03T15:10:55Z</time>
      </trkpt>
      <trkpt lat="42.3129" lon="-0.84267">
        <ele>937.47</ele>
        <time>2021-08-03T15:11:07Z</time>
      </trkpt>
      <trkpt lat="42.31244" lon="-0.84212">
        <ele>935.32</ele>
        <time>2021-08-03T15:11:13Z</time>
      </trkpt>
      <trkpt lat="42.31183" lon="-0.84172">
        <ele>933.38</ele>
        <time>2021-08-03T15:11:20Z</time>
      </trkpt>
      <trkpt lat="42.31134" lon="-0.84155">
        <ele>930.09</ele>
        <time>2021-08-03T15:11:28Z</time>
      </trkpt>
      <trkpt lat="42.31102" lon="-0.84157">
        <ele>928.22</ele>
        <time>2021-08-03T15:11:32Z</time>
      </trkpt>
      <trkpt lat="42.31058" lon="-0.84152">
        <ele>926.06</ele>
        <time>2021-08-03T15:11:38Z</time>
      </trkpt>
      <trkpt lat="42.31025" lon="-0.84147">
        <ele>925.02</ele>
        <time>2021-08-03T15:11:42Z</time>
      </trkpt>
      <trkpt lat="42.30999" lon="-0.8415">
        <ele>924.27</ele>
        <time>2021-08-03T15:11:45Z</time>
      </trkpt>
      <trkpt lat="42.30942" lon="-0.84134">
        <ele>922.43</ele>
        <time>2021-08-03T15:11:52Z</time>
      </trkpt>
      <trkpt lat="42.309" lon="-0.84106">
        <ele>921.75</ele>
        <time>2021-08-03T15:11:59Z</time>
      </trkpt>
      <trkpt lat="42.30867" lon="-0.84066">
        <ele>919.31</ele>
        <time>2021-08-03T15:12:11Z</time>
      </trkpt>
      <trkpt lat="42.30859" lon="-0.84056">
        <ele>918.41</ele>
        <time>2021-08-03T15:12:14Z</time>
      </trkpt>
      <trkpt lat="42.30837" lon="-0.84047">
        <ele>916.78</ele>
        <time>2021-08-03T15:12:19Z</time>
      </trkpt>
      <trkpt lat="42.30772" lon="-0.84055">
        <ele>914.05</ele>
        <time>2021-08-03T15:12:28Z</time>
      </trkpt>
      <trkpt lat="42.30709" lon="-0.84064">
        <ele>910.99</ele>
        <time>2021-08-03T15:12:35Z</time>
      </trkpt>
      <trkpt lat="42.30668" lon="-0.8407">
        <ele>909.21</ele>
        <time>2021-08-03T15:12:39Z</time>
      </trkpt>
      <trkpt lat="42.3062" lon="-0.84054">
        <ele>907.2</ele>
        <time>2021-08-03T15:12:44Z</time>
      </trkpt>
      <trkpt lat="42.30554" lon="-0.84039">
        <ele>905.95</ele>
        <time>2021-08-03T15:12:52Z</time>
      </trkpt>
      <trkpt lat="42.30544" lon="-0.84027">
        <ele>905.34</ele>
        <time>2021-08-03T15:12:54Z</time>
      </trkpt>
      <trkpt lat="42.30528" lon="-0.84005">
        <ele>903.92</ele>
        <time>2021-08-03T15:12:57Z</time>
      </trkpt>
      <trkpt lat="42.30472" lon="-0.83965">
        <ele>900.23</ele>
        <time>2021-08-03T15:13:04Z</time>
      </trkpt>
      <trkpt lat="42.3044" lon="-0.83955">
        <ele>898.7</ele>
        <time>2021-08-03T15:13:07Z</time>
      </trkpt>
      <trkpt lat="42.30402" lon="-0.83933">
        <ele>896.99</ele>
        <time>2021-08-03T15:13:11Z</time>
      </trkpt>
      <trkpt lat="42.30374" lon="-0.83916">
        <ele>894.45</ele>
        <time>2021-08-03T15:13:18Z</time>
      </trkpt>
      <trkpt lat="42.30337" lon="-0.83915">
        <ele>893.85</ele>
        <time>2021-08-03T15:13:23Z</time>
      </trkpt>
      <trkpt lat="42.30314" lon="-0.83906">
        <ele>893.67</ele>
        <time>2021-08-03T15:13:26Z</time>
      </trkpt>
      <trkpt lat="42.30262" lon="-0.83891">
        <ele>892.96</ele>
        <time>2021-08-03T15:13:32Z</time>
      </trkpt>
      <trkpt lat="42.30212" lon="-0.83899">
        <ele>890.88</ele>
        <time>2021-08-03T15:13:39Z</time>
      </trkpt>
      <trkpt lat="42.30188" lon="-0.83933">
        <ele>888.34</ele>
        <time>2021-08-03T15:13:45Z</time>
      </trkpt>
      <trkpt lat="42.30181" lon="-0.83966">
        <ele>886.94</ele>
        <time>2021-08-03T15:13:48Z</time>
      </trkpt>
      <trkpt lat="42.30178" lon="-0.83977">
        <ele>886.76</ele>
        <time>2021-08-03T15:13:49Z</time>
      </trkpt>
      <trkpt lat="42.30146" lon="-0.84028">
        <ele>884.78</ele>
        <time>2021-08-03T15:13:57Z</time>
      </trkpt>
      <trkpt lat="42.301" lon="-0.84062">
        <ele>883.38</ele>
        <time>2021-08-03T15:14:04Z</time>
      </trkpt>
      <trkpt lat="42.30092" lon="-0.84065">
        <ele>883.18</ele>
        <time>2021-08-03T15:14:05Z</time>
      </trkpt>
      <trkpt lat="42.30074" lon="-0.84068">
        <ele>882.3</ele>
        <time>2021-08-03T15:14:09Z</time>
      </trkpt>
      <trkpt lat="42.30043" lon="-0.84071">
        <ele>879.76</ele>
        <time>2021-08-03T15:14:17Z</time>
      </trkpt>
      <trkpt lat="42.30011" lon="-0.841">
        <ele>878.74</ele>
        <time>2021-08-03T15:14:21Z</time>
      </trkpt>
      <trkpt lat="42.29967" lon="-0.84147">
        <ele>878.01</ele>
        <time>2021-08-03T15:14:29Z</time>
      </trkpt>
      <trkpt lat="42.2991" lon="-0.8417">
        <ele>875.34</ele>
        <time>2021-08-03T15:14:41Z</time>
      </trkpt>
      <trkpt lat="42.29866" lon="-0.84187">
        <ele>872.25</ele>
        <time>2021-08-03T15:14:48Z</time>
      </trkpt>
      <trkpt lat="42.2986" lon="-0.84191">
        <ele>871.82</ele>
        <time>2021-08-03T15:14:49Z</time>
      </trkpt>
      <trkpt lat="42.2985" lon="-0.84202">
        <ele>869.71</ele>
        <time>2021-08-03T15:14:54Z</time>
      </trkpt>
      <trkpt lat="42.29825" lon="-0.84241">
        <ele>866.43</ele>
        <time>2021-08-03T15:15:07Z</time>
      </trkpt>
      <trkpt lat="42.29807" lon="-0.84267">
        <ele>865.11</ele>
        <time>2021-08-03T15:15:11Z</time>
      </trkpt>
      <trkpt lat="42.2977" lon="-0.843">
        <ele>862.3</ele>
        <time>2021-08-03T15:15:18Z</time>
      </trkpt>
      <trkpt lat="42.29736" lon="-0.84315">
        <ele>859.88</ele>
        <time>2021-08-03T15:15:24Z</time>
      </trkpt>
      <trkpt lat="42.29699" lon="-0.84296">
        <ele>857.11</ele>
        <time>2021-08-03T15:15:32Z</time>
      </trkpt>
      <trkpt lat="42.29685" lon="-0.8427">
        <ele>856.48</ele>
        <time>2021-08-03T15:15:35Z</time>
      </trkpt>
      <trkpt lat="42.29641" lon="-0.84223">
        <ele>854.17</ele>
        <time>2021-08-03T15:15:42Z</time>
      </trkpt>
      <trkpt lat="42.29546" lon="-0.84204">
        <ele>853.27</ele>
        <time>2021-08-03T15:15:53Z</time>
      </trkpt>
      <trkpt lat="42.29537" lon="-0.84204">
        <ele>853.37</ele>
        <time>2021-08-03T15:15:54Z</time>
      </trkpt>
      <trkpt lat="42.29505" lon="-0.84233">
        <ele>855.14</ele>
        <time>2021-08-03T15:16:01Z</time>
      </trkpt>
      <trkpt lat="42.29454" lon="-0.84297">
        <ele>855.59</ele>
        <time>2021-08-03T15:16:10Z</time>
      </trkpt>
      <trkpt lat="42.29395" lon="-0.84334">
        <ele>852.09</ele>
        <time>2021-08-03T15:16:19Z</time>
      </trkpt>
      <trkpt lat="42.29381" lon="-0.84341">
        <ele>850.79</ele>
        <time>2021-08-03T15:16:22Z</time>
      </trkpt>
      <trkpt lat="42.29356" lon="-0.84368">
        <ele>848.66</ele>
        <time>2021-08-03T15:16:28Z</time>
      </trkpt>
      <trkpt lat="42.29351" lon="-0.84381">
        <ele>847.65</ele>
        <time>2021-08-03T15:16:30Z</time>
      </trkpt>
      <trkpt lat="42.29327" lon="-0.84408">
        <ele>845.65</ele>
        <time>2021-08-03T15:16:35Z</time>
      </trkpt>
      <trkpt lat="42.29285" lon="-0.84431">
        <ele>844.09</ele>
        <time>2021-08-03T15:16:42Z</time>
      </trkpt>
      <trkpt lat="42.29251" lon="-0.84425">
        <ele>844.49</ele>
        <time>2021-08-03T15:16:49Z</time>
      </trkpt>
      <trkpt lat="42.29211" lon="-0.84432">
        <ele>845.75</ele>
        <time>2021-08-03T15:16:55Z</time>
      </trkpt>
      <trkpt lat="42.29183" lon="-0.84442">
        <ele>845.66</ele>
        <time>2021-08-03T15:17:01Z</time>
      </trkpt>
      <trkpt lat="42.29129" lon="-0.84438">
        <ele>844.15</ele>
        <time>2021-08-03T15:17:08Z</time>
      </trkpt>
      <trkpt lat="42.29089" lon="-0.84453">
        <ele>843.69</ele>
        <time>2021-08-03T15:17:13Z</time>
      </trkpt>
      <trkpt lat="42.29054" lon="-0.84473">
        <ele>843.99</ele>
        <time>2021-08-03T15:17:22Z</time>
      </trkpt>
      <trkpt lat="42.29035" lon="-0.84485">
        <ele>844.71</ele>
        <time>2021-08-03T15:17:27Z</time>
      </trkpt>
      <trkpt lat="42.29016" lon="-0.84489">
        <ele>845.56</ele>
        <time>2021-08-03T15:17:32Z</time>
      </trkpt>
      <trkpt lat="42.29007" lon="-0.84488">
        <ele>846.15</ele>
        <time>2021-08-03T15:17:35Z</time>
      </trkpt>
      <trkpt lat="42.28987" lon="-0.8449">
        <ele>846.97</ele>
        <time>2021-08-03T15:17:39Z</time>
      </trkpt>
      <trkpt lat="42.28943" lon="-0.84508">
        <ele>847.9</ele>
        <time>2021-08-03T15:17:46Z</time>
      </trkpt>
      <trkpt lat="42.28921" lon="-0.84508">
        <ele>847.74</ele>
        <time>2021-08-03T15:17:50Z</time>
      </trkpt>
      <trkpt lat="42.28867" lon="-0.84512">
        <ele>848.09</ele>
        <time>2021-08-03T15:17:59Z</time>
      </trkpt>
      <trkpt lat="42.28844" lon="-0.84517">
        <ele>848.12</ele>
        <time>2021-08-03T15:18:03Z</time>
      </trkpt>
      <trkpt lat="42.28808" lon="-0.84516">
        <ele>847.95</ele>
        <time>2021-08-03T15:18:08Z</time>
      </trkpt>
      <trkpt lat="42.28797" lon="-0.84511">
        <ele>847.32</ele>
        <time>2021-08-03T15:18:10Z</time>
      </trkpt>
      <trkpt lat="42.28763" lon="-0.84492">
        <ele>845.44</ele>
        <time>2021-08-03T15:18:15Z</time>
      </trkpt>
      <trkpt lat="42.28747" lon="-0.84487">
        <ele>844.74</ele>
        <time>2021-08-03T15:18:17Z</time>
      </trkpt>
      <trkpt lat="42.28727" lon="-0.84478">
        <ele>843.69</ele>
        <time>2021-08-03T15:18:20Z</time>
      </trkpt>
      <trkpt lat="42.28687" lon="-0.84456">
        <ele>841.7</ele>
        <time>2021-08-03T15:18:28Z</time>
      </trkpt>
      <trkpt lat="42.28683" lon="-0.84461">
        <ele>841.11</ele>
        <time>2021-08-03T15:18:30Z</time>
      </trkpt>
      <trkpt lat="42.28657" lon="-0.84531">
        <ele>837.69</ele>
        <time>2021-08-03T15:18:40Z</time>
      </trkpt>
      <trkpt lat="42.28615" lon="-0.84603">
        <ele>834.56</ele>
        <time>2021-08-03T15:18:49Z</time>
      </trkpt>
      <trkpt lat="42.28588" lon="-0.84606">
        <ele>834.13</ele>
        <time>2021-08-03T15:18:55Z</time>
      </trkpt>
      <trkpt lat="42.28572" lon="-0.84597">
        <ele>833.99</ele>
        <time>2021-08-03T15:18:58Z</time>
      </trkpt>
      <trkpt lat="42.28549" lon="-0.84589">
        <ele>832.48</ele>
        <time>2021-08-03T15:19:02Z</time>
      </trkpt>
      <trkpt lat="42.28496" lon="-0.84564">
        <ele>828.7</ele>
        <time>2021-08-03T15:19:10Z</time>
      </trkpt>
      <trkpt lat="42.28489" lon="-0.84561">
        <ele>828.16</ele>
        <time>2021-08-03T15:19:11Z</time>
      </trkpt>
      <trkpt lat="42.28466" lon="-0.84545">
        <ele>826.7</ele>
        <time>2021-08-03T15:19:15Z</time>
      </trkpt>
      <trkpt lat="42.28439" lon="-0.84508">
        <ele>825.2</ele>
        <time>2021-08-03T15:19:21Z</time>
      </trkpt>
      <trkpt lat="42.28415" lon="-0.84498">
        <ele>824.92</ele>
        <time>2021-08-03T15:19:26Z</time>
      </trkpt>
      <trkpt lat="42.28384" lon="-0.84502">
        <ele>824.83</ele>
        <time>2021-08-03T15:19:32Z</time>
      </trkpt>
      <trkpt lat="42.28367" lon="-0.84514">
        <ele>824.79</ele>
        <time>2021-08-03T15:19:36Z</time>
      </trkpt>
      <trkpt lat="42.28349" lon="-0.84545">
        <ele>825.11</ele>
        <time>2021-08-03T15:19:42Z</time>
      </trkpt>
      <trkpt lat="42.28342" lon="-0.84554">
        <ele>825.19</ele>
        <time>2021-08-03T15:19:44Z</time>
      </trkpt>
      <trkpt lat="42.28304" lon="-0.84584">
        <ele>826.49</ele>
        <time>2021-08-03T15:19:53Z</time>
      </trkpt>
      <trkpt lat="42.28277" lon="-0.8461">
        <ele>828.07</ele>
        <time>2021-08-03T15:19:59Z</time>
      </trkpt>
      <trkpt lat="42.28256" lon="-0.84608">
        <ele>829.88</ele>
        <time>2021-08-03T15:20:04Z</time>
      </trkpt>
      <trkpt lat="42.28206" lon="-0.84591">
        <ele>831.18</ele>
        <time>2021-08-03T15:20:19Z</time>
      </trkpt>
      <trkpt lat="42.28145" lon="-0.84588">
        <ele>831.41</ele>
        <time>2021-08-03T15:20:28Z</time>
      </trkpt>
      <trkpt lat="42.2811" lon="-0.84607">
        <ele>832.57</ele>
        <time>2021-08-03T15:20:33Z</time>
      </trkpt>
      <trkpt lat="42.2807" lon="-0.84683">
        <ele>833.81</ele>
        <time>2021-08-03T15:20:42Z</time>
      </trkpt>
      <trkpt lat="42.28064" lon="-0.84702">
        <ele>833.94</ele>
        <time>2021-08-03T15:20:44Z</time>
      </trkpt>
      <trkpt lat="42.28022" lon="-0.84764">
        <ele>834.54</ele>
        <time>2021-08-03T15:20:51Z</time>
      </trkpt>
      <trkpt lat="42.27991" lon="-0.8477">
        <ele>835.53</ele>
        <time>2021-08-03T15:20:56Z</time>
      </trkpt>
      <trkpt lat="42.27983" lon="-0.84763">
        <ele>836.22</ele>
        <time>2021-08-03T15:20:58Z</time>
      </trkpt>
      <trkpt lat="42.27957" lon="-0.84758">
        <ele>838.02</ele>
        <time>2021-08-03T15:21:03Z</time>
      </trkpt>
      <trkpt lat="42.27943" lon="-0.84776">
        <ele>839.1</ele>
        <time>2021-08-03T15:21:08Z</time>
      </trkpt>
      <trkpt lat="42.27925" lon="-0.84861">
        <ele>840.91</ele>
        <time>2021-08-03T15:21:19Z</time>
      </trkpt>
      <trkpt lat="42.279" lon="-0.8492">
        <ele>841.77</ele>
        <time>2021-08-03T15:21:29Z</time>
      </trkpt>
      <trkpt lat="42.27861" lon="-0.84962">
        <ele>843.41</ele>
        <time>2021-08-03T15:21:37Z</time>
      </trkpt>
      <trkpt lat="42.2786" lon="-0.84981">
        <ele>843.52</ele>
        <time>2021-08-03T15:21:39Z</time>
      </trkpt>
      <trkpt lat="42.27847" lon="-0.85012">
        <ele>843.34</ele>
        <time>2021-08-03T15:21:48Z</time>
      </trkpt>
      <trkpt lat="42.27808" lon="-0.85023">
        <ele>842.87</ele>
        <time>2021-08-03T15:22:00Z</time>
      </trkpt>
      <trkpt lat="42.27785" lon="-0.85032">
        <ele>841.64</ele>
        <time>2021-08-03T15:22:11Z</time>
      </trkpt>
      <trkpt lat="42.27785" lon="-0.85032">
        <ele>840.09</ele>
        <time>2021-08-03T15:22:37Z</time>
      </trkpt>
      <trkpt lat="42.27762" lon="-0.85038">
        <ele>839.89</ele>
        <time>2021-08-03T15:24:05Z</time>
      </trkpt>
      <trkpt lat="42.27724" lon="-0.85038">
        <ele>837.71</ele>
        <time>2021-08-03T15:24:16Z</time>
      </trkpt>
      <trkpt lat="42.27689" lon="-0.85015">
        <ele>834.31</ele>
        <time>2021-08-03T15:24:27Z</time>
      </trkpt>
      <trkpt lat="42.27671" lon="-0.85007">
        <ele>832.68</ele>
        <time>2021-08-03T15:24:34Z</time>
      </trkpt>
      <trkpt lat="42.27649" lon="-0.84997">
        <ele>831.54</ele>
        <time>2021-08-03T15:24:39Z</time>
      </trkpt>
      <trkpt lat="42.27603" lon="-0.84988">
        <ele>828.07</ele>
        <time>2021-08-03T15:24:50Z</time>
      </trkpt>
      <trkpt lat="42.27585" lon="-0.84992">
        <ele>825.92</ele>
        <time>2021-08-03T15:24:56Z</time>
      </trkpt>
      <trkpt lat="42.27562" lon="-0.84995">
        <ele>824.82</ele>
        <time>2021-08-03T15:24:59Z</time>
      </trkpt>
      <trkpt lat="42.27529" lon="-0.84996">
        <ele>824.03</ele>
        <time>2021-08-03T15:25:02Z</time>
      </trkpt>
      <trkpt lat="42.27512" lon="-0.85">
        <ele>823.48</ele>
        <time>2021-08-03T15:25:04Z</time>
      </trkpt>
      <trkpt lat="42.27486" lon="-0.8501">
        <ele>823.02</ele>
        <time>2021-08-03T15:25:10Z</time>
      </trkpt>
      <trkpt lat="42.2746" lon="-0.85009">
        <ele>823.62</ele>
        <time>2021-08-03T15:25:14Z</time>
      </trkpt>
      <trkpt lat="42.27403" lon="-0.84991">
        <ele>825.76</ele>
        <time>2021-08-03T15:25:22Z</time>
      </trkpt>
      <trkpt lat="42.27368" lon="-0.84996">
        <ele>828.81</ele>
        <time>2021-08-03T15:25:31Z</time>
      </trkpt>
      <trkpt lat="42.27331" lon="-0.85001">
        <ele>830.38</ele>
        <time>2021-08-03T15:25:38Z</time>
      </trkpt>
      <trkpt lat="42.27284" lon="-0.85028">
        <ele>831.79</ele>
        <time>2021-08-03T15:25:49Z</time>
      </trkpt>
      <trkpt lat="42.27257" lon="-0.85075">
        <ele>832.37</ele>
        <time>2021-08-03T15:25:54Z</time>
      </trkpt>
      <trkpt lat="42.27217" lon="-0.85092">
        <ele>835.45</ele>
        <time>2021-08-03T15:26:02Z</time>
      </trkpt>
      <trkpt lat="42.27177" lon="-0.85084">
        <ele>836.44</ele>
        <time>2021-08-03T15:26:08Z</time>
      </trkpt>
      <trkpt lat="42.27145" lon="-0.85088">
        <ele>836.81</ele>
        <time>2021-08-03T15:26:13Z</time>
      </trkpt>
      <trkpt lat="42.2712" lon="-0.85101">
        <ele>836.96</ele>
        <time>2021-08-03T15:26:17Z</time>
      </trkpt>
      <trkpt lat="42.27077" lon="-0.85116">
        <ele>836.92</ele>
        <time>2021-08-03T15:26:23Z</time>
      </trkpt>
      <trkpt lat="42.27027" lon="-0.85149">
        <ele>836.76</ele>
        <time>2021-08-03T15:26:29Z</time>
      </trkpt>
      <trkpt lat="42.27" lon="-0.85159">
        <ele>836.46</ele>
        <time>2021-08-03T15:26:32Z</time>
      </trkpt>
      <trkpt lat="42.26969" lon="-0.85181">
        <ele>834.96</ele>
        <time>2021-08-03T15:26:37Z</time>
      </trkpt>
      <trkpt lat="42.26949" lon="-0.85205">
        <ele>832.04</ele>
        <time>2021-08-03T15:26:47Z</time>
      </trkpt>
      <trkpt lat="42.26843" lon="-0.85321">
        <ele>798.4</ele>
      </trkpt>
      <trkpt lat="42.26824" lon="-0.85328">
        <ele>799.6</ele>
      </trkpt>
      <trkpt lat="42.26781" lon="-0.8533">
        <ele>799.1</ele>
      </trkpt>
      <trkpt lat="42.26735" lon="-0.85342">
        <ele>798.5</ele>
      </trkpt>
      <trkpt lat="42.26707" lon="-0.85342">
        <ele>798.9</ele>
      </trkpt>
      <trkpt lat="42.26682" lon="-0.85331">
        <ele>798.5</ele>
      </trkpt>
      <trkpt lat="42.26625" lon="-0.85296">
        <ele>791.3</ele>
      </trkpt>
      <trkpt lat="42.26606" lon="-0.85291">
        <ele>791.1</ele>
      </trkpt>
      <trkpt lat="42.26573" lon="-0.85271">
        <ele>787.4</ele>
      </trkpt>
      <trkpt lat="42.26564" lon="-0.85271">
        <ele>785.9</ele>
      </trkpt>
      <trkpt lat="42.26507" lon="-0.85348">
        <ele>784.6</ele>
      </trkpt>
      <trkpt lat="42.26483" lon="-0.85357">
        <ele>782.7</ele>
      </trkpt>
      <trkpt lat="42.26449" lon="-0.85359">
        <ele>781.9</ele>
      </trkpt>
      <trkpt lat="42.26418" lon="-0.85376">
        <ele>783.1</ele>
      </trkpt>
      <trkpt lat="42.26384" lon="-0.85374">
        <ele>785.4</ele>
      </trkpt>
      <trkpt lat="42.26325" lon="-0.85355">
        <ele>784.9</ele>
      </trkpt>
      <trkpt lat="42.26285" lon="-0.85338">
        <ele>780.3</ele>
      </trkpt>
      <trkpt lat="42.26275" lon="-0.85347">
        <ele>780.8</ele>
      </trkpt>
      <trkpt lat="42.26267" lon="-0.85364">
        <ele>781.6</ele>
      </trkpt>
      <trkpt lat="42.26266" lon="-0.85411">
        <ele>784.7</ele>
      </trkpt>
      <trkpt lat="42.26243" lon="-0.85472">
        <ele>785.4</ele>
      </trkpt>
      <trkpt lat="42.26218" lon="-0.85497">
        <ele>784.4</ele>
      </trkpt>
      <trkpt lat="42.26173" lon="-0.85518">
        <ele>780.5</ele>
      </trkpt>
      <trkpt lat="42.26148" lon="-0.85521">
        <ele>778.2</ele>
      </trkpt>
      <trkpt lat="42.26099" lon="-0.85556">
        <ele>777.6</ele>
      </trkpt>
      <trkpt lat="42.26036" lon="-0.85579">
        <ele>779.7</ele>
      </trkpt>
      <trkpt lat="42.25989" lon="-0.85567">
        <ele>777.4</ele>
      </trkpt>
      <trkpt lat="42.25963" lon="-0.85567">
        <ele>778.8</ele>
      </trkpt>
      <trkpt lat="42.25931" lon="-0.85562">
        <ele>778.9</ele>
      </trkpt>
      <trkpt lat="42.25878" lon="-0.85541">
        <ele>773.8</ele>
      </trkpt>
      <trkpt lat="42.25771" lon="-0.85533">
        <ele>775.5</ele>
      </trkpt>
      <trkpt lat="42.25718" lon="-0.85505">
        <ele>773.6</ele>
      </trkpt>
      <trkpt lat="42.25658" lon="-0.85444">
        <ele>771.9</ele>
      </trkpt>
      <trkpt lat="42.25634" lon="-0.85433">
        <ele>770.5</ele>
      </trkpt>
      <trkpt lat="42.25587" lon="-0.85432">
        <ele>769.9</ele>
      </trkpt>
      <trkpt lat="42.25543" lon="-0.85387">
        <ele>768</ele>
      </trkpt>
      <trkpt lat="42.25514" lon="-0.85367">
        <ele>769.1</ele>
      </trkpt>
      <trkpt lat="42.25446" lon="-0.85351">
        <ele>770.7</ele>
      </trkpt>
      <trkpt lat="42.25408" lon="-0.85347">
        <ele>771.7</ele>
      </trkpt>
      <trkpt lat="42.25351" lon="-0.85392">
        <ele>770</ele>
      </trkpt>
      <trkpt lat="42.25332" lon="-0.85409">
        <ele>770</ele>
      </trkpt>
      <trkpt lat="42.25274" lon="-0.85396">
        <ele>767.2</ele>
      </trkpt>
      <trkpt lat="42.25243" lon="-0.85352">
        <ele>766.1</ele>
      </trkpt>
      <trkpt lat="42.25237" lon="-0.8531">
        <ele>767.8</ele>
      </trkpt>
      <trkpt lat="42.25205" lon="-0.85265">
        <ele>764.3</ele>
      </trkpt>
      <trkpt lat="42.25194" lon="-0.85229">
        <ele>763.9</ele>
      </trkpt>
      <trkpt lat="42.25174" lon="-0.85216">
        <ele>761.1</ele>
      </trkpt>
      <trkpt lat="42.25127" lon="-0.85203">
        <ele>757.6</ele>
      </trkpt>
      <trkpt lat="42.25114" lon="-0.85184">
        <ele>758.1</ele>
      </trkpt>
      <trkpt lat="42.25106" lon="-0.85156">
        <ele>758.6</ele>
      </trkpt>
      <trkpt lat="42.25097" lon="-0.85136">
        <ele>757.3</ele>
      </trkpt>
      <trkpt lat="42.25071" lon="-0.85111">
        <ele>755.5</ele>
      </trkpt>
      <trkpt lat="42.25044" lon="-0.85105">
        <ele>755.3</ele>
      </trkpt>
      <trkpt lat="42.24996" lon="-0.85101">
        <ele>755</ele>
      </trkpt>
      <trkpt lat="42.24958" lon="-0.85109">
        <ele>753.3</ele>
      </trkpt>
      <trkpt lat="42.24939" lon="-0.85122">
        <ele>751.7</ele>
      </trkpt>
      <trkpt lat="42.24933" lon="-0.85126">
        <ele>751.1</ele>
      </trkpt>
      <trkpt lat="42.24928" lon="-0.85133">
        <ele>750.3</ele>
      </trkpt>
      <trkpt lat="42.24902" lon="-0.85135">
        <ele>750.2</ele>
      </trkpt>
      <trkpt lat="42.24872" lon="-0.8513">
        <ele>751.5</ele>
      </trkpt>
      <trkpt lat="42.24839" lon="-0.85136">
        <ele>752.3</ele>
      </trkpt>
      <trkpt lat="42.24726" lon="-0.85189">
        <ele>756.5</ele>
      </trkpt>
      <trkpt lat="42.24687" lon="-0.85203">
        <ele>754.5</ele>
      </trkpt>
      <trkpt lat="42.24642" lon="-0.85197">
        <ele>755.9</ele>
      </trkpt>
      <trkpt lat="42.24623" lon="-0.85197">
        <ele>755.2</ele>
      </trkpt>
      <trkpt lat="42.24586" lon="-0.85203">
        <ele>752.7</ele>
      </trkpt>
      <trkpt lat="42.24564" lon="-0.85198">
        <ele>754.5</ele>
      </trkpt>
      <trkpt lat="42.24554" lon="-0.85193">
        <ele>755.8</ele>
      </trkpt>
      <trkpt lat="42.24547" lon="-0.85192">
        <ele>756.2</ele>
      </trkpt>
      <trkpt lat="42.24531" lon="-0.85195">
        <ele>756.3</ele>
      </trkpt>
      <trkpt lat="42.24515" lon="-0.85203">
        <ele>755.9</ele>
      </trkpt>
      <trkpt lat="42.24507" lon="-0.85211">
        <ele>755.3</ele>
      </trkpt>
      <trkpt lat="42.24492" lon="-0.85237">
        <ele>752.2</ele>
      </trkpt>
      <trkpt lat="42.24484" lon="-0.85259">
        <ele>750.2</ele>
      </trkpt>
      <trkpt lat="42.24477" lon="-0.85285">
        <ele>749.1</ele>
      </trkpt>
      <trkpt lat="42.24472" lon="-0.85313">
        <ele>748.1</ele>
      </trkpt>
      <trkpt lat="42.24468" lon="-0.85323">
        <ele>747.7</ele>
      </trkpt>
      <trkpt lat="42.24456" lon="-0.85333">
        <ele>747.5</ele>
      </trkpt>
      <trkpt lat="42.24451" lon="-0.8534">
        <ele>748.2</ele>
      </trkpt>
      <trkpt lat="42.24446" lon="-0.85341">
        <ele>748.3</ele>
      </trkpt>
      <trkpt lat="42.24442" lon="-0.85337">
        <ele>748</ele>
      </trkpt>
      <trkpt lat="42.2443" lon="-0.8532">
        <ele>748.1</ele>
      </trkpt>
      <trkpt lat="42.24405" lon="-0.85292">
        <ele>747</ele>
      </trkpt>
      <trkpt lat="42.24399" lon="-0.85278">
        <ele>746.2</ele>
      </trkpt>
      <trkpt lat="42.2439" lon="-0.85261">
        <ele>744.9</ele>
      </trkpt>
      <trkpt lat="42.24375" lon="-0.8524">
        <ele>742.7</ele>
      </trkpt>
      <trkpt lat="42.24367" lon="-0.8523">
        <ele>741.7</ele>
      </trkpt>
      <trkpt lat="42.24363" lon="-0.8522">
        <ele>741.3</ele>
      </trkpt>
      <trkpt lat="42.24358" lon="-0.85187">
        <ele>741.4</ele>
      </trkpt>
      <trkpt lat="42.24362" lon="-0.85165">
        <ele>742.6</ele>
      </trkpt>
      <trkpt lat="42.24362" lon="-0.8513">
        <ele>745.1</ele>
      </trkpt>
      <trkpt lat="42.24357" lon="-0.85122">
        <ele>745</ele>
      </trkpt>
      <trkpt lat="42.24331" lon="-0.8511">
        <ele>742.7</ele>
      </trkpt>
      <trkpt lat="42.24315" lon="-0.85106">
        <ele>742.9</ele>
      </trkpt>
      <trkpt lat="42.24286" lon="-0.85105">
        <ele>742.6</ele>
      </trkpt>
      <trkpt lat="42.24277" lon="-0.85108">
        <ele>742.1</ele>
      </trkpt>
      <trkpt lat="42.24265" lon="-0.85117">
        <ele>740.8</ele>
      </trkpt>
      <trkpt lat="42.24253" lon="-0.85118">
        <ele>740.5</ele>
      </trkpt>
      <trkpt lat="42.24224" lon="-0.85112">
        <ele>740.4</ele>
      </trkpt>
      <trkpt lat="42.24214" lon="-0.85109">
        <ele>740.4</ele>
      </trkpt>
      <trkpt lat="42.24209" lon="-0.85105">
        <ele>740.7</ele>
      </trkpt>
      <trkpt lat="42.24182" lon="-0.85076">
        <ele>741.7</ele>
      </trkpt>
      <trkpt lat="42.24179" lon="-0.85068">
        <ele>741.4</ele>
      </trkpt>
      <trkpt lat="42.24176" lon="-0.85056">
        <ele>741.1</ele>
      </trkpt>
      <trkpt lat="42.24176" lon="-0.85046">
        <ele>741</ele>
      </trkpt>
      <trkpt lat="42.24181" lon="-0.8503">
        <ele>741.3</ele>
      </trkpt>
      <trkpt lat="42.24204" lon="-0.8498">
        <ele>742.5</ele>
      </trkpt>
      <trkpt lat="42.24226" lon="-0.84951">
        <ele>742.6</ele>
      </trkpt>
      <trkpt lat="42.24247" lon="-0.84942">
        <ele>744.4</ele>
      </trkpt>
      <trkpt lat="42.24254" lon="-0.84936">
        <ele>744.6</ele>
      </trkpt>
      <trkpt lat="42.24259" lon="-0.84928">
        <ele>744.4</ele>
      </trkpt>
      <trkpt lat="42.24262" lon="-0.84903">
        <ele>743.8</ele>
      </trkpt>
      <trkpt lat="42.24266" lon="-0.84882">
        <ele>744.4</ele>
      </trkpt>
      <trkpt lat="42.24266" lon="-0.84874">
        <ele>744.4</ele>
      </trkpt>
      <trkpt lat="42.24265" lon="-0.84867">
        <ele>744.3</ele>
      </trkpt>
      <trkpt lat="42.24244" lon="-0.84838">
        <ele>740.9</ele>
      </trkpt>
      <trkpt lat="42.2424" lon="-0.84826">
        <ele>740.3</ele>
      </trkpt>
      <trkpt lat="42.24234" lon="-0.84792">
        <ele>740.1</ele>
      </trkpt>
      <trkpt lat="42.24228" lon="-0.84738">
        <ele>741</ele>
      </trkpt>
      <trkpt lat="42.24213" lon="-0.8471">
        <ele>740.5</ele>
      </trkpt>
      <trkpt lat="42.24208" lon="-0.84693">
        <ele>741.1</ele>
      </trkpt>
      <trkpt lat="42.24195" lon="-0.84682">
        <ele>740.4</ele>
      </trkpt>
      <trkpt lat="42.24181" lon="-0.84664">
        <ele>740.3</ele>
      </trkpt>
      <trkpt lat="42.24168" lon="-0.8463">
        <ele>739.5</ele>
      </trkpt>
      <trkpt lat="42.24161" lon="-0.84618">
        <ele>739.4</ele>
      </trkpt>
      <trkpt lat="42.24155" lon="-0.84622">
        <ele>739.2</ele>
      </trkpt>
      <trkpt lat="42.24137" lon="-0.84623">
        <ele>738.7</ele>
      </trkpt>
      <trkpt lat="42.24091" lon="-0.84614">
        <ele>738</ele>
      </trkpt>
      <trkpt lat="42.24083" lon="-0.84614">
        <ele>737.8</ele>
      </trkpt>
      <trkpt lat="42.24058" lon="-0.8462">
        <ele>738.1</ele>
      </trkpt>
      <trkpt lat="42.24028" lon="-0.84635">
        <ele>737.1</ele>
      </trkpt>
      <trkpt lat="42.24004" lon="-0.8464">
        <ele>736.8</ele>
      </trkpt>
      <trkpt lat="42.23997" lon="-0.8464">
        <ele>736.8</ele>
      </trkpt>
      <trkpt lat="42.23962" lon="-0.84627">
        <ele>737.8</ele>
      </trkpt>
      <trkpt lat="42.23946" lon="-0.84627">
        <ele>737.5</ele>
      </trkpt>
      <trkpt lat="42.23922" lon="-0.84625">
        <ele>737.1</ele>
      </trkpt>
      <trkpt lat="42.23902" lon="-0.8462">
        <ele>735.8</ele>
      </trkpt>
      <trkpt lat="42.23897" lon="-0.84616">
        <ele>735.6</ele>
      </trkpt>
      <trkpt lat="42.23893" lon="-0.84601">
        <ele>736.5</ele>
      </trkpt>
      <trkpt lat="42.23888" lon="-0.84575">
        <ele>737.7</ele>
      </trkpt>
      <trkpt lat="42.23884" lon="-0.84545">
        <ele>737.9</ele>
      </trkpt>
      <trkpt lat="42.23873" lon="-0.84504">
        <ele>738.3</ele>
      </trkpt>
      <trkpt lat="42.2387" lon="-0.84483">
        <ele>736.5</ele>
      </trkpt>
      <trkpt lat="42.2387" lon="-0.84462">
        <ele>734.2</ele>
      </trkpt>
      <trkpt lat="42.23868" lon="-0.8445">
        <ele>733.1</ele>
      </trkpt>
      <trkpt lat="42.23861" lon="-0.84438">
        <ele>732.6</ele>
      </trkpt>
      <trkpt lat="42.23834" lon="-0.84416">
        <ele>734.7</ele>
      </trkpt>
      <trkpt lat="42.23808" lon="-0.84381">
        <ele>731.2</ele>
      </trkpt>
      <trkpt lat="42.23786" lon="-0.84364">
        <ele>732.3</ele>
      </trkpt>
      <trkpt lat="42.2375" lon="-0.84328">
        <ele>734.8</ele>
      </trkpt>
      <trkpt lat="42.23731" lon="-0.84305">
        <ele>732.6</ele>
      </trkpt>
      <trkpt lat="42.23714" lon="-0.84278">
        <ele>730.6</ele>
      </trkpt>
      <trkpt lat="42.23693" lon="-0.84233">
        <ele>727.9</ele>
      </trkpt>
      <trkpt lat="42.23646" lon="-0.84161">
        <ele>725.6</ele>
      </trkpt>
      <trkpt lat="42.23639" lon="-0.84146">
        <ele>724.4</ele>
      </trkpt>
      <trkpt lat="42.2358" lon="-0.84099">
        <ele>727.2</ele>
      </trkpt>
      <trkpt lat="42.23515" lon="-0.84028">
        <ele>730.3</ele>
      </trkpt>
      <trkpt lat="42.235" lon="-0.84005">
        <ele>730.8</ele>
      </trkpt>
      <trkpt lat="42.23493" lon="-0.83976">
        <ele>727.4</ele>
      </trkpt>
      <trkpt lat="42.23484" lon="-0.83953">
        <ele>725.3</ele>
      </trkpt>
      <trkpt lat="42.23471" lon="-0.83937">
        <ele>724.7</ele>
      </trkpt>
      <trkpt lat="42.23459" lon="-0.83927">
        <ele>724.8</ele>
      </trkpt>
      <trkpt lat="42.23397" lon="-0.83894">
        <ele>724</ele>
      </trkpt>
      <trkpt lat="42.23388" lon="-0.83885">
        <ele>722.8</ele>
      </trkpt>
      <trkpt lat="42.23374" lon="-0.8388">
        <ele>722.6</ele>
      </trkpt>
      <trkpt lat="42.23362" lon="-0.83884">
        <ele>723.6</ele>
      </trkpt>
      <trkpt lat="42.23355" lon="-0.83887">
        <ele>724</ele>
      </trkpt>
      <trkpt lat="42.23326" lon="-0.83897">
        <ele>724.6</ele>
      </trkpt>
      <trkpt lat="42.23312" lon="-0.83898">
        <ele>724.3</ele>
      </trkpt>
      <trkpt lat="42.233" lon="-0.83894">
        <ele>724.3</ele>
      </trkpt>
      <trkpt lat="42.2325" lon="-0.83851">
        <ele>730.2</ele>
      </trkpt>
      <trkpt lat="42.23237" lon="-0.83847">
        <ele>730.8</ele>
      </trkpt>
      <trkpt lat="42.23217" lon="-0.83833">
        <ele>733</ele>
      </trkpt>
      <trkpt lat="42.23203" lon="-0.83827">
        <ele>733.8</ele>
      </trkpt>
      <trkpt lat="42.23187" lon="-0.83826">
        <ele>733.9</ele>
      </trkpt>
      <trkpt lat="42.23143" lon="-0.83832">
        <ele>734.5</ele>
      </trkpt>
      <trkpt lat="42.23132" lon="-0.83838">
        <ele>734.2</ele>
      </trkpt>
      <trkpt lat="42.2311" lon="-0.83854">
        <ele>733</ele>
      </trkpt>
      <trkpt lat="42.2309" lon="-0.83862">
        <ele>733.3</ele>
      </trkpt>
      <trkpt lat="42.23069" lon="-0.83862">
        <ele>732.7</ele>
      </trkpt>
      <trkpt lat="42.23063" lon="-0.83858">
        <ele>732.8</ele>
      </trkpt>
      <trkpt lat="42.2304" lon="-0.83825">
        <ele>734.9</ele>
      </trkpt>
      <trkpt lat="42.23017" lon="-0.83801">
        <ele>733.2</ele>
      </trkpt>
      <trkpt lat="42.22995" lon="-0.83782">
        <ele>732.3</ele>
      </trkpt>
      <trkpt lat="42.22958" lon="-0.83767">
        <ele>734.1</ele>
      </trkpt>
      <trkpt lat="42.22882" lon="-0.83747">
        <ele>736.3</ele>
      </trkpt>
      <trkpt lat="42.22866" lon="-0.83746">
        <ele>737.1</ele>
      </trkpt>
      <trkpt lat="42.22809" lon="-0.83736">
        <ele>737.6</ele>
      </trkpt>
      <trkpt lat="42.22798" lon="-0.83731">
        <ele>737</ele>
      </trkpt>
      <trkpt lat="42.22787" lon="-0.83722">
        <ele>735.7</ele>
      </trkpt>
      <trkpt lat="42.22767" lon="-0.837">
        <ele>732.9</ele>
      </trkpt>
      <trkpt lat="42.22756" lon="-0.83692">
        <ele>732.5</ele>
      </trkpt>
      <trkpt lat="42.22742" lon="-0.83687">
        <ele>732</ele>
      </trkpt>
      <trkpt lat="42.22715" lon="-0.83683">
        <ele>731</ele>
      </trkpt>
      <trkpt lat="42.2266" lon="-0.83699">
        <ele>730.3</ele>
      </trkpt>
      <trkpt lat="42.22657" lon="-0.83703">
        <ele>730.2</ele>
      </trkpt>
      <trkpt lat="42.22641" lon="-0.83705">
        <ele>729.8</ele>
      </trkpt>
      <trkpt lat="42.22621" lon="-0.83705">
        <ele>729.3</ele>
      </trkpt>
      <trkpt lat="42.22594" lon="-0.83699">
        <ele>729.3</ele>
      </trkpt>
      <trkpt lat="42.22563" lon="-0.83702">
        <ele>730.2</ele>
      </trkpt>
      <trkpt lat="42.22532" lon="-0.83711">
        <ele>731.4</ele>
      </trkpt>
      <trkpt lat="42.22516" lon="-0.83718">
        <ele>731.7</ele>
      </trkpt>
      <trkpt lat="42.22493" lon="-0.83737">
        <ele>731.3</ele>
      </trkpt>
      <trkpt lat="42.22483" lon="-0.83749">
        <ele>731.2</ele>
      </trkpt>
      <trkpt lat="42.22479" lon="-0.83759">
        <ele>730.2</ele>
      </trkpt>
      <trkpt lat="42.22474" lon="-0.83781">
        <ele>727.6</ele>
      </trkpt>
      <trkpt lat="42.22471" lon="-0.83786">
        <ele>727.3</ele>
      </trkpt>
      <trkpt lat="42.22467" lon="-0.8379">
        <ele>727.3</ele>
      </trkpt>
      <trkpt lat="42.22445" lon="-0.83797">
        <ele>729.4</ele>
      </trkpt>
      <trkpt lat="42.22396" lon="-0.83819">
        <ele>731.3</ele>
      </trkpt>
      <trkpt lat="42.22385" lon="-0.83828">
        <ele>730.9</ele>
      </trkpt>
      <trkpt lat="42.22348" lon="-0.83843">
        <ele>732.1</ele>
      </trkpt>
      <trkpt lat="42.2232" lon="-0.83843">
        <ele>730.9</ele>
      </trkpt>
      <trkpt lat="42.22315" lon="-0.83837">
        <ele>730.2</ele>
      </trkpt>
      <trkpt lat="42.2231" lon="-0.83852">
        <ele>729.5</ele>
      </trkpt>
      <trkpt lat="42.22304" lon="-0.83874">
        <ele>729</ele>
      </trkpt>
      <trkpt lat="42.22296" lon="-0.83891">
        <ele>728.3</ele>
      </trkpt>
      <trkpt lat="42.22289" lon="-0.839">
        <ele>727.8</ele>
      </trkpt>
      <trkpt lat="42.22259" lon="-0.83922">
        <ele>726.3</ele>
      </trkpt>
      <trkpt lat="42.22244" lon="-0.8394">
        <ele>726.8</ele>
      </trkpt>
      <trkpt lat="42.22229" lon="-0.83964">
        <ele>727.2</ele>
      </trkpt>
      <trkpt lat="42.22199" lon="-0.83995">
        <ele>725.8</ele>
      </trkpt>
      <trkpt lat="42.22186" lon="-0.84018">
        <ele>725.1</ele>
      </trkpt>
      <trkpt lat="42.22179" lon="-0.84023">
        <ele>724.4</ele>
      </trkpt>
      <trkpt lat="42.2214" lon="-0.84036">
        <ele>722.8</ele>
      </trkpt>
      <trkpt lat="42.22096" lon="-0.84059">
        <ele>723.9</ele>
      </trkpt>
      <trkpt lat="42.22089" lon="-0.84065">
        <ele>724.5</ele>
      </trkpt>
      <trkpt lat="42.22054" lon="-0.84113">
        <ele>727.4</ele>
      </trkpt>
      <trkpt lat="42.21981" lon="-0.8417">
        <ele>728.2</ele>
      </trkpt>
      <trkpt lat="42.21942" lon="-0.84234">
        <ele>761.16</ele>
        <time>2021-08-03T15:50:02Z</time>
      </trkpt>
      <trkpt lat="42.2194" lon="-0.84277">
        <ele>758.97</ele>
        <time>2021-08-03T15:50:06Z</time>
      </trkpt>
      <trkpt lat="42.21917" lon="-0.84336">
        <ele>756.49</ele>
        <time>2021-08-03T15:50:13Z</time>
      </trkpt>
      <trkpt lat="42.21851" lon="-0.84398">
        <ele>754.39</ele>
        <time>2021-08-03T15:50:20Z</time>
      </trkpt>
      <trkpt lat="42.21849" lon="-0.84461">
        <ele>750.75</ele>
        <time>2021-08-03T15:50:26Z</time>
      </trkpt>
      <trkpt lat="42.21877" lon="-0.84509">
        <ele>748.1</ele>
        <time>2021-08-03T15:50:32Z</time>
      </trkpt>
      <trkpt lat="42.2187" lon="-0.84572">
        <ele>745.37</ele>
        <time>2021-08-03T15:50:38Z</time>
      </trkpt>
      <trkpt lat="42.21826" lon="-0.84575">
        <ele>741.61</ele>
        <time>2021-08-03T15:50:43Z</time>
      </trkpt>
      <trkpt lat="42.21789" lon="-0.84547">
        <ele>738.48</ele>
        <time>2021-08-03T15:50:47Z</time>
      </trkpt>
      <trkpt lat="42.21772" lon="-0.84472">
        <ele>735.3</ele>
        <time>2021-08-03T15:50:52Z</time>
      </trkpt>
      <trkpt lat="42.21734" lon="-0.84422">
        <ele>732.63</ele>
        <time>2021-08-03T15:50:57Z</time>
      </trkpt>
      <trkpt lat="42.21706" lon="-0.84413">
        <ele>729.59</ele>
        <time>2021-08-03T15:51:01Z</time>
      </trkpt>
      <trkpt lat="42.2169" lon="-0.84418">
        <ele>727.81</ele>
        <time>2021-08-03T15:51:03Z</time>
      </trkpt>
      <trkpt lat="42.21637" lon="-0.84437">
        <ele>723.63</ele>
        <time>2021-08-03T15:51:09Z</time>
      </trkpt>
      <trkpt lat="42.21568" lon="-0.84465">
        <ele>721.7</ele>
        <time>2021-08-03T15:51:17Z</time>
      </trkpt>
      <trkpt lat="42.2153" lon="-0.8449">
        <ele>721.67</ele>
        <time>2021-08-03T15:51:21Z</time>
      </trkpt>
      <trkpt lat="42.21512" lon="-0.84512">
        <ele>721.68</ele>
        <time>2021-08-03T15:51:25Z</time>
      </trkpt>
      <trkpt lat="42.21504" lon="-0.84529">
        <ele>721.72</ele>
        <time>2021-08-03T15:51:27Z</time>
      </trkpt>
      <trkpt lat="42.21478" lon="-0.84549">
        <ele>722.31</ele>
        <time>2021-08-03T15:51:32Z</time>
      </trkpt>
      <trkpt lat="42.21464" lon="-0.84553">
        <ele>723</ele>
        <time>2021-08-03T15:51:34Z</time>
      </trkpt>
      <trkpt lat="42.21446" lon="-0.84615">
        <ele>725</ele>
        <time>2021-08-03T15:51:41Z</time>
      </trkpt>
      <trkpt lat="42.21451" lon="-0.84638">
        <ele>725.39</ele>
        <time>2021-08-03T15:51:43Z</time>
      </trkpt>
      <trkpt lat="42.21465" lon="-0.84705">
        <ele>726.44</ele>
        <time>2021-08-03T15:51:49Z</time>
      </trkpt>
      <trkpt lat="42.21449" lon="-0.84787">
        <ele>727.89</ele>
        <time>2021-08-03T15:51:56Z</time>
      </trkpt>
      <trkpt lat="42.21399" lon="-0.84796">
        <ele>729.3</ele>
        <time>2021-08-03T15:52:01Z</time>
      </trkpt>
      <trkpt lat="42.21331" lon="-0.84768">
        <ele>730.8</ele>
        <time>2021-08-03T15:52:06Z</time>
      </trkpt>
      <trkpt lat="42.21266" lon="-0.84757">
        <ele>731.43</ele>
        <time>2021-08-03T15:52:11Z</time>
      </trkpt>
      <trkpt lat="42.21202" lon="-0.84731">
        <ele>732.89</ele>
        <time>2021-08-03T15:52:17Z</time>
      </trkpt>
      <trkpt lat="42.2112" lon="-0.84701">
        <ele>733.71</ele>
        <time>2021-08-03T15:52:24Z</time>
      </trkpt>
      <trkpt lat="42.21084" lon="-0.84715">
        <ele>733.01</ele>
        <time>2021-08-03T15:52:28Z</time>
      </trkpt>
      <trkpt lat="42.21032" lon="-0.84783">
        <ele>729.77</ele>
        <time>2021-08-03T15:52:37Z</time>
      </trkpt>
      <trkpt lat="42.21036" lon="-0.84829">
        <ele>728.7</ele>
        <time>2021-08-03T15:52:40Z</time>
      </trkpt>
      <trkpt lat="42.21001" lon="-0.84923">
        <ele>726.16</ele>
        <time>2021-08-03T15:52:48Z</time>
      </trkpt>
      <trkpt lat="42.20973" lon="-0.84956">
        <ele>725.03</ele>
        <time>2021-08-03T15:52:52Z</time>
      </trkpt>
      <trkpt lat="42.2096" lon="-0.84987">
        <ele>723.72</ele>
        <time>2021-08-03T15:52:56Z</time>
      </trkpt>
      <trkpt lat="42.20956" lon="-0.85003">
        <ele>723.05</ele>
        <time>2021-08-03T15:52:58Z</time>
      </trkpt>
      <trkpt lat="42.20943" lon="-0.85031">
        <ele>721.7</ele>
        <time>2021-08-03T15:53:01Z</time>
      </trkpt>
      <trkpt lat="42.20877" lon="-0.85099">
        <ele>719.01</ele>
        <time>2021-08-03T15:53:08Z</time>
      </trkpt>
      <trkpt lat="42.20843" lon="-0.85173">
        <ele>718.26</ele>
        <time>2021-08-03T15:53:13Z</time>
      </trkpt>
      <trkpt lat="42.20788" lon="-0.85247">
        <ele>716.67</ele>
        <time>2021-08-03T15:53:20Z</time>
      </trkpt>
      <trkpt lat="42.20767" lon="-0.8528">
        <ele>716.48</ele>
        <time>2021-08-03T15:53:23Z</time>
      </trkpt>
      <trkpt lat="42.20755" lon="-0.85293">
        <ele>715.59</ele>
        <time>2021-08-03T15:53:27Z</time>
      </trkpt>
      <trkpt lat="42.20743" lon="-0.85316">
        <ele>714.32</ele>
        <time>2021-08-03T15:53:31Z</time>
      </trkpt>
      <trkpt lat="42.20725" lon="-0.85348">
        <ele>712.76</ele>
        <time>2021-08-03T15:53:36Z</time>
      </trkpt>
      <trkpt lat="42.20693" lon="-0.85381">
        <ele>710.71</ele>
        <time>2021-08-03T15:53:41Z</time>
      </trkpt>
      <trkpt lat="42.20681" lon="-0.85417">
        <ele>709.47</ele>
        <time>2021-08-03T15:53:45Z</time>
      </trkpt>
      <trkpt lat="42.20678" lon="-0.85541">
        <ele>708.73</ele>
        <time>2021-08-03T15:53:55Z</time>
      </trkpt>
      <trkpt lat="42.20699" lon="-0.85641">
        <ele>709.16</ele>
        <time>2021-08-03T15:54:02Z</time>
      </trkpt>
      <trkpt lat="42.20682" lon="-0.85695">
        <ele>709.28</ele>
        <time>2021-08-03T15:54:10Z</time>
      </trkpt>
      <trkpt lat="42.20666" lon="-0.8571">
        <ele>709.19</ele>
        <time>2021-08-03T15:54:13Z</time>
      </trkpt>
      <trkpt lat="42.20601" lon="-0.85745">
        <ele>708.51</ele>
        <time>2021-08-03T15:54:23Z</time>
      </trkpt>
      <trkpt lat="42.20588" lon="-0.85754">
        <ele>708.22</ele>
        <time>2021-08-03T15:54:25Z</time>
      </trkpt>
      <trkpt lat="42.20556" lon="-0.85808">
        <ele>707.25</ele>
        <time>2021-08-03T15:54:32Z</time>
      </trkpt>
      <trkpt lat="42.20547" lon="-0.85823">
        <ele>706.91</ele>
        <time>2021-08-03T15:54:34Z</time>
      </trkpt>
      <trkpt lat="42.20485" lon="-0.8588">
        <ele>706.6</ele>
        <time>2021-08-03T15:54:44Z</time>
      </trkpt>
      <trkpt lat="42.20478" lon="-0.85887">
        <ele>706.47</ele>
        <time>2021-08-03T15:54:45Z</time>
      </trkpt>
      <trkpt lat="42.20449" lon="-0.85877">
        <ele>704.21</ele>
        <time>2021-08-03T15:54:51Z</time>
      </trkpt>
      <trkpt lat="42.20429" lon="-0.85861">
        <ele>701.69</ele>
        <time>2021-08-03T15:54:56Z</time>
      </trkpt>
      <trkpt lat="42.20417" lon="-0.8585">
        <ele>699.6</ele>
        <time>2021-08-03T15:55:00Z</time>
      </trkpt>
      <trkpt lat="42.20364" lon="-0.85819">
        <ele>695.62</ele>
        <time>2021-08-03T15:55:07Z</time>
      </trkpt>
      <trkpt lat="42.20321" lon="-0.85791">
        <ele>692.01</ele>
        <time>2021-08-03T15:55:12Z</time>
      </trkpt>
      <trkpt lat="42.20305" lon="-0.85779">
        <ele>690.66</ele>
        <time>2021-08-03T15:55:14Z</time>
      </trkpt>
      <trkpt lat="42.20255" lon="-0.85786">
        <ele>687.69</ele>
        <time>2021-08-03T15:55:21Z</time>
      </trkpt>
      <trkpt lat="42.20246" lon="-0.85809">
        <ele>685.61</ele>
        <time>2021-08-03T15:55:26Z</time>
      </trkpt>
      <trkpt lat="42.20228" lon="-0.8584">
        <ele>684.05</ele>
        <time>2021-08-03T15:55:30Z</time>
      </trkpt>
      <trkpt lat="42.20209" lon="-0.85864">
        <ele>682.46</ele>
        <time>2021-08-03T15:55:33Z</time>
      </trkpt>
      <trkpt lat="42.20185" lon="-0.85868">
        <ele>680.83</ele>
        <time>2021-08-03T15:55:37Z</time>
      </trkpt>
      <trkpt lat="42.20163" lon="-0.85865">
        <ele>678.64</ele>
        <time>2021-08-03T15:55:42Z</time>
      </trkpt>
      <trkpt lat="42.20141" lon="-0.85877">
        <ele>676.96</ele>
        <time>2021-08-03T15:55:46Z</time>
      </trkpt>
      <trkpt lat="42.20112" lon="-0.85925">
        <ele>674.9</ele>
        <time>2021-08-03T15:55:52Z</time>
      </trkpt>
      <trkpt lat="42.20094" lon="-0.85941">
        <ele>673.84</ele>
        <time>2021-08-03T15:55:56Z</time>
      </trkpt>
      <trkpt lat="42.20084" lon="-0.8597">
        <ele>672.55</ele>
        <time>2021-08-03T15:56:02Z</time>
      </trkpt>
      <trkpt lat="42.20122" lon="-0.86007">
        <ele>671.78</ele>
        <time>2021-08-03T15:56:07Z</time>
      </trkpt>
      <trkpt lat="42.20132" lon="-0.8607">
        <ele>669.58</ele>
        <time>2021-08-03T15:56:13Z</time>
      </trkpt>
      <trkpt lat="42.20125" lon="-0.86082">
        <ele>669.06</ele>
        <time>2021-08-03T15:56:14Z</time>
      </trkpt>
      <trkpt lat="42.20107" lon="-0.86112">
        <ele>667.55</ele>
        <time>2021-08-03T15:56:17Z</time>
      </trkpt>
      <trkpt lat="42.20049" lon="-0.86156">
        <ele>664.47</ele>
        <time>2021-08-03T15:56:23Z</time>
      </trkpt>
      <trkpt lat="42.20032" lon="-0.86173">
        <ele>663.42</ele>
        <time>2021-08-03T15:56:25Z</time>
      </trkpt>
      <trkpt lat="42.19992" lon="-0.86193">
        <ele>659.78</ele>
        <time>2021-08-03T15:56:31Z</time>
      </trkpt>
      <trkpt lat="42.19994" lon="-0.86213">
        <ele>658.24</ele>
        <time>2021-08-03T15:56:34Z</time>
      </trkpt>
      <trkpt lat="42.20011" lon="-0.86258">
        <ele>656</ele>
        <time>2021-08-03T15:56:41Z</time>
      </trkpt>
      <trkpt lat="42.20043" lon="-0.86321">
        <ele>654.19</ele>
        <time>2021-08-03T15:56:46Z</time>
      </trkpt>
      <trkpt lat="42.20063" lon="-0.86384">
        <ele>652</ele>
        <time>2021-08-03T15:56:51Z</time>
      </trkpt>
      <trkpt lat="42.20045" lon="-0.86444">
        <ele>650.33</ele>
        <time>2021-08-03T15:56:57Z</time>
      </trkpt>
      <trkpt lat="42.20042" lon="-0.86456">
        <ele>650.11</ele>
        <time>2021-08-03T15:56:58Z</time>
      </trkpt>
      <trkpt lat="42.20034" lon="-0.86497">
        <ele>649.2</ele>
        <time>2021-08-03T15:57:01Z</time>
      </trkpt>
      <trkpt lat="42.20045" lon="-0.86571">
        <ele>646.87</ele>
        <time>2021-08-03T15:57:07Z</time>
      </trkpt>
      <trkpt lat="42.20034" lon="-0.8664">
        <ele>643.78</ele>
        <time>2021-08-03T15:57:14Z</time>
      </trkpt>
      <trkpt lat="42.20021" lon="-0.86645">
        <ele>642.66</ele>
        <time>2021-08-03T15:57:16Z</time>
      </trkpt>
      <trkpt lat="42.19944" lon="-0.86661">
        <ele>639.98</ele>
        <time>2021-08-03T15:57:24Z</time>
      </trkpt>
      <trkpt lat="42.19922" lon="-0.86719">
        <ele>637.98</ele>
        <time>2021-08-03T15:57:31Z</time>
      </trkpt>
      <trkpt lat="42.19931" lon="-0.86728">
        <ele>637.75</ele>
        <time>2021-08-03T15:57:32Z</time>
      </trkpt>
      <trkpt lat="42.20009" lon="-0.86824">
        <ele>635.91</ele>
        <time>2021-08-03T15:57:41Z</time>
      </trkpt>
      <trkpt lat="42.20029" lon="-0.86844">
        <ele>635.26</ele>
        <time>2021-08-03T15:57:43Z</time>
      </trkpt>
      <trkpt lat="42.20062" lon="-0.86863">
        <ele>633.88</ele>
        <time>2021-08-03T15:57:46Z</time>
      </trkpt>
      <trkpt lat="42.20121" lon="-0.86916">
        <ele>630.21</ele>
        <time>2021-08-03T15:57:53Z</time>
      </trkpt>
      <trkpt lat="42.20163" lon="-0.86994">
        <ele>626.63</ele>
        <time>2021-08-03T15:58:00Z</time>
      </trkpt>
      <trkpt lat="42.20181" lon="-0.87033">
        <ele>624.75</ele>
        <time>2021-08-03T15:58:03Z</time>
      </trkpt>
      <trkpt lat="42.20189" lon="-0.87105">
        <ele>620.71</ele>
        <time>2021-08-03T15:58:08Z</time>
      </trkpt>
      <trkpt lat="42.20202" lon="-0.87141">
        <ele>618.33</ele>
        <time>2021-08-03T15:58:11Z</time>
      </trkpt>
      <trkpt lat="42.20245" lon="-0.87218">
        <ele>614.47</ele>
        <time>2021-08-03T15:58:17Z</time>
      </trkpt>
      <trkpt lat="42.20269" lon="-0.87252">
        <ele>612.8</ele>
        <time>2021-08-03T15:58:20Z</time>
      </trkpt>
      <trkpt lat="42.20296" lon="-0.87282">
        <ele>611.22</ele>
        <time>2021-08-03T15:58:23Z</time>
      </trkpt>
      <trkpt lat="42.20304" lon="-0.87342">
        <ele>608.84</ele>
        <time>2021-08-03T15:58:28Z</time>
      </trkpt>
      <trkpt lat="42.20301" lon="-0.87388">
        <ele>607.29</ele>
        <time>2021-08-03T15:58:31Z</time>
      </trkpt>
      <trkpt lat="42.20329" lon="-0.87456">
        <ele>603.93</ele>
        <time>2021-08-03T15:58:36Z</time>
      </trkpt>
      <trkpt lat="42.20379" lon="-0.87503">
        <ele>600.38</ele>
        <time>2021-08-03T15:58:41Z</time>
      </trkpt>
      <trkpt lat="42.20405" lon="-0.87562">
        <ele>597.37</ele>
        <time>2021-08-03T15:58:46Z</time>
      </trkpt>
      <trkpt lat="42.20419" lon="-0.87608">
        <ele>595.26</ele>
        <time>2021-08-03T15:58:51Z</time>
      </trkpt>
      <trkpt lat="42.20422" lon="-0.87664">
        <ele>593.37</ele>
        <time>2021-08-03T15:58:56Z</time>
      </trkpt>
      <trkpt lat="42.20446" lon="-0.8773">
        <ele>592.34</ele>
        <time>2021-08-03T15:59:01Z</time>
      </trkpt>
      <trkpt lat="42.20484" lon="-0.8779">
        <ele>591.3</ele>
        <time>2021-08-03T15:59:06Z</time>
      </trkpt>
      <trkpt lat="42.20502" lon="-0.87863">
        <ele>589.56</ele>
        <time>2021-08-03T15:59:12Z</time>
      </trkpt>
      <trkpt lat="42.20505" lon="-0.87997">
        <ele>588.31</ele>
        <time>2021-08-03T15:59:21Z</time>
      </trkpt>
      <trkpt lat="42.20522" lon="-0.88133">
        <ele>586.76</ele>
        <time>2021-08-03T15:59:29Z</time>
      </trkpt>
      <trkpt lat="42.20539" lon="-0.8823">
        <ele>585.86</ele>
        <time>2021-08-03T15:59:34Z</time>
      </trkpt>
      <trkpt lat="42.20563" lon="-0.88322">
        <ele>584.38</ele>
        <time>2021-08-03T15:59:40Z</time>
      </trkpt>
      <trkpt lat="42.20545" lon="-0.88372">
        <ele>583.35</ele>
        <time>2021-08-03T15:59:44Z</time>
      </trkpt>
      <trkpt lat="42.20543" lon="-0.88422">
        <ele>582.15</ele>
        <time>2021-08-03T15:59:49Z</time>
      </trkpt>
      <trkpt lat="42.20568" lon="-0.88474">
        <ele>581.75</ele>
        <time>2021-08-03T15:59:56Z</time>
      </trkpt>
      <trkpt lat="42.20568" lon="-0.88479">
        <ele>581.26</ele>
        <time>2021-08-03T16:00:03Z</time>
      </trkpt>
      <trkpt lat="42.20568" lon="-0.88486">
        <ele>580.75</ele>
        <time>2021-08-03T16:00:13Z</time>
      </trkpt>
      <trkpt lat="42.20573" lon="-0.88561">
        <ele>580.88</ele>
        <time>2021-08-03T16:00:19Z</time>
      </trkpt>
      <trkpt lat="42.20555" lon="-0.88716">
        <ele>581.65</ele>
        <time>2021-08-03T16:00:26Z</time>
      </trkpt>
      <trkpt lat="42.2056" lon="-0.88906">
        <ele>581.59</ele>
        <time>2021-08-03T16:00:33Z</time>
      </trkpt>
      <trkpt lat="42.20572" lon="-0.89011">
        <ele>581.21</ele>
        <time>2021-08-03T16:00:37Z</time>
      </trkpt>
      <trkpt lat="42.20625" lon="-0.89094">
        <ele>579.58</ele>
        <time>2021-08-03T16:00:43Z</time>
      </trkpt>
      <trkpt lat="42.20678" lon="-0.89148">
        <ele>579.77</ele>
        <time>2021-08-03T16:00:48Z</time>
      </trkpt>
      <trkpt lat="42.20701" lon="-0.89158">
        <ele>580.05</ele>
        <time>2021-08-03T16:00:50Z</time>
      </trkpt>
      <trkpt lat="42.20728" lon="-0.89166">
        <ele>580.19</ele>
        <time>2021-08-03T16:00:52Z</time>
      </trkpt>
      <trkpt lat="42.20759" lon="-0.89215">
        <ele>579.38</ele>
        <time>2021-08-03T16:00:57Z</time>
      </trkpt>
      <trkpt lat="42.20746" lon="-0.89308">
        <ele>577.21</ele>
        <time>2021-08-03T16:01:02Z</time>
      </trkpt>
      <trkpt lat="42.20668" lon="-0.89472">
        <ele>577.47</ele>
        <time>2021-08-03T16:01:11Z</time>
      </trkpt>
      <trkpt lat="42.20658" lon="-0.89489">
        <ele>577.57</ele>
        <time>2021-08-03T16:01:12Z</time>
      </trkpt>
      <trkpt lat="42.2061" lon="-0.89536">
        <ele>577.56</ele>
        <time>2021-08-03T16:01:16Z</time>
      </trkpt>
      <trkpt lat="42.20578" lon="-0.89643">
        <ele>575.51</ele>
        <time>2021-08-03T16:01:22Z</time>
      </trkpt>
      <trkpt lat="42.20583" lon="-0.89688">
        <ele>573.26</ele>
        <time>2021-08-03T16:01:27Z</time>
      </trkpt>
      <trkpt lat="42.20583" lon="-0.89704">
        <ele>570.97</ele>
        <time>2021-08-03T16:01:32Z</time>
      </trkpt>
      <trkpt lat="42.20576" lon="-0.898">
        <ele>570.27</ele>
        <time>2021-08-03T16:01:38Z</time>
      </trkpt>
      <trkpt lat="42.2053" lon="-0.89901">
        <ele>570.05</ele>
        <time>2021-08-03T16:01:44Z</time>
      </trkpt>
      <trkpt lat="42.20522" lon="-0.89957">
        <ele>569.25</ele>
        <time>2021-08-03T16:01:48Z</time>
      </trkpt>
      <trkpt lat="42.20533" lon="-0.90084">
        <ele>567.54</ele>
        <time>2021-08-03T16:01:55Z</time>
      </trkpt>
      <trkpt lat="42.20544" lon="-0.90123">
        <ele>566.99</ele>
        <time>2021-08-03T16:01:57Z</time>
      </trkpt>
      <trkpt lat="42.20544" lon="-0.90197">
        <ele>565.63</ele>
        <time>2021-08-03T16:02:01Z</time>
      </trkpt>
      <trkpt lat="42.20546" lon="-0.90252">
        <ele>564.74</ele>
        <time>2021-08-03T16:02:04Z</time>
      </trkpt>
      <trkpt lat="42.20507" lon="-0.90343">
        <ele>564.54</ele>
        <time>2021-08-03T16:02:10Z</time>
      </trkpt>
      <trkpt lat="42.20469" lon="-0.90453">
        <ele>566.63</ele>
        <time>2021-08-03T16:02:17Z</time>
      </trkpt>
      <trkpt lat="42.20498" lon="-0.90535">
        <ele>567.48</ele>
        <time>2021-08-03T16:02:22Z</time>
      </trkpt>
      <trkpt lat="42.20506" lon="-0.90568">
        <ele>567.51</ele>
        <time>2021-08-03T16:02:24Z</time>
      </trkpt>
      <trkpt lat="42.20527" lon="-0.90654">
        <ele>564.76</ele>
        <time>2021-08-03T16:02:31Z</time>
      </trkpt>
      <trkpt lat="42.20506" lon="-0.90663">
        <ele>563.68</ele>
        <time>2021-08-03T16:02:33Z</time>
      </trkpt>
      <trkpt lat="42.20485" lon="-0.90674">
        <ele>562.78</ele>
        <time>2021-08-03T16:02:35Z</time>
      </trkpt>
      <trkpt lat="42.20442" lon="-0.9075">
        <ele>561.81</ele>
        <time>2021-08-03T16:02:41Z</time>
      </trkpt>
      <trkpt lat="42.2044" lon="-0.90789">
        <ele>561.89</ele>
        <time>2021-08-03T16:02:43Z</time>
      </trkpt>
      <trkpt lat="42.20422" lon="-0.90872">
        <ele>562.44</ele>
        <time>2021-08-03T16:02:48Z</time>
      </trkpt>
      <trkpt lat="42.20396" lon="-0.90921">
        <ele>563.29</ele>
        <time>2021-08-03T16:02:51Z</time>
      </trkpt>
      <trkpt lat="42.2034" lon="-0.90998">
        <ele>562.77</ele>
        <time>2021-08-03T16:02:58Z</time>
      </trkpt>
      <trkpt lat="42.20275" lon="-0.90996">
        <ele>561.58</ele>
        <time>2021-08-03T16:03:02Z</time>
      </trkpt>
      <trkpt lat="42.20219" lon="-0.90989">
        <ele>560.21</ele>
        <time>2021-08-03T16:03:05Z</time>
      </trkpt>
      <trkpt lat="42.20144" lon="-0.90994">
        <ele>558.24</ele>
        <time>2021-08-03T16:03:09Z</time>
      </trkpt>
      <trkpt lat="42.20086" lon="-0.90983">
        <ele>555.75</ele>
        <time>2021-08-03T16:03:12Z</time>
      </trkpt>
      <trkpt lat="42.20032" lon="-0.90998">
        <ele>551.27</ele>
        <time>2021-08-03T16:03:16Z</time>
      </trkpt>
      <trkpt lat="42.20026" lon="-0.91009">
        <ele>549.92</ele>
        <time>2021-08-03T16:03:17Z</time>
      </trkpt>
      <trkpt lat="42.19998" lon="-0.91001">
        <ele>543.55</ele>
        <time>2021-08-03T16:03:23Z</time>
      </trkpt>
      <trkpt lat="42.1999" lon="-0.91006">
        <ele>540.49</ele>
        <time>2021-08-03T16:03:28Z</time>
      </trkpt>
      <trkpt lat="42.19996" lon="-0.90996">
        <ele>539.05</ele>
        <time>2021-08-03T16:03:33Z</time>
      </trkpt>
      <trkpt lat="42.2" lon="-0.91008">
        <ele>538.54</ele>
        <time>2021-08-03T16:03:38Z</time>
      </trkpt>
      <trkpt lat="42.19993" lon="-0.90997">
        <ele>538.31</ele>
        <time>2021-08-03T16:03:43Z</time>
      </trkpt>
      <trkpt lat="42.19992" lon="-0.90997">
        <ele>538.41</ele>
        <time>2021-08-03T16:03:58Z</time>
      </trkpt>
      <trkpt lat="42.19992" lon="-0.90997">
        <ele>538.73</ele>
        <time>2021-08-03T16:04:19Z</time>
      </trkpt>
      <trkpt lat="42.19966" lon="-0.9099">
        <ele>539.28</ele>
        <time>2021-08-03T16:13:10Z</time>
      </trkpt>
      <trkpt lat="42.19985" lon="-0.90993">
        <ele>539.28</ele>
        <time>2021-08-03T16:13:51Z</time>
      </trkpt>
      <trkpt lat="42.19982" lon="-0.90993">
        <ele>539.28</ele>
        <time>2021-08-03T16:16:26Z</time>
      </trkpt>
      <trkpt lat="42.19982" lon="-0.90993">
        <ele>539.28</ele>
        <time>2021-08-03T16:18:18Z</time>
      </trkpt>
      <trkpt lat="42.19981" lon="-0.90992">
        <ele>539.28</ele>
        <time>2021-08-03T16:21:59Z</time>
      </trkpt>
      <trkpt lat="42.19982" lon="-0.90992">
        <ele>539.28</ele>
        <time>2021-08-03T16:26:35Z</time>
      </trkpt>
      <trkpt lat="42.19982" lon="-0.90992">
        <ele>539.28</ele>
        <time>2021-08-03T16:30:08Z</time>
      </trkpt>
      <trkpt lat="42.19982" lon="-0.90991">
        <ele>539.28</ele>
        <time>2021-08-03T16:34:13Z</time>
      </trkpt>
      <trkpt lat="42.19985" lon="-0.90991">
        <ele>539.28</ele>
        <time>2021-08-03T16:35:31Z</time>
      </trkpt>
      <trkpt lat="42.19988" lon="-0.9099">
        <ele>539.35</ele>
        <time>2021-08-03T16:35:37Z</time>
      </trkpt>
      <trkpt lat="42.20009" lon="-0.9101">
        <ele>539.45</ele>
        <time>2021-08-03T16:35:46Z</time>
      </trkpt>
      <trkpt lat="42.20009" lon="-0.91013">
        <ele>539.68</ele>
        <time>2021-08-03T16:35:58Z</time>
      </trkpt>
      <trkpt lat="42.2002" lon="-0.91035">
        <ele>539.9</ele>
        <time>2021-08-03T16:36:10Z</time>
      </trkpt>
      <trkpt lat="42.20023" lon="-0.91052">
        <ele>540.03</ele>
        <time>2021-08-03T16:36:20Z</time>
      </trkpt>
      <trkpt lat="42.20024" lon="-0.91052">
        <ele>539.87</ele>
        <time>2021-08-03T16:36:41Z</time>
      </trkpt>
      <trkpt lat="42.2003" lon="-0.91091">
        <ele>539.85</ele>
        <time>2021-08-03T16:36:47Z</time>
      </trkpt>
      <trkpt lat="42.20035" lon="-0.91103">
        <ele>539.87</ele>
        <time>2021-08-03T16:36:48Z</time>
      </trkpt>
      <trkpt lat="42.2004" lon="-0.91185">
        <ele>541.38</ele>
        <time>2021-08-03T16:36:55Z</time>
      </trkpt>
      <trkpt lat="42.20026" lon="-0.91197">
        <ele>542.76</ele>
        <time>2021-08-03T16:36:58Z</time>
      </trkpt>
      <trkpt lat="42.19931" lon="-0.91247">
        <ele>545.59</ele>
        <time>2021-08-03T16:37:06Z</time>
      </trkpt>
      <trkpt lat="42.19906" lon="-0.91267">
        <ele>546.14</ele>
        <time>2021-08-03T16:37:08Z</time>
      </trkpt>
      <trkpt lat="42.19853" lon="-0.91333">
        <ele>546.73</ele>
        <time>2021-08-03T16:37:13Z</time>
      </trkpt>
      <trkpt lat="42.19807" lon="-0.91376">
        <ele>546.41</ele>
        <time>2021-08-03T16:37:17Z</time>
      </trkpt>
      <trkpt lat="42.19784" lon="-0.91421">
        <ele>545.76</ele>
        <time>2021-08-03T16:37:21Z</time>
      </trkpt>
      <trkpt lat="42.19754" lon="-0.91462">
        <ele>545.02</ele>
        <time>2021-08-03T16:37:25Z</time>
      </trkpt>
      <trkpt lat="42.19657" lon="-0.91556">
        <ele>541.43</ele>
        <time>2021-08-03T16:37:36Z</time>
      </trkpt>
      <trkpt lat="42.19571" lon="-0.91651">
        <ele>540.16</ele>
        <time>2021-08-03T16:37:46Z</time>
      </trkpt>
      <trkpt lat="42.19559" lon="-0.91661">
        <ele>540.62</ele>
        <time>2021-08-03T16:37:51Z</time>
      </trkpt>
      <trkpt lat="42.1956" lon="-0.9166">
        <ele>540.89</ele>
        <time>2021-08-03T16:38:02Z</time>
      </trkpt>
      <trkpt lat="42.19576" lon="-0.91647">
        <ele>540.54</ele>
        <time>2021-08-03T16:38:14Z</time>
      </trkpt>
      <trkpt lat="42.19578" lon="-0.91646">
        <ele>540.35</ele>
        <time>2021-08-03T16:38:20Z</time>
      </trkpt>
      <trkpt lat="42.19556" lon="-0.91666">
        <ele>540.62</ele>
        <time>2021-08-03T16:38:32Z</time>
      </trkpt>
      <trkpt lat="42.19538" lon="-0.91679">
        <ele>541.07</ele>
        <time>2021-08-03T16:38:49Z</time>
      </trkpt>
      <trkpt lat="42.19497" lon="-0.91691">
        <ele>541.29</ele>
        <time>2021-08-03T16:38:58Z</time>
      </trkpt>
      <trkpt lat="42.19462" lon="-0.91695">
        <ele>541.65</ele>
        <time>2021-08-03T16:39:01Z</time>
      </trkpt>
      <trkpt lat="42.19328" lon="-0.91662">
        <ele>542.61</ele>
        <time>2021-08-03T16:39:09Z</time>
      </trkpt>
      <trkpt lat="42.1931" lon="-0.91656">
        <ele>542.61</ele>
        <time>2021-08-03T16:39:10Z</time>
      </trkpt>
      <trkpt lat="42.19239" lon="-0.91635">
        <ele>541.41</ele>
        <time>2021-08-03T16:39:14Z</time>
      </trkpt>
      <trkpt lat="42.19195" lon="-0.91607">
        <ele>539.78</ele>
        <time>2021-08-03T16:39:17Z</time>
      </trkpt>
      <trkpt lat="42.19121" lon="-0.91585">
        <ele>537.04</ele>
        <time>2021-08-03T16:39:22Z</time>
      </trkpt>
      <trkpt lat="42.19037" lon="-0.91613">
        <ele>535.01</ele>
        <time>2021-08-03T16:39:28Z</time>
      </trkpt>
      <trkpt lat="42.19008" lon="-0.91634">
        <ele>534.74</ele>
        <time>2021-08-03T16:39:30Z</time>
      </trkpt>
      <trkpt lat="42.18981" lon="-0.9166">
        <ele>534.54</ele>
        <time>2021-08-03T16:39:32Z</time>
      </trkpt>
      <trkpt lat="42.18937" lon="-0.91689">
        <ele>534.31</ele>
        <time>2021-08-03T16:39:35Z</time>
      </trkpt>
      <trkpt lat="42.18879" lon="-0.91792">
        <ele>532.96</ele>
        <time>2021-08-03T16:39:41Z</time>
      </trkpt>
      <trkpt lat="42.18839" lon="-0.91914">
        <ele>532.09</ele>
        <time>2021-08-03T16:39:46Z</time>
      </trkpt>
      <trkpt lat="42.18812" lon="-0.92021">
        <ele>531.83</ele>
        <time>2021-08-03T16:39:50Z</time>
      </trkpt>
      <trkpt lat="42.18781" lon="-0.92082">
        <ele>531.42</ele>
        <time>2021-08-03T16:39:53Z</time>
      </trkpt>
      <trkpt lat="42.18725" lon="-0.92101">
        <ele>530.32</ele>
        <time>2021-08-03T16:39:57Z</time>
      </trkpt>
      <trkpt lat="42.18692" lon="-0.9209">
        <ele>530.2</ele>
        <time>2021-08-03T16:39:59Z</time>
      </trkpt>
      <trkpt lat="42.18642" lon="-0.92088">
        <ele>531.12</ele>
        <time>2021-08-03T16:40:03Z</time>
      </trkpt>
      <trkpt lat="42.1858" lon="-0.92083">
        <ele>532.35</ele>
        <time>2021-08-03T16:40:07Z</time>
      </trkpt>
      <trkpt lat="42.18469" lon="-0.92117">
        <ele>534.54</ele>
        <time>2021-08-03T16:40:14Z</time>
      </trkpt>
      <trkpt lat="42.18439" lon="-0.92139">
        <ele>535.24</ele>
        <time>2021-08-03T16:40:16Z</time>
      </trkpt>
      <trkpt lat="42.18394" lon="-0.92202">
        <ele>536.13</ele>
        <time>2021-08-03T16:40:20Z</time>
      </trkpt>
      <trkpt lat="42.18343" lon="-0.92295">
        <ele>535.37</ele>
        <time>2021-08-03T16:40:27Z</time>
      </trkpt>
      <trkpt lat="42.18324" lon="-0.92346">
        <ele>533.67</ele>
        <time>2021-08-03T16:40:31Z</time>
      </trkpt>
      <trkpt lat="42.18296" lon="-0.92394">
        <ele>532.55</ele>
        <time>2021-08-03T16:40:35Z</time>
      </trkpt>
      <trkpt lat="42.18223" lon="-0.92549">
        <ele>531.4</ele>
        <time>2021-08-03T16:40:46Z</time>
      </trkpt>
      <trkpt lat="42.18186" lon="-0.92628">
        <ele>531.24</ele>
        <time>2021-08-03T16:40:51Z</time>
      </trkpt>
      <trkpt lat="42.18151" lon="-0.92674">
        <ele>531.07</ele>
        <time>2021-08-03T16:40:55Z</time>
      </trkpt>
      <trkpt lat="42.1813" lon="-0.92688">
        <ele>531</ele>
        <time>2021-08-03T16:40:57Z</time>
      </trkpt>
      <trkpt lat="42.18046" lon="-0.92795">
        <ele>530.2</ele>
        <time>2021-08-03T16:41:07Z</time>
      </trkpt>
      <trkpt lat="42.17993" lon="-0.92891">
        <ele>529.96</ele>
        <time>2021-08-03T16:41:15Z</time>
      </trkpt>
      <trkpt lat="42.17932" lon="-0.93037">
        <ele>529.42</ele>
        <time>2021-08-03T16:41:27Z</time>
      </trkpt>
      <trkpt lat="42.17898" lon="-0.93089">
        <ele>529.51</ele>
        <time>2021-08-03T16:41:31Z</time>
      </trkpt>
      <trkpt lat="42.17849" lon="-0.93147">
        <ele>529.75</ele>
        <time>2021-08-03T16:41:36Z</time>
      </trkpt>
      <trkpt lat="42.17826" lon="-0.93199">
        <ele>529.8</ele>
        <time>2021-08-03T16:41:40Z</time>
      </trkpt>
      <trkpt lat="42.17819" lon="-0.93225">
        <ele>529.8</ele>
        <time>2021-08-03T16:41:42Z</time>
      </trkpt>
      <trkpt lat="42.17795" lon="-0.93258">
        <ele>529.86</ele>
        <time>2021-08-03T16:41:46Z</time>
      </trkpt>
      <trkpt lat="42.17743" lon="-0.93298">
        <ele>530.54</ele>
        <time>2021-08-03T16:41:55Z</time>
      </trkpt>
      <trkpt lat="42.17667" lon="-0.93348">
        <ele>530.11</ele>
        <time>2021-08-03T16:42:02Z</time>
      </trkpt>
      <trkpt lat="42.17612" lon="-0.93402">
        <ele>528.28</ele>
        <time>2021-08-03T16:42:08Z</time>
      </trkpt>
      <trkpt lat="42.17578" lon="-0.93416">
        <ele>527.08</ele>
        <time>2021-08-03T16:42:12Z</time>
      </trkpt>
      <trkpt lat="42.17563" lon="-0.93418">
        <ele>526.7</ele>
        <time>2021-08-03T16:42:14Z</time>
      </trkpt>
      <trkpt lat="42.17532" lon="-0.93433">
        <ele>526.57</ele>
        <time>2021-08-03T16:42:18Z</time>
      </trkpt>
      <trkpt lat="42.17483" lon="-0.93451">
        <ele>527.88</ele>
        <time>2021-08-03T16:42:23Z</time>
      </trkpt>
      <trkpt lat="42.17452" lon="-0.93489">
        <ele>532.12</ele>
        <time>2021-08-03T16:42:28Z</time>
      </trkpt>
      <trkpt lat="42.17436" lon="-0.93513">
        <ele>534.73</ele>
        <time>2021-08-03T16:42:31Z</time>
      </trkpt>
      <trkpt lat="42.17415" lon="-0.93524">
        <ele>537.88</ele>
        <time>2021-08-03T16:42:35Z</time>
      </trkpt>
      <trkpt lat="42.17385" lon="-0.93527">
        <ele>542.06</ele>
        <time>2021-08-03T16:42:41Z</time>
      </trkpt>
      <trkpt lat="42.17352" lon="-0.93531">
        <ele>545.43</ele>
        <time>2021-08-03T16:42:46Z</time>
      </trkpt>
      <trkpt lat="42.17323" lon="-0.93529">
        <ele>548.62</ele>
        <time>2021-08-03T16:42:51Z</time>
      </trkpt>
      <trkpt lat="42.17308" lon="-0.93525">
        <ele>550.22</ele>
        <time>2021-08-03T16:42:54Z</time>
      </trkpt>
      <trkpt lat="42.17301" lon="-0.93547">
        <ele>552.39</ele>
        <time>2021-08-03T16:43:01Z</time>
      </trkpt>
      <trkpt lat="42.17309" lon="-0.9358">
        <ele>554.14</ele>
        <time>2021-08-03T16:43:20Z</time>
      </trkpt>
      <trkpt lat="42.17324" lon="-0.93657">
        <ele>555.39</ele>
        <time>2021-08-03T16:43:28Z</time>
      </trkpt>
      <trkpt lat="42.17341" lon="-0.93738">
        <ele>557.73</ele>
        <time>2021-08-03T16:43:37Z</time>
      </trkpt>
      <trkpt lat="42.17329" lon="-0.93763">
        <ele>559.67</ele>
        <time>2021-08-03T16:43:43Z</time>
      </trkpt>
      <trkpt lat="42.1726" lon="-0.93765">
        <ele>562.98</ele>
        <time>2021-08-03T16:43:52Z</time>
      </trkpt>
      <trkpt lat="42.17197" lon="-0.93755">
        <ele>566.26</ele>
        <time>2021-08-03T16:44:00Z</time>
      </trkpt>
      <trkpt lat="42.17188" lon="-0.93754">
        <ele>566.86</ele>
        <time>2021-08-03T16:44:02Z</time>
      </trkpt>
      <trkpt lat="42.17169" lon="-0.93781">
        <ele>569.36</ele>
        <time>2021-08-03T16:44:09Z</time>
      </trkpt>
      <trkpt lat="42.1717" lon="-0.93787">
        <ele>569.62</ele>
        <time>2021-08-03T16:44:10Z</time>
      </trkpt>
      <trkpt lat="42.17202" lon="-0.9382">
        <ele>571.73</ele>
        <time>2021-08-03T16:44:20Z</time>
      </trkpt>
      <trkpt lat="42.17224" lon="-0.93825">
        <ele>572.68</ele>
        <time>2021-08-03T16:44:24Z</time>
      </trkpt>
      <trkpt lat="42.17258" lon="-0.93871">
        <ele>574.94</ele>
        <time>2021-08-03T16:44:32Z</time>
      </trkpt>
      <trkpt lat="42.17248" lon="-0.93893">
        <ele>575.98</ele>
        <time>2021-08-03T16:44:35Z</time>
      </trkpt>
      <trkpt lat="42.17244" lon="-0.93957">
        <ele>578.35</ele>
        <time>2021-08-03T16:44:44Z</time>
      </trkpt>
      <trkpt lat="42.17291" lon="-0.93966">
        <ele>580.42</ele>
        <time>2021-08-03T16:44:51Z</time>
      </trkpt>
      <trkpt lat="42.17309" lon="-0.93951">
        <ele>581.2</ele>
        <time>2021-08-03T16:44:54Z</time>
      </trkpt>
      <trkpt lat="42.17342" lon="-0.93906">
        <ele>582.89</ele>
        <time>2021-08-03T16:45:00Z</time>
      </trkpt>
      <trkpt lat="42.17369" lon="-0.93884">
        <ele>584.39</ele>
        <time>2021-08-03T16:45:04Z</time>
      </trkpt>
      <trkpt lat="42.17402" lon="-0.93837">
        <ele>586.62</ele>
        <time>2021-08-03T16:45:11Z</time>
      </trkpt>
      <trkpt lat="42.17406" lon="-0.93819">
        <ele>587.07</ele>
        <time>2021-08-03T16:45:13Z</time>
      </trkpt>
      <trkpt lat="42.17411" lon="-0.93802">
        <ele>587.61</ele>
        <time>2021-08-03T16:45:15Z</time>
      </trkpt>
      <trkpt lat="42.17452" lon="-0.93776">
        <ele>590.05</ele>
        <time>2021-08-03T16:45:23Z</time>
      </trkpt>
      <trkpt lat="42.17487" lon="-0.93821">
        <ele>592.25</ele>
        <time>2021-08-03T16:45:30Z</time>
      </trkpt>
      <trkpt lat="42.1751" lon="-0.93865">
        <ele>594.53</ele>
        <time>2021-08-03T16:45:35Z</time>
      </trkpt>
      <trkpt lat="42.17572" lon="-0.93934">
        <ele>598.53</ele>
        <time>2021-08-03T16:45:44Z</time>
      </trkpt>
      <trkpt lat="42.17605" lon="-0.93974">
        <ele>601.66</ele>
        <time>2021-08-03T16:45:49Z</time>
      </trkpt>
      <trkpt lat="42.1761" lon="-0.93984">
        <ele>602.13</ele>
        <time>2021-08-03T16:45:50Z</time>
      </trkpt>
      <trkpt lat="42.17622" lon="-0.94041">
        <ele>604.72</ele>
        <time>2021-08-03T16:45:55Z</time>
      </trkpt>
      <trkpt lat="42.17628" lon="-0.94125">
        <ele>608.25</ele>
        <time>2021-08-03T16:46:03Z</time>
      </trkpt>
      <trkpt lat="42.17659" lon="-0.94162">
        <ele>610.32</ele>
        <time>2021-08-03T16:46:08Z</time>
      </trkpt>
      <trkpt lat="42.17708" lon="-0.94217">
        <ele>613.43</ele>
        <time>2021-08-03T16:46:15Z</time>
      </trkpt>
      <trkpt lat="42.17718" lon="-0.94238">
        <ele>614.33</ele>
        <time>2021-08-03T16:46:17Z</time>
      </trkpt>
      <trkpt lat="42.17729" lon="-0.94287">
        <ele>615.93</ele>
        <time>2021-08-03T16:46:21Z</time>
      </trkpt>
      <trkpt lat="42.17737" lon="-0.94339">
        <ele>618.03</ele>
        <time>2021-08-03T16:46:25Z</time>
      </trkpt>
      <trkpt lat="42.17739" lon="-0.94389">
        <ele>620.62</ele>
        <time>2021-08-03T16:46:30Z</time>
      </trkpt>
      <trkpt lat="42.17744" lon="-0.94417">
        <ele>621.9</ele>
        <time>2021-08-03T16:46:33Z</time>
      </trkpt>
      <trkpt lat="42.17739" lon="-0.94452">
        <ele>623.5</ele>
        <time>2021-08-03T16:46:37Z</time>
      </trkpt>
      <trkpt lat="42.17732" lon="-0.94473">
        <ele>624.2</ele>
        <time>2021-08-03T16:46:40Z</time>
      </trkpt>
      <trkpt lat="42.17711" lon="-0.94506">
        <ele>625.03</ele>
        <time>2021-08-03T16:46:46Z</time>
      </trkpt>
      <trkpt lat="42.1769" lon="-0.94528">
        <ele>625.63</ele>
        <time>2021-08-03T16:46:51Z</time>
      </trkpt>
      <trkpt lat="42.17684" lon="-0.9454">
        <ele>625.81</ele>
        <time>2021-08-03T16:46:53Z</time>
      </trkpt>
      <trkpt lat="42.17678" lon="-0.94575">
        <ele>625.98</ele>
        <time>2021-08-03T16:46:57Z</time>
      </trkpt>
      <trkpt lat="42.17679" lon="-0.94592">
        <ele>626.19</ele>
        <time>2021-08-03T16:46:59Z</time>
      </trkpt>
      <trkpt lat="42.17678" lon="-0.94614">
        <ele>626.27</ele>
        <time>2021-08-03T16:47:02Z</time>
      </trkpt>
      <trkpt lat="42.17693" lon="-0.94665">
        <ele>626.41</ele>
        <time>2021-08-03T16:47:08Z</time>
      </trkpt>
      <trkpt lat="42.17711" lon="-0.94691">
        <ele>626.61</ele>
        <time>2021-08-03T16:47:11Z</time>
      </trkpt>
      <trkpt lat="42.17749" lon="-0.94741">
        <ele>627.52</ele>
        <time>2021-08-03T16:47:18Z</time>
      </trkpt>
      <trkpt lat="42.17826" lon="-0.94778">
        <ele>629.68</ele>
        <time>2021-08-03T16:47:28Z</time>
      </trkpt>
      <trkpt lat="42.17857" lon="-0.94825">
        <ele>631.3</ele>
        <time>2021-08-03T16:47:33Z</time>
      </trkpt>
      <trkpt lat="42.17879" lon="-0.94904">
        <ele>634.41</ele>
        <time>2021-08-03T16:47:39Z</time>
      </trkpt>
      <trkpt lat="42.17874" lon="-0.94963">
        <ele>636.25</ele>
        <time>2021-08-03T16:47:44Z</time>
      </trkpt>
      <trkpt lat="42.17903" lon="-0.95063">
        <ele>639.66</ele>
        <time>2021-08-03T16:47:52Z</time>
      </trkpt>
      <trkpt lat="42.17919" lon="-0.95082">
        <ele>640.84</ele>
        <time>2021-08-03T16:47:54Z</time>
      </trkpt>
      <trkpt lat="42.17966" lon="-0.95151">
        <ele>644.41</ele>
        <time>2021-08-03T16:48:01Z</time>
      </trkpt>
      <trkpt lat="42.17971" lon="-0.95162">
        <ele>644.93</ele>
        <time>2021-08-03T16:48:02Z</time>
      </trkpt>
      <trkpt lat="42.17986" lon="-0.9521">
        <ele>646.56</ele>
        <time>2021-08-03T16:48:07Z</time>
      </trkpt>
      <trkpt lat="42.17978" lon="-0.95247">
        <ele>647.99</ele>
        <time>2021-08-03T16:48:12Z</time>
      </trkpt>
      <trkpt lat="42.17961" lon="-0.9528">
        <ele>649.15</ele>
        <time>2021-08-03T16:48:21Z</time>
      </trkpt>
      <trkpt lat="42.17923" lon="-0.95303">
        <ele>651.14</ele>
        <time>2021-08-03T16:48:29Z</time>
      </trkpt>
      <trkpt lat="42.17895" lon="-0.95339">
        <ele>653.16</ele>
        <time>2021-08-03T16:48:35Z</time>
      </trkpt>
      <trkpt lat="42.1786" lon="-0.9537">
        <ele>655.72</ele>
        <time>2021-08-03T16:48:43Z</time>
      </trkpt>
      <trkpt lat="42.1784" lon="-0.95378">
        <ele>656.75</ele>
        <time>2021-08-03T16:48:49Z</time>
      </trkpt>
      <trkpt lat="42.17825" lon="-0.95358">
        <ele>657.55</ele>
        <time>2021-08-03T16:48:52Z</time>
      </trkpt>
      <trkpt lat="42.17772" lon="-0.95338">
        <ele>659.8</ele>
        <time>2021-08-03T16:48:59Z</time>
      </trkpt>
      <trkpt lat="42.17698" lon="-0.95358">
        <ele>663.44</ele>
        <time>2021-08-03T16:49:07Z</time>
      </trkpt>
      <trkpt lat="42.17648" lon="-0.95367">
        <ele>665.97</ele>
        <time>2021-08-03T16:49:13Z</time>
      </trkpt>
      <trkpt lat="42.17633" lon="-0.95377">
        <ele>666.65</ele>
        <time>2021-08-03T16:49:15Z</time>
      </trkpt>
      <trkpt lat="42.17601" lon="-0.95375">
        <ele>668.51</ele>
        <time>2021-08-03T16:49:19Z</time>
      </trkpt>
      <trkpt lat="42.17552" lon="-0.95402">
        <ele>671.41</ele>
        <time>2021-08-03T16:49:27Z</time>
      </trkpt>
      <trkpt lat="42.17562" lon="-0.95474">
        <ele>673.6</ele>
        <time>2021-08-03T16:49:34Z</time>
      </trkpt>
      <trkpt lat="42.17585" lon="-0.95489">
        <ele>674.58</ele>
        <time>2021-08-03T16:49:37Z</time>
      </trkpt>
      <trkpt lat="42.17644" lon="-0.95507">
        <ele>677.29</ele>
        <time>2021-08-03T16:49:44Z</time>
      </trkpt>
      <trkpt lat="42.17693" lon="-0.95511">
        <ele>680.16</ele>
        <time>2021-08-03T16:49:51Z</time>
      </trkpt>
      <trkpt lat="42.17724" lon="-0.95531">
        <ele>682.35</ele>
        <time>2021-08-03T16:49:57Z</time>
      </trkpt>
      <trkpt lat="42.17769" lon="-0.95539">
        <ele>684.54</ele>
        <time>2021-08-03T16:50:03Z</time>
      </trkpt>
      <trkpt lat="42.17776" lon="-0.95534">
        <ele>684.84</ele>
        <time>2021-08-03T16:50:04Z</time>
      </trkpt>
      <trkpt lat="42.17791" lon="-0.9552">
        <ele>685.55</ele>
        <time>2021-08-03T16:50:06Z</time>
      </trkpt>
      <trkpt lat="42.17832" lon="-0.9553">
        <ele>688.5</ele>
        <time>2021-08-03T16:50:12Z</time>
      </trkpt>
      <trkpt lat="42.17848" lon="-0.95551">
        <ele>689.68</ele>
        <time>2021-08-03T16:50:15Z</time>
      </trkpt>
      <trkpt lat="42.17879" lon="-0.9556">
        <ele>691.33</ele>
        <time>2021-08-03T16:50:19Z</time>
      </trkpt>
      <trkpt lat="42.17894" lon="-0.95561">
        <ele>692.13</ele>
        <time>2021-08-03T16:50:21Z</time>
      </trkpt>
      <trkpt lat="42.17933" lon="-0.95582">
        <ele>694.22</ele>
        <time>2021-08-03T16:50:26Z</time>
      </trkpt>
      <trkpt lat="42.17964" lon="-0.95587">
        <ele>695.84</ele>
        <time>2021-08-03T16:50:30Z</time>
      </trkpt>
      <trkpt lat="42.17996" lon="-0.95584">
        <ele>697.51</ele>
        <time>2021-08-03T16:50:34Z</time>
      </trkpt>
      <trkpt lat="42.18019" lon="-0.95563">
        <ele>699.41</ele>
        <time>2021-08-03T16:50:38Z</time>
      </trkpt>
      <trkpt lat="42.18058" lon="-0.95507">
        <ele>703.45</ele>
        <time>2021-08-03T16:50:45Z</time>
      </trkpt>
      <trkpt lat="42.18064" lon="-0.95472">
        <ele>705.06</ele>
        <time>2021-08-03T16:50:48Z</time>
      </trkpt>
      <trkpt lat="42.18069" lon="-0.95434">
        <ele>706.13</ele>
        <time>2021-08-03T16:50:51Z</time>
      </trkpt>
      <trkpt lat="42.18084" lon="-0.9541">
        <ele>707.02</ele>
        <time>2021-08-03T16:50:54Z</time>
      </trkpt>
      <trkpt lat="42.18097" lon="-0.9536">
        <ele>707.55</ele>
        <time>2021-08-03T16:51:00Z</time>
      </trkpt>
      <trkpt lat="42.18106" lon="-0.9533">
        <ele>707.86</ele>
        <time>2021-08-03T16:51:03Z</time>
      </trkpt>
      <trkpt lat="42.18114" lon="-0.9531">
        <ele>708.36</ele>
        <time>2021-08-03T16:51:05Z</time>
      </trkpt>
      <trkpt lat="42.18153" lon="-0.95239">
        <ele>710.18</ele>
        <time>2021-08-03T16:51:13Z</time>
      </trkpt>
      <trkpt lat="42.18191" lon="-0.9525">
        <ele>711.1</ele>
        <time>2021-08-03T16:51:18Z</time>
      </trkpt>
      <trkpt lat="42.18217" lon="-0.95255">
        <ele>711.58</ele>
        <time>2021-08-03T16:51:22Z</time>
      </trkpt>
      <trkpt lat="42.18233" lon="-0.9525">
        <ele>711.96</ele>
        <time>2021-08-03T16:51:25Z</time>
      </trkpt>
      <trkpt lat="42.18281" lon="-0.9527">
        <ele>712.91</ele>
        <time>2021-08-03T16:51:33Z</time>
      </trkpt>
      <trkpt lat="42.18304" lon="-0.95279">
        <ele>713.28</ele>
        <time>2021-08-03T16:51:36Z</time>
      </trkpt>
      <trkpt lat="42.18343" lon="-0.95282">
        <ele>713.98</ele>
        <time>2021-08-03T16:51:41Z</time>
      </trkpt>
      <trkpt lat="42.18394" lon="-0.95274">
        <ele>714.93</ele>
        <time>2021-08-03T16:51:47Z</time>
      </trkpt>
      <trkpt lat="42.18425" lon="-0.95294">
        <ele>715.55</ele>
        <time>2021-08-03T16:51:51Z</time>
      </trkpt>
      <trkpt lat="42.18479" lon="-0.95343">
        <ele>716.97</ele>
        <time>2021-08-03T16:51:58Z</time>
      </trkpt>
      <trkpt lat="42.1856" lon="-0.95397">
        <ele>719.05</ele>
        <time>2021-08-03T16:52:08Z</time>
      </trkpt>
      <trkpt lat="42.18643" lon="-0.95425">
        <ele>721.12</ele>
        <time>2021-08-03T16:52:18Z</time>
      </trkpt>
      <trkpt lat="42.18666" lon="-0.95446">
        <ele>721.44</ele>
        <time>2021-08-03T16:52:21Z</time>
      </trkpt>
      <trkpt lat="42.18762" lon="-0.95492">
        <ele>718.85</ele>
        <time>2021-08-03T16:52:32Z</time>
      </trkpt>
      <trkpt lat="42.18839" lon="-0.95562">
        <ele>717.05</ele>
        <time>2021-08-03T16:52:42Z</time>
      </trkpt>
      <trkpt lat="42.18923" lon="-0.95622">
        <ele>718.97</ele>
        <time>2021-08-03T16:52:53Z</time>
      </trkpt>
      <trkpt lat="42.18966" lon="-0.9563">
        <ele>720.71</ele>
        <time>2021-08-03T16:52:58Z</time>
      </trkpt>
      <trkpt lat="42.19003" lon="-0.95664">
        <ele>722.81</ele>
        <time>2021-08-03T16:53:03Z</time>
      </trkpt>
      <trkpt lat="42.19015" lon="-0.95683">
        <ele>723.65</ele>
        <time>2021-08-03T16:53:05Z</time>
      </trkpt>
      <trkpt lat="42.19074" lon="-0.95709">
        <ele>725.45</ele>
        <time>2021-08-03T16:53:12Z</time>
      </trkpt>
      <trkpt lat="42.19094" lon="-0.95703">
        <ele>725.73</ele>
        <time>2021-08-03T16:53:14Z</time>
      </trkpt>
      <trkpt lat="42.19126" lon="-0.95695">
        <ele>726.32</ele>
        <time>2021-08-03T16:53:17Z</time>
      </trkpt>
      <trkpt lat="42.19157" lon="-0.95683">
        <ele>727.08</ele>
        <time>2021-08-03T16:53:20Z</time>
      </trkpt>
      <trkpt lat="42.19216" lon="-0.9568">
        <ele>729.54</ele>
        <time>2021-08-03T16:53:26Z</time>
      </trkpt>
      <trkpt lat="42.19286" lon="-0.95718">
        <ele>729.48</ele>
        <time>2021-08-03T16:53:34Z</time>
      </trkpt>
      <trkpt lat="42.19314" lon="-0.95774">
        <ele>728.08</ele>
        <time>2021-08-03T16:53:39Z</time>
      </trkpt>
      <trkpt lat="42.19341" lon="-0.95828">
        <ele>725.99</ele>
        <time>2021-08-03T16:53:44Z</time>
      </trkpt>
      <trkpt lat="42.19367" lon="-0.95868">
        <ele>723.24</ele>
        <time>2021-08-03T16:53:49Z</time>
      </trkpt>
      <trkpt lat="42.1941" lon="-0.95918">
        <ele>720.09</ele>
        <time>2021-08-03T16:53:55Z</time>
      </trkpt>
      <trkpt lat="42.19457" lon="-0.95948">
        <ele>717.69</ele>
        <time>2021-08-03T16:54:01Z</time>
      </trkpt>
      <trkpt lat="42.19479" lon="-0.95973">
        <ele>716.78</ele>
        <time>2021-08-03T16:54:05Z</time>
      </trkpt>
      <trkpt lat="42.19499" lon="-0.95987">
        <ele>716.32</ele>
        <time>2021-08-03T16:54:09Z</time>
      </trkpt>
      <trkpt lat="42.19511" lon="-0.95989">
        <ele>715.99</ele>
        <time>2021-08-03T16:54:11Z</time>
      </trkpt>
      <trkpt lat="42.19571" lon="-0.96006">
        <ele>713.28</ele>
        <time>2021-08-03T16:54:21Z</time>
      </trkpt>
      <trkpt lat="42.19596" lon="-0.9602">
        <ele>711.89</ele>
        <time>2021-08-03T16:54:25Z</time>
      </trkpt>
      <trkpt lat="42.19669" lon="-0.96058">
        <ele>708.07</ele>
        <time>2021-08-03T16:54:35Z</time>
      </trkpt>
      <trkpt lat="42.19677" lon="-0.96062">
        <ele>707.59</ele>
        <time>2021-08-03T16:54:36Z</time>
      </trkpt>
      <trkpt lat="42.19706" lon="-0.96089">
        <ele>705.96</ele>
        <time>2021-08-03T16:54:40Z</time>
      </trkpt>
      <trkpt lat="42.19759" lon="-0.96156">
        <ele>702.12</ele>
        <time>2021-08-03T16:54:48Z</time>
      </trkpt>
      <trkpt lat="42.19784" lon="-0.96172">
        <ele>700.78</ele>
        <time>2021-08-03T16:54:51Z</time>
      </trkpt>
      <trkpt lat="42.19806" lon="-0.96225">
        <ele>697.59</ele>
        <time>2021-08-03T16:54:57Z</time>
      </trkpt>
      <trkpt lat="42.19834" lon="-0.9624">
        <ele>695.86</ele>
        <time>2021-08-03T16:55:01Z</time>
      </trkpt>
      <trkpt lat="42.19888" lon="-0.96289">
        <ele>693.31</ele>
        <time>2021-08-03T16:55:08Z</time>
      </trkpt>
      <trkpt lat="42.19898" lon="-0.96323">
        <ele>691.96</ele>
        <time>2021-08-03T16:55:11Z</time>
      </trkpt>
      <trkpt lat="42.19904" lon="-0.96387">
        <ele>689.92</ele>
        <time>2021-08-03T16:55:16Z</time>
      </trkpt>
      <trkpt lat="42.19927" lon="-0.96413">
        <ele>687.57</ele>
        <time>2021-08-03T16:55:21Z</time>
      </trkpt>
      <trkpt lat="42.19935" lon="-0.9641">
        <ele>687.07</ele>
        <time>2021-08-03T16:55:22Z</time>
      </trkpt>
      <trkpt lat="42.19952" lon="-0.96403">
        <ele>686.2</ele>
        <time>2021-08-03T16:55:24Z</time>
      </trkpt>
      <trkpt lat="42.20009" lon="-0.96393">
        <ele>683.63</ele>
        <time>2021-08-03T16:55:30Z</time>
      </trkpt>
      <trkpt lat="42.20027" lon="-0.96387">
        <ele>682.79</ele>
        <time>2021-08-03T16:55:32Z</time>
      </trkpt>
      <trkpt lat="42.20103" lon="-0.96418">
        <ele>679.05</ele>
        <time>2021-08-03T16:55:40Z</time>
      </trkpt>
      <trkpt lat="42.20111" lon="-0.96422">
        <ele>678.2</ele>
        <time>2021-08-03T16:55:41Z</time>
      </trkpt>
      <trkpt lat="42.20165" lon="-0.96413">
        <ele>675.29</ele>
        <time>2021-08-03T16:55:47Z</time>
      </trkpt>
      <trkpt lat="42.2022" lon="-0.96401">
        <ele>672.46</ele>
        <time>2021-08-03T16:55:53Z</time>
      </trkpt>
      <trkpt lat="42.20248" lon="-0.96411">
        <ele>671.55</ele>
        <time>2021-08-03T16:55:56Z</time>
      </trkpt>
      <trkpt lat="42.20277" lon="-0.96434">
        <ele>669.38</ele>
        <time>2021-08-03T16:56:00Z</time>
      </trkpt>
      <trkpt lat="42.20299" lon="-0.96462">
        <ele>667.21</ele>
        <time>2021-08-03T16:56:04Z</time>
      </trkpt>
      <trkpt lat="42.20309" lon="-0.9648">
        <ele>663.99</ele>
        <time>2021-08-03T16:56:11Z</time>
      </trkpt>
      <trkpt lat="42.20312" lon="-0.96487">
        <ele>662.66</ele>
        <time>2021-08-03T16:56:18Z</time>
      </trkpt>
      <trkpt lat="42.20357" lon="-0.96491">
        <ele>661.95</ele>
        <time>2021-08-03T16:56:24Z</time>
      </trkpt>
      <trkpt lat="42.20406" lon="-0.96482">
        <ele>660.92</ele>
        <time>2021-08-03T16:56:29Z</time>
      </trkpt>
      <trkpt lat="42.20451" lon="-0.96517">
        <ele>659.41</ele>
        <time>2021-08-03T16:56:35Z</time>
      </trkpt>
      <trkpt lat="42.2044" lon="-0.96555">
        <ele>658.93</ele>
        <time>2021-08-03T16:56:38Z</time>
      </trkpt>
      <trkpt lat="42.20424" lon="-0.96616">
        <ele>658.98</ele>
        <time>2021-08-03T16:56:43Z</time>
      </trkpt>
      <trkpt lat="42.20445" lon="-0.96679">
        <ele>659.12</ele>
        <time>2021-08-03T16:56:50Z</time>
      </trkpt>
      <trkpt lat="42.20477" lon="-0.9668">
        <ele>658.02</ele>
        <time>2021-08-03T16:56:55Z</time>
      </trkpt>
      <trkpt lat="42.20525" lon="-0.96647">
        <ele>655.39</ele>
        <time>2021-08-03T16:57:07Z</time>
      </trkpt>
      <trkpt lat="42.20527" lon="-0.96645">
        <ele>654.29</ele>
        <time>2021-08-03T16:57:24Z</time>
      </trkpt>
      <trkpt lat="42.20536" lon="-0.96624">
        <ele>654.41</ele>
        <time>2021-08-03T16:57:51Z</time>
      </trkpt>
      <trkpt lat="42.20541" lon="-0.96596">
        <ele>654.61</ele>
        <time>2021-08-03T16:57:59Z</time>
      </trkpt>
      <trkpt lat="42.20541" lon="-0.96595">
        <ele>654.6</ele>
        <time>2021-08-03T16:58:06Z</time>
      </trkpt>
      <trkpt lat="42.20564" lon="-0.96603">
        <ele>654.81</ele>
        <time>2021-08-03T16:58:11Z</time>
      </trkpt>
      <trkpt lat="42.20602" lon="-0.96624">
        <ele>655.28</ele>
        <time>2021-08-03T16:58:15Z</time>
      </trkpt>
      <trkpt lat="42.20649" lon="-0.96625">
        <ele>655.64</ele>
        <time>2021-08-03T16:58:19Z</time>
      </trkpt>
      <trkpt lat="42.20679" lon="-0.96656">
        <ele>655.81</ele>
        <time>2021-08-03T16:58:23Z</time>
      </trkpt>
      <trkpt lat="42.20697" lon="-0.96747">
        <ele>655.14</ele>
        <time>2021-08-03T16:58:29Z</time>
      </trkpt>
      <trkpt lat="42.20731" lon="-0.96781">
        <ele>653.53</ele>
        <time>2021-08-03T16:58:34Z</time>
      </trkpt>
      <trkpt lat="42.20768" lon="-0.96769">
        <ele>652.22</ele>
        <time>2021-08-03T16:58:38Z</time>
      </trkpt>
      <trkpt lat="42.20792" lon="-0.96768">
        <ele>651.99</ele>
        <time>2021-08-03T16:58:40Z</time>
      </trkpt>
      <trkpt lat="42.20837" lon="-0.96759">
        <ele>651.91</ele>
        <time>2021-08-03T16:58:43Z</time>
      </trkpt>
      <trkpt lat="42.20906" lon="-0.96795">
        <ele>652.63</ele>
        <time>2021-08-03T16:58:48Z</time>
      </trkpt>
      <trkpt lat="42.20929" lon="-0.96826">
        <ele>653.2</ele>
        <time>2021-08-03T16:58:50Z</time>
      </trkpt>
      <trkpt lat="42.20965" lon="-0.96876">
        <ele>654.08</ele>
        <time>2021-08-03T16:58:55Z</time>
      </trkpt>
      <trkpt lat="42.20979" lon="-0.96883">
        <ele>652.43</ele>
        <time>2021-08-03T16:59:03Z</time>
      </trkpt>
      <trkpt lat="42.21005" lon="-0.96876">
        <ele>651.15</ele>
        <time>2021-08-03T16:59:14Z</time>
      </trkpt>
      <trkpt lat="42.21012" lon="-0.96875">
        <ele>651.04</ele>
        <time>2021-08-03T16:59:15Z</time>
      </trkpt>
      <trkpt lat="42.21094" lon="-0.96836">
        <ele>650.5</ele>
        <time>2021-08-03T16:59:22Z</time>
      </trkpt>
      <trkpt lat="42.2115" lon="-0.9685">
        <ele>650.36</ele>
        <time>2021-08-03T16:59:27Z</time>
      </trkpt>
      <trkpt lat="42.21196" lon="-0.96897">
        <ele>650.45</ele>
        <time>2021-08-03T16:59:32Z</time>
      </trkpt>
      <trkpt lat="42.21218" lon="-0.96895">
        <ele>650.47</ele>
        <time>2021-08-03T16:59:34Z</time>
      </trkpt>
      <trkpt lat="42.21308" lon="-0.96896">
        <ele>650.47</ele>
        <time>2021-08-03T16:59:40Z</time>
      </trkpt>
      <trkpt lat="42.21376" lon="-0.96936">
        <ele>648.81</ele>
        <time>2021-08-03T16:59:46Z</time>
      </trkpt>
      <trkpt lat="42.21366" lon="-0.97">
        <ele>645.97</ele>
        <time>2021-08-03T16:59:51Z</time>
      </trkpt>
      <trkpt lat="42.21347" lon="-0.97015">
        <ele>644.62</ele>
        <time>2021-08-03T16:59:53Z</time>
      </trkpt>
      <trkpt lat="42.21305" lon="-0.97061">
        <ele>641.14</ele>
        <time>2021-08-03T16:59:58Z</time>
      </trkpt>
      <trkpt lat="42.21255" lon="-0.97146">
        <ele>637.22</ele>
        <time>2021-08-03T17:00:03Z</time>
      </trkpt>
      <trkpt lat="42.21234" lon="-0.97177">
        <ele>635.87</ele>
        <time>2021-08-03T17:00:05Z</time>
      </trkpt>
      <trkpt lat="42.21224" lon="-0.97259">
        <ele>631.11</ele>
        <time>2021-08-03T17:00:10Z</time>
      </trkpt>
      <trkpt lat="42.21201" lon="-0.97315">
        <ele>627.55</ele>
        <time>2021-08-03T17:00:14Z</time>
      </trkpt>
      <trkpt lat="42.21165" lon="-0.97317">
        <ele>624.39</ele>
        <time>2021-08-03T17:00:18Z</time>
      </trkpt>
      <trkpt lat="42.21157" lon="-0.9735">
        <ele>621.82</ele>
        <time>2021-08-03T17:00:21Z</time>
      </trkpt>
      <trkpt lat="42.21162" lon="-0.97444">
        <ele>618.41</ele>
        <time>2021-08-03T17:00:26Z</time>
      </trkpt>
      <trkpt lat="42.21134" lon="-0.97514">
        <ele>615.1</ele>
        <time>2021-08-03T17:00:31Z</time>
      </trkpt>
      <trkpt lat="42.21098" lon="-0.97596">
        <ele>611.49</ele>
        <time>2021-08-03T17:00:36Z</time>
      </trkpt>
      <trkpt lat="42.21106" lon="-0.97647">
        <ele>608.06</ele>
        <time>2021-08-03T17:00:39Z</time>
      </trkpt>
      <trkpt lat="42.21113" lon="-0.97674">
        <ele>606.22</ele>
        <time>2021-08-03T17:00:41Z</time>
      </trkpt>
      <trkpt lat="42.21095" lon="-0.97739">
        <ele>601.61</ele>
        <time>2021-08-03T17:00:46Z</time>
      </trkpt>
      <trkpt lat="42.21048" lon="-0.97832">
        <ele>596.17</ele>
        <time>2021-08-03T17:00:52Z</time>
      </trkpt>
      <trkpt lat="42.21041" lon="-0.97875">
        <ele>593</ele>
        <time>2021-08-03T17:00:55Z</time>
      </trkpt>
      <trkpt lat="42.2103" lon="-0.97905">
        <ele>591.13</ele>
        <time>2021-08-03T17:00:57Z</time>
      </trkpt>
      <trkpt lat="42.21002" lon="-0.97985">
        <ele>586.29</ele>
        <time>2021-08-03T17:01:02Z</time>
      </trkpt>
      <trkpt lat="42.2098" lon="-0.98029">
        <ele>583.52</ele>
        <time>2021-08-03T17:01:05Z</time>
      </trkpt>
      <trkpt lat="42.20954" lon="-0.98055">
        <ele>579.27</ele>
        <time>2021-08-03T17:01:09Z</time>
      </trkpt>
      <trkpt lat="42.20935" lon="-0.98081">
        <ele>576</ele>
        <time>2021-08-03T17:01:12Z</time>
      </trkpt>
      <trkpt lat="42.2093" lon="-0.98147">
        <ele>572.32</ele>
        <time>2021-08-03T17:01:16Z</time>
      </trkpt>
      <trkpt lat="42.20951" lon="-0.98199">
        <ele>570.47</ele>
        <time>2021-08-03T17:01:19Z</time>
      </trkpt>
      <trkpt lat="42.20966" lon="-0.98314">
        <ele>566.19</ele>
        <time>2021-08-03T17:01:26Z</time>
      </trkpt>
      <trkpt lat="42.2095" lon="-0.98372">
        <ele>564.08</ele>
        <time>2021-08-03T17:01:29Z</time>
      </trkpt>
      <trkpt lat="42.20961" lon="-0.9846">
        <ele>560.61</ele>
        <time>2021-08-03T17:01:34Z</time>
      </trkpt>
      <trkpt lat="42.20961" lon="-0.98478">
        <ele>556.01</ele>
        <time>2021-08-03T17:01:39Z</time>
      </trkpt>
      <trkpt lat="42.20959" lon="-0.98482">
        <ele>554.24</ele>
        <time>2021-08-03T17:01:41Z</time>
      </trkpt>
      <trkpt lat="42.20919" lon="-0.98505">
        <ele>551.56</ele>
        <time>2021-08-03T17:01:47Z</time>
      </trkpt>
      <trkpt lat="42.20914" lon="-0.9852">
        <ele>551.14</ele>
        <time>2021-08-03T17:01:48Z</time>
      </trkpt>
      <trkpt lat="42.20882" lon="-0.98609">
        <ele>549.4</ele>
        <time>2021-08-03T17:01:53Z</time>
      </trkpt>
      <trkpt lat="42.20864" lon="-0.98722">
        <ele>547.44</ele>
        <time>2021-08-03T17:01:58Z</time>
      </trkpt>
      <trkpt lat="42.20855" lon="-0.98804">
        <ele>544.79</ele>
        <time>2021-08-03T17:02:03Z</time>
      </trkpt>
      <trkpt lat="42.20877" lon="-0.98809">
        <ele>543.67</ele>
        <time>2021-08-03T17:02:06Z</time>
      </trkpt>
      <trkpt lat="42.20954" lon="-0.98809">
        <ele>542.84</ele>
        <time>2021-08-03T17:02:14Z</time>
      </trkpt>
      <trkpt lat="42.21018" lon="-0.98818">
        <ele>542.83</ele>
        <time>2021-08-03T17:02:18Z</time>
      </trkpt>
      <trkpt lat="42.21061" lon="-0.98812">
        <ele>542.87</ele>
        <time>2021-08-03T17:02:21Z</time>
      </trkpt>
      <trkpt lat="42.21082" lon="-0.98853">
        <ele>542.11</ele>
        <time>2021-08-03T17:02:27Z</time>
      </trkpt>
      <trkpt lat="42.2106" lon="-0.98866">
        <ele>541.54</ele>
        <time>2021-08-03T17:02:31Z</time>
      </trkpt>
      <trkpt lat="42.21057" lon="-0.98867">
        <ele>541.34</ele>
        <time>2021-08-03T17:02:43Z</time>
      </trkpt>
      <trkpt lat="42.21029" lon="-0.98877">
        <ele>541.59</ele>
        <time>2021-08-03T17:02:58Z</time>
      </trkpt>
      <trkpt lat="42.2099" lon="-0.98906">
        <ele>542.28</ele>
        <time>2021-08-03T17:03:02Z</time>
      </trkpt>
      <trkpt lat="42.20926" lon="-0.98931">
        <ele>545.08</ele>
        <time>2021-08-03T17:03:08Z</time>
      </trkpt>
      <trkpt lat="42.20899" lon="-0.98973">
        <ele>546.78</ele>
        <time>2021-08-03T17:03:12Z</time>
      </trkpt>
      <trkpt lat="42.20863" lon="-0.99009">
        <ele>549.65</ele>
        <time>2021-08-03T17:03:17Z</time>
      </trkpt>
      <trkpt lat="42.20825" lon="-0.99054">
        <ele>552.51</ele>
        <time>2021-08-03T17:03:23Z</time>
      </trkpt>
      <trkpt lat="42.20808" lon="-0.99121">
        <ele>555.58</ele>
        <time>2021-08-03T17:03:29Z</time>
      </trkpt>
      <trkpt lat="42.20768" lon="-0.9917">
        <ele>558.33</ele>
        <time>2021-08-03T17:03:35Z</time>
      </trkpt>
      <trkpt lat="42.20799" lon="-0.99205">
        <ele>559.3</ele>
        <time>2021-08-03T17:03:39Z</time>
      </trkpt>
      <trkpt lat="42.20811" lon="-0.99206">
        <ele>559.53</ele>
        <time>2021-08-03T17:03:40Z</time>
      </trkpt>
      <trkpt lat="42.20833" lon="-0.99206">
        <ele>560.11</ele>
        <time>2021-08-03T17:03:42Z</time>
      </trkpt>
      <trkpt lat="42.20844" lon="-0.99238">
        <ele>560.74</ele>
        <time>2021-08-03T17:03:47Z</time>
      </trkpt>
      <trkpt lat="42.2084" lon="-0.99282">
        <ele>560.06</ele>
        <time>2021-08-03T17:03:55Z</time>
      </trkpt>
      <trkpt lat="42.20844" lon="-0.99292">
        <ele>559.3</ele>
        <time>2021-08-03T17:04:02Z</time>
      </trkpt>
      <trkpt lat="42.20869" lon="-0.99312">
        <ele>559.14</ele>
        <time>2021-08-03T17:04:07Z</time>
      </trkpt>
      <trkpt lat="42.20909" lon="-0.99371">
        <ele>558.82</ele>
        <time>2021-08-03T17:04:14Z</time>
      </trkpt>
      <trkpt lat="42.20888" lon="-0.99403">
        <ele>558.59</ele>
        <time>2021-08-03T17:04:18Z</time>
      </trkpt>
      <trkpt lat="42.2086" lon="-0.99449">
        <ele>558.86</ele>
        <time>2021-08-03T17:04:23Z</time>
      </trkpt>
      <trkpt lat="42.20805" lon="-0.99511">
        <ele>560.94</ele>
        <time>2021-08-03T17:04:29Z</time>
      </trkpt>
      <trkpt lat="42.20793" lon="-0.99515">
        <ele>561.45</ele>
        <time>2021-08-03T17:04:30Z</time>
      </trkpt>
      <trkpt lat="42.20773" lon="-0.99561">
        <ele>564.21</ele>
        <time>2021-08-03T17:04:37Z</time>
      </trkpt>
      <trkpt lat="42.20817" lon="-0.99575">
        <ele>566.25</ele>
        <time>2021-08-03T17:04:42Z</time>
      </trkpt>
      <trkpt lat="42.20821" lon="-0.99572">
        <ele>566.15</ele>
        <time>2021-08-03T17:04:54Z</time>
      </trkpt>
      <trkpt lat="42.20826" lon="-0.9957">
        <ele>565.97</ele>
        <time>2021-08-03T17:04:57Z</time>
      </trkpt>
      <trkpt lat="42.20863" lon="-0.99601">
        <ele>566</ele>
        <time>2021-08-03T17:05:03Z</time>
      </trkpt>
      <trkpt lat="42.20876" lon="-0.99629">
        <ele>565.87</ele>
        <time>2021-08-03T17:05:05Z</time>
      </trkpt>
      <trkpt lat="42.2089" lon="-0.99658">
        <ele>565.45</ele>
        <time>2021-08-03T17:05:07Z</time>
      </trkpt>
      <trkpt lat="42.20924" lon="-0.99783">
        <ele>564.17</ele>
        <time>2021-08-03T17:05:15Z</time>
      </trkpt>
      <trkpt lat="42.2093" lon="-0.99799">
        <ele>561.11</ele>
        <time>2021-08-03T17:05:24Z</time>
      </trkpt>
      <trkpt lat="42.20953" lon="-0.99831">
        <ele>559.75</ele>
        <time>2021-08-03T17:05:37Z</time>
      </trkpt>
      <trkpt lat="42.20969" lon="-0.99853">
        <ele>559.6</ele>
        <time>2021-08-03T17:05:39Z</time>
      </trkpt>
      <trkpt lat="42.20987" lon="-0.99943">
        <ele>557.02</ele>
        <time>2021-08-03T17:05:46Z</time>
      </trkpt>
      <trkpt lat="42.21014" lon="-0.9998">
        <ele>553.81</ele>
        <time>2021-08-03T17:05:51Z</time>
      </trkpt>
      <trkpt lat="42.21025" lon="-0.99978">
        <ele>553.33</ele>
        <time>2021-08-03T17:05:52Z</time>
      </trkpt>
      <trkpt lat="42.211" lon="-0.99994">
        <ele>550.75</ele>
        <time>2021-08-03T17:05:59Z</time>
      </trkpt>
      <trkpt lat="42.21148" lon="-0.99997">
        <ele>549.48</ele>
        <time>2021-08-03T17:06:04Z</time>
      </trkpt>
      <trkpt lat="42.21163" lon="-1.0006">
        <ele>547.63</ele>
        <time>2021-08-03T17:06:09Z</time>
      </trkpt>
      <trkpt lat="42.21205" lon="-1.00168">
        <ele>545.16</ele>
        <time>2021-08-03T17:06:17Z</time>
      </trkpt>
      <trkpt lat="42.21219" lon="-1.00194">
        <ele>544.79</ele>
        <time>2021-08-03T17:06:19Z</time>
      </trkpt>
      <trkpt lat="42.2124" lon="-1.00238">
        <ele>544.4</ele>
        <time>2021-08-03T17:06:22Z</time>
      </trkpt>
      <trkpt lat="42.21287" lon="-1.00303">
        <ele>544.46</ele>
        <time>2021-08-03T17:06:27Z</time>
      </trkpt>
      <trkpt lat="42.21355" lon="-1.00356">
        <ele>545.43</ele>
        <time>2021-08-03T17:06:33Z</time>
      </trkpt>
      <trkpt lat="42.21353" lon="-1.00385">
        <ele>545.88</ele>
        <time>2021-08-03T17:06:38Z</time>
      </trkpt>
      <trkpt lat="42.21308" lon="-1.00373">
        <ele>545.89</ele>
        <time>2021-08-03T17:06:43Z</time>
      </trkpt>
      <trkpt lat="42.21281" lon="-1.00349">
        <ele>546.02</ele>
        <time>2021-08-03T17:06:46Z</time>
      </trkpt>
      <trkpt lat="42.21224" lon="-1.00329">
        <ele>547.6</ele>
        <time>2021-08-03T17:06:53Z</time>
      </trkpt>
      <trkpt lat="42.21157" lon="-1.00312">
        <ele>551.01</ele>
        <time>2021-08-03T17:07:01Z</time>
      </trkpt>
      <trkpt lat="42.21132" lon="-1.00346">
        <ele>553.09</ele>
        <time>2021-08-03T17:07:05Z</time>
      </trkpt>
      <trkpt lat="42.21118" lon="-1.00363">
        <ele>554.37</ele>
        <time>2021-08-03T17:07:07Z</time>
      </trkpt>
      <trkpt lat="42.21106" lon="-1.00369">
        <ele>557.59</ele>
        <time>2021-08-03T17:07:14Z</time>
      </trkpt>
      <trkpt lat="42.21077" lon="-1.00327">
        <ele>559.31</ele>
        <time>2021-08-03T17:07:21Z</time>
      </trkpt>
      <trkpt lat="42.21019" lon="-1.00294">
        <ele>561.95</ele>
        <time>2021-08-03T17:07:28Z</time>
      </trkpt>
      <trkpt lat="42.20995" lon="-1.00313">
        <ele>563.35</ele>
        <time>2021-08-03T17:07:31Z</time>
      </trkpt>
      <trkpt lat="42.20965" lon="-1.0038">
        <ele>567.28</ele>
        <time>2021-08-03T17:07:38Z</time>
      </trkpt>
      <trkpt lat="42.20945" lon="-1.00393">
        <ele>568.38</ele>
        <time>2021-08-03T17:07:40Z</time>
      </trkpt>
      <trkpt lat="42.20882" lon="-1.00402">
        <ele>570.97</ele>
        <time>2021-08-03T17:07:46Z</time>
      </trkpt>
      <trkpt lat="42.20833" lon="-1.00423">
        <ele>573.4</ele>
        <time>2021-08-03T17:07:51Z</time>
      </trkpt>
      <trkpt lat="42.20811" lon="-1.00457">
        <ele>577.22</ele>
        <time>2021-08-03T17:07:56Z</time>
      </trkpt>
      <trkpt lat="42.2081" lon="-1.00492">
        <ele>579.69</ele>
        <time>2021-08-03T17:08:00Z</time>
      </trkpt>
      <trkpt lat="42.20815" lon="-1.00531">
        <ele>580.8</ele>
        <time>2021-08-03T17:08:04Z</time>
      </trkpt>
      <trkpt lat="42.20811" lon="-1.0056">
        <ele>581.05</ele>
        <time>2021-08-03T17:08:07Z</time>
      </trkpt>
      <trkpt lat="42.20771" lon="-1.00604">
        <ele>581.41</ele>
        <time>2021-08-03T17:08:14Z</time>
      </trkpt>
      <trkpt lat="42.20756" lon="-1.00625">
        <ele>581.4</ele>
        <time>2021-08-03T17:08:16Z</time>
      </trkpt>
      <trkpt lat="42.2071" lon="-1.0063">
        <ele>580.91</ele>
        <time>2021-08-03T17:08:22Z</time>
      </trkpt>
      <trkpt lat="42.20691" lon="-1.00635">
        <ele>580.48</ele>
        <time>2021-08-03T17:08:24Z</time>
      </trkpt>
      <trkpt lat="42.20676" lon="-1.00642">
        <ele>579.95</ele>
        <time>2021-08-03T17:08:26Z</time>
      </trkpt>
      <trkpt lat="42.20655" lon="-1.00675">
        <ele>578.08</ele>
        <time>2021-08-03T17:08:31Z</time>
      </trkpt>
      <trkpt lat="42.20656" lon="-1.00706">
        <ele>577.04</ele>
        <time>2021-08-03T17:08:35Z</time>
      </trkpt>
      <trkpt lat="42.20663" lon="-1.00752">
        <ele>577.47</ele>
        <time>2021-08-03T17:08:40Z</time>
      </trkpt>
      <trkpt lat="42.20677" lon="-1.00787">
        <ele>579.65</ele>
        <time>2021-08-03T17:08:45Z</time>
      </trkpt>
      <trkpt lat="42.20697" lon="-1.00811">
        <ele>580.44</ele>
        <time>2021-08-03T17:08:49Z</time>
      </trkpt>
      <trkpt lat="42.20714" lon="-1.00844">
        <ele>581.19</ele>
        <time>2021-08-03T17:08:53Z</time>
      </trkpt>
      <trkpt lat="42.20719" lon="-1.00866">
        <ele>581.8</ele>
        <time>2021-08-03T17:08:55Z</time>
      </trkpt>
      <trkpt lat="42.20719" lon="-1.00895">
        <ele>582.18</ele>
        <time>2021-08-03T17:08:59Z</time>
      </trkpt>
      <trkpt lat="42.20723" lon="-1.00932">
        <ele>582.3</ele>
        <time>2021-08-03T17:09:07Z</time>
      </trkpt>
      <trkpt lat="42.20752" lon="-1.00961">
        <ele>581.01</ele>
        <time>2021-08-03T17:09:13Z</time>
      </trkpt>
      <trkpt lat="42.20791" lon="-1.00965">
        <ele>577.99</ele>
        <time>2021-08-03T17:09:23Z</time>
      </trkpt>
      <trkpt lat="42.20849" lon="-1.00965">
        <ele>576.55</ele>
        <time>2021-08-03T17:09:37Z</time>
      </trkpt>
      <trkpt lat="42.2091" lon="-1.00972">
        <ele>576.03</ele>
        <time>2021-08-03T17:09:45Z</time>
      </trkpt>
      <trkpt lat="42.20936" lon="-1.00964">
        <ele>575.68</ele>
        <time>2021-08-03T17:09:49Z</time>
      </trkpt>
      <trkpt lat="42.20971" lon="-1.00957">
        <ele>575.73</ele>
        <time>2021-08-03T17:09:53Z</time>
      </trkpt>
      <trkpt lat="42.21025" lon="-1.00988">
        <ele>576.75</ele>
        <time>2021-08-03T17:10:01Z</time>
      </trkpt>
      <trkpt lat="42.21053" lon="-1.01013">
        <ele>576.76</ele>
        <time>2021-08-03T17:10:05Z</time>
      </trkpt>
      <trkpt lat="42.21064" lon="-1.01053">
        <ele>576.78</ele>
        <time>2021-08-03T17:10:11Z</time>
      </trkpt>
      <trkpt lat="42.21053" lon="-1.01097">
        <ele>577.63</ele>
        <time>2021-08-03T17:10:15Z</time>
      </trkpt>
      <trkpt lat="42.21069" lon="-1.01191">
        <ele>580.91</ele>
        <time>2021-08-03T17:10:23Z</time>
      </trkpt>
      <trkpt lat="42.21094" lon="-1.01241">
        <ele>584.08</ele>
        <time>2021-08-03T17:10:30Z</time>
      </trkpt>
      <trkpt lat="42.21095" lon="-1.01285">
        <ele>587.76</ele>
        <time>2021-08-03T17:10:36Z</time>
      </trkpt>
      <trkpt lat="42.21081" lon="-1.0128">
        <ele>588.64</ele>
        <time>2021-08-03T17:10:38Z</time>
      </trkpt>
      <trkpt lat="42.21066" lon="-1.01275">
        <ele>589.37</ele>
        <time>2021-08-03T17:10:40Z</time>
      </trkpt>
      <trkpt lat="42.21037" lon="-1.01275">
        <ele>589.68</ele>
        <time>2021-08-03T17:10:43Z</time>
      </trkpt>
      <trkpt lat="42.21011" lon="-1.01274">
        <ele>589.69</ele>
        <time>2021-08-03T17:10:46Z</time>
      </trkpt>
      <trkpt lat="42.20998" lon="-1.01269">
        <ele>589.62</ele>
        <time>2021-08-03T17:10:48Z</time>
      </trkpt>
      <trkpt lat="42.20969" lon="-1.01275">
        <ele>589.59</ele>
        <time>2021-08-03T17:10:53Z</time>
      </trkpt>
      <trkpt lat="42.20948" lon="-1.01292">
        <ele>589.54</ele>
        <time>2021-08-03T17:10:57Z</time>
      </trkpt>
      <trkpt lat="42.20941" lon="-1.01328">
        <ele>589.38</ele>
        <time>2021-08-03T17:11:03Z</time>
      </trkpt>
      <trkpt lat="42.20946" lon="-1.01342">
        <ele>588.86</ele>
        <time>2021-08-03T17:11:06Z</time>
      </trkpt>
      <trkpt lat="42.20926" lon="-1.01383">
        <ele>588.12</ele>
        <time>2021-08-03T17:11:12Z</time>
      </trkpt>
      <trkpt lat="42.20899" lon="-1.0139">
        <ele>586.95</ele>
        <time>2021-08-03T17:11:16Z</time>
      </trkpt>
      <trkpt lat="42.20836" lon="-1.01389">
        <ele>584.8</ele>
        <time>2021-08-03T17:11:23Z</time>
      </trkpt>
      <trkpt lat="42.20788" lon="-1.01391">
        <ele>582.91</ele>
        <time>2021-08-03T17:11:29Z</time>
      </trkpt>
      <trkpt lat="42.20742" lon="-1.01418">
        <ele>581.81</ele>
        <time>2021-08-03T17:11:35Z</time>
      </trkpt>
      <trkpt lat="42.20681" lon="-1.01394">
        <ele>581.18</ele>
        <time>2021-08-03T17:11:42Z</time>
      </trkpt>
      <trkpt lat="42.20654" lon="-1.01388">
        <ele>580.5</ele>
        <time>2021-08-03T17:11:45Z</time>
      </trkpt>
      <trkpt lat="42.20625" lon="-1.01389">
        <ele>580.13</ele>
        <time>2021-08-03T17:11:48Z</time>
      </trkpt>
      <trkpt lat="42.20607" lon="-1.01389">
        <ele>579.68</ele>
        <time>2021-08-03T17:11:50Z</time>
      </trkpt>
      <trkpt lat="42.20563" lon="-1.01415">
        <ele>578.46</ele>
        <time>2021-08-03T17:11:56Z</time>
      </trkpt>
      <trkpt lat="42.20536" lon="-1.01436">
        <ele>578.3</ele>
        <time>2021-08-03T17:11:59Z</time>
      </trkpt>
      <trkpt lat="42.20501" lon="-1.01434">
        <ele>577.57</ele>
        <time>2021-08-03T17:12:03Z</time>
      </trkpt>
      <trkpt lat="42.20472" lon="-1.01412">
        <ele>576.11</ele>
        <time>2021-08-03T17:12:08Z</time>
      </trkpt>
      <trkpt lat="42.20422" lon="-1.01411">
        <ele>572.96</ele>
        <time>2021-08-03T17:12:14Z</time>
      </trkpt>
      <trkpt lat="42.20382" lon="-1.01416">
        <ele>570.63</ele>
        <time>2021-08-03T17:12:19Z</time>
      </trkpt>
      <trkpt lat="42.20338" lon="-1.01432">
        <ele>567.04</ele>
        <time>2021-08-03T17:12:26Z</time>
      </trkpt>
      <trkpt lat="42.20332" lon="-1.01438">
        <ele>566.62</ele>
        <time>2021-08-03T17:12:27Z</time>
      </trkpt>
      <trkpt lat="42.20286" lon="-1.01478">
        <ele>563.9</ele>
        <time>2021-08-03T17:12:32Z</time>
      </trkpt>
      <trkpt lat="42.20219" lon="-1.0148">
        <ele>560.48</ele>
        <time>2021-08-03T17:12:39Z</time>
      </trkpt>
      <trkpt lat="42.20181" lon="-1.01507">
        <ele>559.44</ele>
        <time>2021-08-03T17:12:43Z</time>
      </trkpt>
      <trkpt lat="42.20153" lon="-1.01527">
        <ele>558.91</ele>
        <time>2021-08-03T17:12:47Z</time>
      </trkpt>
      <trkpt lat="42.20092" lon="-1.01528">
        <ele>559.16</ele>
        <time>2021-08-03T17:12:54Z</time>
      </trkpt>
      <trkpt lat="42.20071" lon="-1.01523">
        <ele>559.1</ele>
        <time>2021-08-03T17:12:56Z</time>
      </trkpt>
      <trkpt lat="42.2001" lon="-1.01547">
        <ele>557.97</ele>
        <time>2021-08-03T17:13:02Z</time>
      </trkpt>
      <trkpt lat="42.19945" lon="-1.0162">
        <ele>556.36</ele>
        <time>2021-08-03T17:13:10Z</time>
      </trkpt>
      <trkpt lat="42.19928" lon="-1.01648">
        <ele>555.45</ele>
        <time>2021-08-03T17:13:13Z</time>
      </trkpt>
      <trkpt lat="42.19894" lon="-1.01668">
        <ele>555.12</ele>
        <time>2021-08-03T17:13:17Z</time>
      </trkpt>
      <trkpt lat="42.19876" lon="-1.01672">
        <ele>554.76</ele>
        <time>2021-08-03T17:13:19Z</time>
      </trkpt>
      <trkpt lat="42.19865" lon="-1.01681">
        <ele>553.08</ele>
        <time>2021-08-03T17:13:25Z</time>
      </trkpt>
      <trkpt lat="42.19855" lon="-1.01702">
        <ele>552.5</ele>
        <time>2021-08-03T17:13:29Z</time>
      </trkpt>
      <trkpt lat="42.19825" lon="-1.01717">
        <ele>552.25</ele>
        <time>2021-08-03T17:13:33Z</time>
      </trkpt>
      <trkpt lat="42.19724" lon="-1.01707">
        <ele>550.94</ele>
        <time>2021-08-03T17:13:41Z</time>
      </trkpt>
      <trkpt lat="42.19693" lon="-1.01685">
        <ele>549.85</ele>
        <time>2021-08-03T17:13:45Z</time>
      </trkpt>
      <trkpt lat="42.19647" lon="-1.01705">
        <ele>548.7</ele>
        <time>2021-08-03T17:13:51Z</time>
      </trkpt>
      <trkpt lat="42.19633" lon="-1.01729">
        <ele>548.69</ele>
        <time>2021-08-03T17:13:53Z</time>
      </trkpt>
      <trkpt lat="42.1962" lon="-1.01747">
        <ele>548.74</ele>
        <time>2021-08-03T17:13:55Z</time>
      </trkpt>
      <trkpt lat="42.19571" lon="-1.0177">
        <ele>549.55</ele>
        <time>2021-08-03T17:14:00Z</time>
      </trkpt>
      <trkpt lat="42.1952" lon="-1.01737">
        <ele>551.54</ele>
        <time>2021-08-03T17:14:06Z</time>
      </trkpt>
      <trkpt lat="42.19508" lon="-1.01727">
        <ele>551.65</ele>
        <time>2021-08-03T17:14:07Z</time>
      </trkpt>
      <trkpt lat="42.19442" lon="-1.01695">
        <ele>550.88</ele>
        <time>2021-08-03T17:14:13Z</time>
      </trkpt>
      <trkpt lat="42.19433" lon="-1.01687">
        <ele>550.62</ele>
        <time>2021-08-03T17:14:14Z</time>
      </trkpt>
      <trkpt lat="42.19396" lon="-1.01656">
        <ele>548.81</ele>
        <time>2021-08-03T17:14:18Z</time>
      </trkpt>
      <trkpt lat="42.19309" lon="-1.01599">
        <ele>544.94</ele>
        <time>2021-08-03T17:14:25Z</time>
      </trkpt>
      <trkpt lat="42.19288" lon="-1.01588">
        <ele>544.14</ele>
        <time>2021-08-03T17:14:27Z</time>
      </trkpt>
      <trkpt lat="42.19262" lon="-1.01553">
        <ele>542.29</ele>
        <time>2021-08-03T17:14:31Z</time>
      </trkpt>
    </trkseg>
  </trk>
</gpx>